     2              OBSERVATION DATA    GPS                 RINEX VERSION / TYPE
teqc 2002Apr3 20051122 00:02:36UTC                          PGM / RUN BY / DATE
                                                            COMMENT
L2: 1 -> 1; 150 -> 5; 250 -> 9                              COMMENT
L2: 1 -> 1; 150 -> 5; 250 -> 9                              COMMENT
L2: 1 -> 1; 150 -> 5; 250 -> 9                              COMMENT
L2: 1 -> 1; 150 -> 5; 250 -> 9                              COMMENT
L2: 1 -> 1; 150 -> 5; 250 -> 9                              COMMENT
Original Marker Name: TJE3                                  COMMENT
Campaign Name: UCSD Rose 2005-6                             COMMENT
4-Character Station Name: TJE3                              COMMENT
6-Character Antenna Code: DMRCHT                            COMMENT
Vertical Measurement Point: BPA                             COMMENT
Vertical Offset to Rinex Ref. Point: 0.0000                 COMMENT
Radial Measurement Point: RRP                               COMMENT
Radial Offset to Rinex Ref. Point: 0.0000                   COMMENT
Antenna Height from Field Measurement: 0.8900 m             COMMENT
Additional Antenna Identification Info.:                    COMMENT
Turborogue and Ashtech Choke Ring                           COMMENT
Original XYZ: -2455550.0354 -4767185.7920 3441700.0654      COMMENT
New XYZ position is based on association with SCEC monument COMMENT
E1C8F7Y0+0031. Position of that monument is believed to be  COMMENT
valid to within 1 m horizontally; vertical accuracy         COMMENT
should be no worse than 3-times this value.                 COMMENT
                                                            COMMENT
Revised Rinex header created by UCSD GPS archive for        COMMENT
GSAC on 01-Apr-2006 (2006:091) 00:15:48 GMT                 COMMENT
For assistance contact dagnew@ucsd.edu                      COMMENT
or anderson@python.ucsd.edu                                 COMMENT
                                                            COMMENT
TJE3                                                        MARKER NAME
SJB SCRIPPS INSTITUTION OF OCEANOGRAPHY                     OBSERVER / AGENCY
389 ASHTECH Z-XII3 CC00                                     REC # / TYPE / VERS
738 DORNE-MARGOL. TYPE T                                    ANT # / TYPE
 -2452364.0000 -4791160.0000  3410823.0000                  APPROX POSITION XYZ
        0.8900        0.0000        0.0000                  ANTENNA: DELTA H/E/N
     1     1     0                                          WAVELENGTH FACT L1/2
     7    C1    L1    L2    P1    P2    S1    S2            # / TYPES OF OBSERV
     0                                                      INTERVAL
  2005    10    27    17    34   30.000000                  TIME OF FIRST OBS
  2005    10    27    20     5    0.000000                  TIME OF LAST OBS
                                                            END OF HEADER
 05 10 27 17 34 30.0000000  0  6G 3G27G23G 8G19G13
  23163947.4034      97748.83249     57777.83245  23163947.0534   23163953.6934
       223.0004        161.0004
  21765130.6624     -76510.18549    -54743.82647  21765130.5844   21765136.3794
       238.0004        203.0004
  21989318.7454     202178.67749    144773.68847  21989318.6514   21989321.8614
       235.0004        195.0004
  22783779.8284    -146047.80349   -100384.04246  22783779.6984   22783786.1944
       226.0004        177.0004
  22618296.4464     -93584.48849    -66782.20146  22618295.4904   22618299.8234
       228.0004        184.0004
                     35410.24849     24331.39343
       242.0004         74.0004
 05 10 27 17 34 59.9990000  0  8G28G 3G27G23G 8G19G10G13
  23037215.9504    -239631.61049   -177108.98646  23037215.6674   23037222.5334
       224.0004        165.0004
  22871110.6784     134298.14549     86257.81246  22871110.0804   22871116.3694
       220.0004        165.0004
  21459965.9634    -104741.32749    -76742.12047  21459965.8754   21459971.6504
       239.0004        205.0004
  21703920.8554     277824.55649    203718.47847  21703920.9984   21703924.3484
       234.0004        196.0004
  22472203.2074    -207975.72349   -148639.53346  22472203.3274   22472209.0334
       227.0004        180.0004
  22312081.0304    -127336.91549    -93082.76046  22312079.7694   22312084.4294
       228.0004        185.0004
                   -140364.30849    -98909.06043
       207.0004         74.0004
                     48756.87449      6209.80147                  20218760.3014
       241.0004        199.0004
 05 10 27 17 35 30.0000000  0  8G28G 3G27G23G 8G19G10G13
  23059570.1724   -1697577.14349  -1313170.39446  23059570.5914   23059576.3274
       222.0004        168.0004
  22916598.1464   -1202082.65849   -955077.89746  22916597.3204   22916604.0024
       219.0004        165.0004
  21493037.0154   -1506371.61449  -1168921.56547  21493037.0004   21493042.9724
       238.0004        205.0004
  21756816.5794   -1019627.23649   -807282.97147  21756816.7394   21756819.8454
       234.0004        196.0004
  22498862.5724   -1643298.68349  -1267072.98246  22498862.7914   22498869.0784
       227.0004        180.0004
  22344180.3184   -1534073.62849  -1189241.22246  22344179.7164   22344184.1214
       229.0004        187.0004
                  -1568862.01549  -1212024.18544                  24413034.6364
       208.0004        131.0004
  20259821.1484   -1310863.16849  -1053234.40848  20259821.5074   20259825.8754
       241.0004        213.0004
 05 10 27 17 36  0.0000000  0  8G28G 3G27G23G 8G19G10G13
  23044018.4524   -1779302.91249  -1376852.77546  23044018.7684   23044025.3754
       223.0004        168.0004
  22924231.3504   -1161969.80449   -923821.12846  22924230.9654   22924237.6324
       221.0004        166.0004
  21488165.4324   -1531971.89649  -1188869.81947  21488165.4334   21488170.9844
       238.0004        205.0004
  21771825.4344    -940755.71049   -745824.68147  21771825.4594   21771829.2284
       233.0004        196.0004
  22487580.6964   -1702585.94749  -1313270.80946  22487580.8824   22487586.8314
       228.0004        181.0004
  22338416.0734   -1564364.28349  -1212844.29746  22338415.4274   22338419.8804
       229.0004        187.0004
  24403119.0064   -1620928.66249  -1252595.53745  24403118.5534   24403125.5954
       207.0004        138.0004
  20263025.6284   -1294023.46849  -1040112.57148  20263026.1094   20263030.2244
       241.0004        215.0004
 05 10 27 17 36 30.0000000  0  8G28G 3G27G23G 8G19G10G13
  23028517.2664   -1860762.38849  -1440327.64546  23028517.2194   23028523.0274
       223.0004        169.0004
  22931967.5584   -1121315.54549   -892142.49246  22931967.4094   22931974.1884
       221.0004        167.0004
  21483308.5484   -1557495.23449  -1208758.13347  21483308.8854   21483314.1754
       239.0004        205.0004
  21786905.0454    -861512.24449   -684076.57747  21786905.0794   21786908.4814
       234.0004        196.0004
  22476314.4134   -1761791.59149  -1359405.05146  22476314.3214   22476320.6124
       228.0004        181.0004
  22332746.1634   -1594160.01249  -1236061.72447  22332745.5424   22332750.0224
       229.0004        188.0004
  24393302.6824   -1672516.27649  -1292793.66645  24393303.2284   24393310.7064
       205.0004        141.0004
  20266327.0054   -1276674.68449  -1026594.05648  20266327.4534   20266331.5744
       241.0004        215.0004
 05 10 27 17 37  0.0000000  0  8G28G 3G27G23G 8G19G10G13
  23013066.5814   -1941956.78749  -1503595.97546  23013067.2654   23013072.9114
       224.0004        170.0004
  22939806.1944   -1080123.24149   -860044.59346  22939806.5024   22939812.2224
       222.0004        168.0004
  21478465.9874   -1582943.64149  -1228588.05247  21478466.0674   21478471.3324
       239.0004        206.0004
  21802054.8024    -781900.16249   -622041.23847  21802054.8224   21802058.2654
       234.0004        195.0004
  22465063.0774   -1820917.86549  -1405477.42746  22465063.0804   22465069.2234
       228.0004        181.0004
  22327170.1954   -1623461.85749  -1258894.31547  22327170.1524   22327173.9334
       230.0004        188.0004
  24383576.9374   -1723625.87949  -1332619.29645  24383576.4314   24383584.1944
       208.0004        142.0004
  20269724.8644   -1258818.94749  -1012680.50648  20269725.3614   20269729.6284
       242.0004        216.0004
 05 10 27 17 37 30.0000000  0  8G28G 3G27G23G 8G19G10G13
  22997667.0154   -2022882.45649  -1566654.89546  22997666.9264   22997673.1594
       224.0004        171.0004
  22947747.4054   -1038391.88649   -827526.65146  22947747.1654   22947754.5034
       221.0004        167.0004
  21473638.0754   -1608314.74749  -1248357.74147  21473638.2404   21473643.5494
       239.0004        206.0004
  21817274.8694    -701918.56649   -559717.97247  21817275.1054   21817278.2734
       234.0004        195.0004
  22453827.2504   -1879962.46149  -1451486.18446  22453827.1294   22453834.1884
       227.0004        181.0004
  22321689.0344   -1652265.40649  -1281338.62147  22321688.2374   22321693.0964
       230.0004        188.0004
  24373942.8674   -1774253.68849  -1372069.52045  24373942.2114   24373949.7184
       208.0004        141.0004
  20273219.7124   -1240453.64449   -998369.89648  20273220.2524   20273224.3414
       242.0004        216.0004
 05 10 27 17 38  0.0000000  0  8G28G 3G27G23G 8G19G10G13
  22982318.6204   -2103538.99849  -1629504.09546  22982319.4714   22982324.9594
       225.0004        172.0004
  22955790.9784    -996122.39549   -794589.39046  22955791.4064   22955797.5914
       221.0004        166.0004
  21468824.9694   -1633608.16749  -1268066.89647  21468825.0724   21468830.3504
       239.0004        206.0004
  21832564.8564    -621569.32049   -497108.22147  21832565.1504   21832568.6494
       234.0004        194.0004
  22442607.0284   -1938925.24949  -1497431.18346  22442606.4374   22442613.3684
       228.0004        182.0004
  22316303.0384   -1680569.26749  -1303393.55947  22316302.6154   22316306.8524
       230.0004        188.0004
  24364400.7414   -1824398.25949  -1411143.19345  24364401.0764   24364408.6004
       208.0004        143.0004
  20276811.5864   -1221578.36049   -983661.90048  20276812.0654   20276816.3474
       241.0004        215.0004
 05 10 27 17 38 30.0000000  0  8G28G 3G27G23G 8G19G10G13
  22967021.5624   -2183926.07049  -1692143.32446  22967020.7024   22967027.7694
       225.0004        171.0004
  22963936.6044    -953316.98449   -761234.52946  22963937.2174   22963943.4854
       220.0004        165.0004
  21464026.3864   -1658824.79749  -1287716.20847  21464026.2644   21464031.8664
       239.0004        206.0004
  21847924.5004    -540854.50649   -434213.60447  21847924.3574   21847927.9564
       234.0004        194.0004
  22431402.1264   -1997807.50849  -1543313.43546  22431402.2334   22431408.5964
       227.0004        182.0004
  22311012.3564   -1708372.02449  -1325058.02747  22311011.6384   22311016.1404
       230.0004        189.0004
  24354950.5814   -1874059.53149  -1449840.25145  24354949.4894   24354957.7874
       209.0004        143.0004
  20280500.4044   -1202193.50649   -968556.83048  20280500.8614   20280505.1604
       241.0004        215.0004
 05 10 27 17 39  0.0000000  0  8G28G 3G27G23G 8G19G10G13
  22951775.7404   -2264043.70949  -1754572.60546  22951775.5964   22951782.0924
       225.0004        171.0004
  22972183.7734    -909977.72449   -727463.68746  22972184.4784   22972190.8074
       220.0004        165.0004
  21459242.2944   -1683965.19849  -1307306.12847  21459242.1764   21459247.9454
       239.0004        206.0004
  21863353.1694    -459776.57049   -371036.04847  21863353.2364   21863356.2494
       234.0004        194.0004
  22420212.4604   -2056609.65249  -1589133.25746  22420211.7904   22420218.4304
       228.0004        182.0004
  22305817.0774   -1735673.33549  -1346331.76047  22305816.6544   22305820.8884
       230.0004        189.0004
  24345592.5764   -1923236.82549  -1488160.22645  24345592.3974   24345599.0294
       207.0004        143.0004
  20284286.0814   -1182299.64049   -953055.13548  20284286.7604   20284290.7684
       241.0004        215.0004
 05 10 27 17 39 30.0000000  0  8G28G 3G27G23G 8G19G10G13
  22936581.3664   -2343890.75449  -1816791.04446  22936581.0954   22936587.1664
       225.0004        171.0004
  22980532.2894    -866106.17649   -693278.08046  22980532.4384   22980539.2894
       221.0004        165.0004
  21454472.8654   -1709028.63749  -1326836.08247  21454472.6884   21454478.6164
       239.0004        206.0004
  21878850.7124    -378336.89449   -307576.60947  21878850.7074   21878854.0644
       233.0004        194.0004
  22409037.9794   -2115332.09749  -1634890.98246  22409038.0764   22409044.0144
       229.0004        182.0004
  22300717.4944   -1762471.80149  -1367213.66047  22300716.7954   22300721.8434
       229.0004        190.0004
  24336326.7424   -1971929.03349  -1526102.18545  24336325.9624   24336333.2014
       207.0004        143.0004
  20288168.7204   -1161896.39949   -937156.52348  20288169.1634   20288173.5494
       241.0004        215.0004
 05 10 27 17 40  0.0000000  0  8G28G 3G27G23G 8G19G10G13
  22921438.5684   -2423466.43049  -1878798.02546  22921438.0394   22921444.1164
       224.0004        171.0004
  22988981.8254    -821703.92649   -658678.93446  22988982.4494   22988988.4844
       222.0004        165.0004
  21449718.0464   -1734015.37149  -1346306.26447  21449718.1294   21449724.0544
       239.0004        206.0004
  21894416.6984    -296537.21049   -243836.65047  21894416.6514   21894419.9164
       234.0004        194.0004
  22397878.6844   -2173974.76249  -1680586.54546  22397878.5714   22397885.0434
       228.0004        183.0004
  22295713.8254   -1788766.14149  -1387702.74447  22295713.5294   22295718.1324
       230.0004        191.0004
  24327153.5534   -2020134.74249  -1563665.04345  24327153.6024   24327160.5104
       207.0004        143.0004
  20292148.2684   -1140983.80449   -920861.01048  20292148.8484   20292153.0114
       241.0004        215.0004
 05 10 27 17 40 30.0000000  0  8G28G 3G27G23G 8G19G10G13
  22906347.6964   -2502769.31449  -1940592.42746  22906347.2664   22906352.7534
       225.0004        171.0004
  22997532.2254    -776771.70749   -623666.83546  22997532.9794   22997539.4114
       221.0004        164.0004
  21444977.9524   -1758924.85049  -1365716.25047  21444978.1114   21444983.8254
       239.0004        206.0004
  21910051.0384    -214378.63849   -179817.03647  21910051.1874   21910054.4044
       233.0004        193.0004
  22386734.4954   -2232537.45249  -1726219.78146  22386734.2064   22386740.6124
       228.0004        182.0004
  22290806.5754   -1814554.05849  -1407797.20447  22290806.0764   22290810.6134
       230.0004        191.0004
  24318073.1264   -2067852.64749  -1600847.84745  24318072.9184   24318080.4824
       206.0004        143.0004
  20296224.9294   -1119561.15249   -904168.04648  20296225.4854   20296229.6844
       242.0004        215.0004
 05 10 27 17 41  0.0000000  0  8G28G 3G27G23G 8G19G10G13
  22891308.8204   -2581799.00649  -2002173.97946  22891308.8374   22891314.2104
       225.0004        172.0004
  23006183.0854    -731311.14449   -588243.03646  23006183.0714   23006188.5944
       220.0004        164.0004
  21440252.5704   -1783757.25949  -1385066.17447  21440252.8124   21440258.2514
       239.0004        206.0004
  21925753.3004    -131863.04349   -115519.22647  21925753.3874   21925756.5514
       232.0004        193.0004
  22375605.5814   -2291020.19849  -1771790.72246  22375605.4614   22375611.8684
       229.0004        183.0004
  22285995.8764   -1839834.44549  -1427496.19347  22285995.0974   22285999.5434
       231.0004        192.0004
  24309085.8294   -2115081.53649  -1637649.55845  24309085.3504   24309093.5294
       211.0004        145.0004
  20300398.5874   -1097628.64949   -887077.80148  20300399.0764   20300403.4534
       242.0004        215.0004
 05 10 27 17 41 30.0000000  0  8G28G 3G27G23G 8G19G10G13
  22876322.0254   -2660554.85349  -2063542.13046  22876321.8224   22876327.8224
       225.0004        172.0004
  23014934.1784    -685323.85749   -552408.80846  23014934.7924   23014941.2124
       219.0004        163.0004
  21435541.9124   -1808512.15649  -1404355.69247  21435542.0534   21435547.3884
       239.0004        207.0004
  21941523.2254     -48992.11849    -50944.54047  21941523.1004   21941526.6064
       233.0004        193.0004
  22364491.9214   -2349423.29949  -1817299.60646  22364491.7654   22364498.1414
       228.0004        183.0004
  22281282.1304   -1864605.92749  -1446798.62947  22281281.6104   22281285.9214
       230.0004        193.0004
  24300191.7724   -2161820.80549  -1674069.75645  24300190.8984   24300198.0944
       208.0004        144.0004
  20304669.2934   -1075185.93049   -869589.98548  20304669.8604   20304674.1174
       242.0004        215.0004
 05 10 27 17 42  0.0000000  0  8G28G 3G27G23G 8G19G10G13
  22861387.6504   -2739035.49649  -2124695.82846  22861387.9004   22861393.4804
       225.0004        173.0004
  23023785.3074    -638810.82949   -516164.92046  23023785.4154   23023792.2734
       219.0004        163.0004
  21430846.0604   -1833189.32349  -1423584.64547  21430846.4044   21430851.3124
       240.0004        206.0004
  21957360.3764      34232.53249     13905.78647  21957360.4764   21957363.8124
       234.0004        193.0004
  22353393.3474   -2407746.53949  -1862746.26046  22353393.2684   22353399.2614
       228.0004        183.0004
  22276665.5014   -1888866.75349  -1465703.16147  22276664.9564   22276669.4314
       231.0004        193.0004
  24291391.0644   -2208068.81949  -1710107.14945  24291390.3404   24291397.7284
       206.0004        145.0004
  20309037.2174   -1052232.67649   -851704.34948  20309037.8964   20309042.0344
       242.0004        215.0004
 05 10 27 17 42 30.0000000  0  8G28G 3G27G23G 8G19G10G13
  22846505.8134   -2817239.87549  -2185634.27146  22846505.6634   22846512.1144
       226.0004        173.0004
  23032736.2494    -591773.41349   -479512.41145  23032736.0794   23032742.4444
       218.0004        162.0004
  21426165.1164   -1857788.18349  -1442752.58147  21426165.0254   21426170.1064
       240.0004        206.0004
  21973264.7494     117810.05349     79031.07247  21973264.5264   21973267.9694
       234.0004        193.0004
  22342310.1014   -2465989.50549  -1908130.35946  22342309.9414   22342316.3364
       229.0004        184.0004
  22272146.2594   -1912615.36949  -1484208.56047  22272145.2854   22272150.1724
       231.0004        193.0004
  24282684.1304   -2253823.97349  -1745760.48745  24282683.4684   24282690.7044
       208.0004        145.0004
  20313502.3424   -1028768.45149   -833420.55848  20313502.8854   20313507.2224
       242.0004        215.0004
 05 10 27 17 43  0.0000000  0  8G28G 3G27G23G 8G19G10G13
  22831676.7704   -2895166.92049  -2246356.59246  22831676.6094   22831683.2644
       225.0004        174.0004
  23041786.6994    -544212.92649   -442452.32045  23041786.8734   23041792.8764
       218.0004        162.0004
  21421499.0954   -1882308.24049  -1461859.11647  21421498.9054   21421504.4164
       239.0004        206.0004
  21989235.8564     201738.66949    144429.94047  21989235.8194   21989239.2514
       233.0004        193.0004
  22331242.1794   -2524151.88949  -1953451.66246  22331241.6034   22331248.4454
       229.0004        184.0004
  22267724.7924   -1935850.38249  -1502313.75447  22267724.3354   22267728.5484
       231.0004        192.0004
  24274071.2274   -2299085.25149  -1781029.01845  24274070.7014   24274078.3204
       206.0004        145.0004
  20318064.7114   -1004793.18149   -814738.54748  20318065.2164   20318069.5454
       242.0004        215.0004
 05 10 27 17 43 30.0000000  0  8G28G 3G27G23G 8G19G10G13
  22816900.6074   -2972816.15149  -2306862.45646  22816900.3494   22816906.5764
       226.0004        175.0004
  23050936.3564    -496131.04749   -404985.94945  23050936.4194   23050942.4164
       219.0004        162.0004
  21416847.9964   -1906749.58349  -1480904.31647  21416847.8954   21416853.3974
       239.0004        206.0004
  22005273.4674     286016.62449    210101.02547  22005273.6364   22005277.2654
       233.0004        193.0004
  22320189.4974   -2582234.45749  -1998710.77346  22320189.3644   22320195.4784
       229.0004        184.0004
  22263401.3244   -1958570.43149  -1520017.67247  22263400.9684   22263405.2084
       231.0004        192.0004
  24265552.4414   -2343851.73949  -1815911.96645  24265552.6374   24265558.8494
       208.0004        144.0004
  20322724.3944    -980306.63549   -795658.13548  20322725.0104   20322729.0564
       242.0004        215.0004
 05 10 27 17 44  0.0000000  0  8G28G 3G27G23G 8G19G10G13
  22802177.5014   -3050186.41949  -2367150.93946  22802177.0914   22802183.9814
       225.0004        175.0004
  23060185.1664    -447528.80249   -367114.09345  23060185.0464   23060192.0224
       218.0004        162.0004
  21412212.0524   -1931111.47349  -1499887.61347  21412211.8744   21412217.6654
       239.0004        206.0004
  22021377.3584     370642.61349    276043.29847  22021377.5884   22021380.6174
       233.0004        193.0004
  22309152.0244   -2640236.87549  -2043907.43746  22309152.0254   22309158.4424
       230.0004        184.0004
  22259176.2104   -1980773.62849  -1537318.85247  22259175.4834   22259179.7844
       232.0004        192.0004
  24257128.2284   -2388121.90749  -1850408.19245  24257127.7204   24257135.5754
       209.0004        145.0004
  20327481.3884    -955308.65849   -776179.21048  20327481.9674   20327486.1104
       242.0004        215.0004
 05 10 27 17 44 30.0000000  0  8G28G 3G27G23G 8G19G10G13
  22787507.6164   -3127277.08149  -2427221.54046  22787507.4074   22787515.1164
       227.0004        176.0004
  23069532.6234    -398407.99549   -328838.18545  23069533.4744   23069539.1894
       220.0004        162.0004
  21407591.2434   -1955393.91449  -1518808.99347  21407591.3534   21407597.0694
       239.0004        207.0004
  22037547.0464     455614.89449    342255.41247  22037546.7144   22037551.1594
       233.0004        192.0004
  22298129.8704   -2698159.15249  -2089041.65746  22298130.0364   22298135.9204
       229.0004        185.0004
  22255049.6224   -2002459.05149  -1554216.57247  22255048.8104   22255053.6604
       231.0004        192.0004
  24248798.3234   -2431895.17749  -1884517.20645  24248797.9274   24248805.7264
       207.0004        146.0004
  20332335.6774    -929799.30049   -756301.80648  20332336.1174   20332340.5584
       242.0004        215.0004
 05 10 27 17 45  0.0000000  0  8G28G 3G27G23G 8G19G10G13
  22772891.3404   -3204086.38849  -2487072.92046  22772890.9964   22772897.2104
       227.0004        176.0004
  23078978.6464    -348769.38449   -290158.78145  23078979.0954   23078984.2544
       217.0004        162.0004
  21402985.8814   -1979595.77249  -1537667.58247  21402986.0614   21402991.4584
       240.0004        207.0004
  22053782.4864     540932.43149    408736.55347  22053782.6044   22053786.1384
       233.0004        192.0004
  22287123.1634   -2755999.85449  -2134112.30946  22287123.2464   22287129.1514
       229.0004        185.0004
  22251021.9724   -2023624.66649  -1570709.24447  22251021.5484   22251025.5704
       231.0004        192.0004
  24240563.6264   -2475169.36549  -1918237.34345  24240563.3474   24240570.8434
       208.0004        147.0004
  20337287.4644    -903777.61849   -736025.18948  20337288.1484   20337292.3234
       242.0004        215.0004
 05 10 27 17 45 30.0000000  0  8G28G 3G27G23G 8G19G10G13
  22758328.6104   -3280614.19449  -2546704.93446  22758328.9674   22758334.5054
       228.0004        176.0004
  23088522.7314    -298615.10749   -251077.55645  23088523.0484   23088529.4374
       219.0004        162.0004
  21398395.7434   -2003717.39349  -1556463.64547  21398395.7594   21398401.2404
       240.0004        207.0004
  22070083.2504     626593.05449    475485.04247  22070083.4894   22070086.8214
       232.0004        191.0004
  22276131.7784   -2813760.06449  -2179120.23746  22276131.8054   22276137.7854
       230.0004        184.0004
  22247093.3624   -2044269.65549  -1586796.23147  22247092.6184   22247097.2054
       232.0004        193.0004
  24232423.7744   -2517944.06649  -1951568.25445  24232423.3224   24232430.8694
       206.0004        145.0004
  20342336.7314    -877243.94449   -715349.61548  20342337.3434   20342341.4674
       242.0004        215.0004
 05 10 27 17 46  0.0000000  0  8G28G 3G27G23G 8G19G10G13
  22743819.7744   -3356859.23649  -2606116.62246  22743819.1624   22743825.8014
       228.0004        177.0004
  23098164.6824    -247946.42749   -211595.51245  23098165.9024   23098171.7094
       218.0004        162.0004
  21393821.0444   -2027757.91049  -1575196.51647  21393821.1064   21393826.5544
       240.0004        207.0004
  22086449.0804     712595.60649    542499.95847  22086449.3994   22086452.7264
       233.0004        191.0004
  22265155.8064   -2871439.22549  -2224065.01146  22265155.7134   22265161.8124
       230.0004        184.0004
  22243264.1294   -2064392.32749  -1602476.21647  22243263.4594   22243267.7954
       232.0004        193.0004
  24224379.3034   -2560217.82849  -1984508.84745  24224377.9124   24224385.6314
       205.0004        145.0004
  20347483.4564    -850197.86549   -694274.76948  20347484.0904   20347488.3354
       242.0004        215.0004
 05 10 27 17 46 30.0000000  0  8G28G 3G27G23G 8G19G10G13
  22729364.8914   -3432820.21749  -2665306.94746  22729364.4284   22729370.2584
       228.0004        177.0004
  23107904.3594    -196764.23249   -171713.32645  23107904.7804   23107910.5774
       218.0004        161.0004
  21389261.9364   -2051716.36749  -1593865.44747  21389262.0724   21389267.2794
       239.0004        207.0004
  22102879.6784     798938.75349    609780.27447  22102879.2254   22102883.5764
       232.0004        191.0004
  22254195.4074   -2929036.54349  -2268946.02346  22254195.2714   22254201.4034
       229.0004        184.0004
  22239534.5884   -2083991.06149  -1617747.93447  22239534.3114   22239538.4404
       231.0004        194.0004
  24216430.3654   -2601989.41349  -2017058.11545  24216430.3844   24216436.8734
       209.0004        145.0004
  20352727.7254    -822639.34549   -672800.61148  20352728.3894   20352732.5024
       243.0004        215.0004
 05 10 27 17 47  0.0000000  0  8G28G 3G27G23G 8G19G10G13
  22714964.1564   -3508496.65949  -2724275.57046  22714963.7784   22714969.2144
       228.0004        177.0004
  23117741.3824    -145070.79149   -131432.76045  23117742.0204   23117746.9894
       218.0004        160.0004
  21384718.3634   -2075592.82249  -1612470.47847  21384718.4174   21384723.4514
       239.0004        206.0004
  22119374.7224     885620.48049    677324.42047  22119374.7654   22119377.8654
       232.0004        190.0004
  22243250.4244   -2986552.59149  -2313763.70546  22243249.6394   22243256.1894
       229.0004        184.0004
  22235904.9974   -2103064.63149  -1632610.43347  22235904.5744   22235908.5614
       232.0004        194.0004
  24208577.4234   -2643258.22449  -2049215.62445  24208576.9914   24208584.8744
       207.0004        147.0004
  20358069.4694    -794568.62949   -650927.33848  20358070.1814   20358074.1204
       243.0004        215.0004
 05 10 27 17 47 30.0000000  0  8G28G 3G27G23G 8G19G10G13
  22700617.6924   -3583887.73449  -2783021.81146  22700617.2704   22700623.4234
       228.0004        178.0004
  23127675.5314     -92867.16649    -90754.65845  23127675.7934   23127681.6004
       218.0004        160.0004
  21380190.4584   -2099386.99349  -1631011.38947  21380190.5924   21380196.0614
       239.0004        207.0004
  22135933.9464     972639.28649    745131.23547  22135933.8924   22135937.2094
       233.0004        190.0004
  22232320.9624   -3043987.03349  -2358517.79846  22232320.5854   22232327.3704
       230.0004        184.0004
  22232375.6674   -2121611.67349  -1647062.65047  22232375.0574   22232379.2334
       232.0004        194.0004
  24200820.1124   -2684022.89349  -2080980.29845  24200819.4114   24200826.6054
       211.0004        146.0004
  20363508.7754    -765985.15249   -628654.51048  20363509.2864   20363513.2884
       243.0004        215.0004
 05 10 27 17 48  0.0000000  0  8G28G 3G27G23G 8G19G10G13
  22686325.5714   -3658993.18849  -2841545.51246  22686325.8034   22686331.2094
       228.0004        178.0004
  23137706.2404     -40155.47549    -49680.64645  23137705.5004   23137712.9544
       217.0004        160.0004
  21375678.2604   -2123098.81849  -1649488.13747  21375678.2064   21375683.8124
       239.0004        207.0004
  22152556.9254    1059993.31349    813199.25247  22152557.2044   22152560.2114
       232.0004        190.0004
  22221407.0054   -3101340.16749  -2403208.53146  22221406.9104   22221413.1124
       231.0004        185.0004
  22228946.6624   -2139631.27449  -1661103.87747  22228945.8514   22228950.3424
       232.0004        194.0004
  24193158.9124   -2724282.96849  -2112351.78145  24193157.5864   24193165.8974
       207.0004        146.0004
  20369045.5344    -736889.43249   -605982.53848  20369046.1234   20369050.2464
       243.0004        215.0004
 05 10 27 17 48 30.0000000  0  8G28G 3G27G23G 8G19G10G13
  22672088.1044   -3733810.95949  -2899845.03046  22672087.8204   22672093.8044
       228.0004        178.0004
  23147833.4484      13063.56849     -8211.31545  23147833.6584   23147839.4914
       218.0004        160.0004
  21371181.9564   -2146727.17849  -1667899.84847  21371181.9494   21371187.5834
       240.0004        207.0004
  22169243.5514    1147681.82149    881527.90447  22169243.5324   22169246.6514
       232.0004        189.0004
  22210508.7344   -3158611.11249  -2447835.22546  22210508.0754   22210514.7204
       230.0004        185.0004
  22225618.3944   -2157121.45549  -1674732.56747  22225617.8554   22225622.0134
       233.0004        194.0004
  24185594.1454   -2764036.56849  -2143328.60145  24185593.5524   24185600.5164
       208.0004        146.0004
  20374679.9704    -707280.51049   -582910.66348  20374680.6024   20374684.5394
       243.0004        215.0004
 05 10 27 17 49  0.0000000  0  8G28G 3G27G23G 8G19G10G13
  22657905.5344   -3808340.62749  -2957920.05346  22657905.1194   22657911.5374
       227.0004        178.0004
  23158056.9704      66787.99349     33651.83845  23158056.8214   23158063.7854
       218.0004        160.0004
  21366701.6104   -2170271.84749  -1686246.34347  21366701.7904   21366707.1464
       240.0004        207.0004
  22185993.3504    1235702.34749    950115.26247  22185993.5364   22185996.4174
       231.0004        188.0004
  22199626.0894   -3215799.73449  -2492397.76746  22199625.9694   22199631.9054
       230.0004        185.0004
  22222391.0234   -2174081.67449  -1687948.30247  22222390.2894   22222394.8704
       232.0004        194.0004
  24178125.7104   -2803283.04849  -2173910.25245  24178124.4034   24178132.6144
       207.0004        146.0004
  20380411.9454    -677158.91349   -559439.29748  20380412.2444   20380416.5294
       242.0004        215.0004
 05 10 27 17 49 30.0000000  0  8G28G 3G27G23G 8G19G10G13
  22643777.9554   -3882581.64849  -3015770.16146  22643778.1194   22643783.8704
       229.0004        178.0004
  23168376.2314     121016.08749     75907.45345  23168376.9064   23168382.4034
       218.0004        160.0004
  21362237.3084   -2193732.20749  -1704527.14647  21362237.2814   21362242.6974
       240.0004        207.0004
  22202806.1434    1324053.43749   1018960.20947  22202806.1374   22202809.6124
       232.0004        188.0004
  22188759.2144   -3272905.95949  -2536896.11546  22188759.3324   22188765.2194
       231.0004        185.0004
  22219264.7524   -2190510.34449  -1700749.84447  22219264.1144   22219268.1764
       233.0004        194.0004
  24170754.0744   -2842021.36549  -2204095.94045  24170753.4364   24170760.5364
       208.0004        147.0004
  20386241.4534    -646524.65549   -535568.46548  20386242.0084   20386246.0864
       243.0004        215.0004
 05 10 27 17 50  0.0000000  0  8G28G 3G27G23G 8G19G10G13
  22629705.4164   -3956533.24049  -3073394.73946  22629705.0214   22629710.8284
       228.0004        179.0004
  23178791.0624     175746.09649    118554.16645  23178791.3674   23178797.8174
       218.0004        161.0004
  21357789.1364   -2217107.71349  -1722741.82947  21357789.1404   21357794.7384
       240.0004        207.0004
  22219681.4124    1412733.41449   1088061.43347  22219681.9344   22219685.0004
       232.0004        188.0004
  22177907.9714   -3329929.65249  -2581330.14546  22177907.5944   22177913.8194
       231.0004        185.0004
  22216239.8424   -2206406.38649  -1713136.35247  22216239.2984   22216243.1344
       233.0004        194.0004
  24163479.1214   -2880250.99349  -2233885.25345  24163479.0924   24163485.8634
       209.0004        146.0004
  20392168.4644    -615378.21349   -511298.52348  20392168.8754   20392173.1544
       242.0004        215.0004
 05 10 27 17 50 30.0000000  0  8G28G 3G27G23G 8G19G10G13
  22615688.2404   -4030194.05449  -3130792.73946  22615687.9254   22615694.1524
       229.0004        179.0004
  23189301.2814     230976.86949    161591.09045  23189301.8804   23189307.5824
       218.0004        161.0004
  21353357.1914   -2240397.88949  -1740890.02247  21353357.0694   21353362.8434
       240.0004        207.0004
  22236618.9974    1501740.89349   1157417.84946  22236619.2794   22236622.3074
       230.0004        187.0004
  22167072.4644   -3386870.45749  -2625699.59646  22167072.7054   22167078.0644
       231.0004        186.0004
  22213316.5804   -2221768.49549  -1725106.82147  22213316.2014   22213320.0994
       233.0004        194.0004
  24156301.4274   -2917970.59449  -2263277.12645  24156300.2314   24156308.0004
       207.0004        148.0004
  20398193.0304    -583718.93549   -486628.96848  20398193.4154   20398197.5424
       242.0004        215.0004
 05 10 27 17 51  0.0000000  0  8G28G 3G27G23G 8G19G10G13
  22601726.4304   -4103563.95549  -3187964.04546  22601726.4704   22601732.4094
       229.0004        180.0004
  23199906.2744     286706.14849    205016.46545  23199905.5704   23199912.5574
       218.0004        161.0004
  21348941.5034   -2263602.56449  -1758971.58847  21348941.5154   21348946.9954
       240.0004        207.0004
  22253618.5134    1591073.60449   1227027.70046  22253618.8304   22253622.3174
       231.0004        187.0004
  22156252.7524   -3443728.74649  -2670004.73646  22156252.2364   22156258.6744
       231.0004        186.0004
  22210495.0024   -2236595.80549  -1736660.55147  22210494.3754   22210498.6564
       233.0004        194.0004
  24149220.7744   -2955179.66349  -2292271.19845  24149220.9624   24149227.2754
       209.0004        147.0004
  20404315.1294    -551547.18649   -461560.08448  20404315.5964   20404319.9954
       242.0004        214.0004
 05 10 27 17 51 30.0000000  0  8G28G 3G27G23G 8G19G10G13
  22587820.1774   -4176641.91449  -3244907.87046  22587819.5184   22587825.3674
       229.0004        180.0004
  23210605.9004     342932.55049    248829.20845  23210606.0924   23210612.4164
       217.0004        160.0004
  21344542.1804   -2286721.06849  -1776986.00847  21344542.3014   21344547.7314
       240.0004        207.0004
  22270679.7184    1680730.27249   1296889.97746  22270679.8694   22270683.5364
       230.0004        187.0004
  22145448.7064   -3500504.30549  -2714245.41546  22145448.8254   22145454.5614
       231.0004        186.0004
  22207775.4904   -2250887.01649  -1747796.54747  22207775.0474   22207779.3184
       233.0004        194.0004
  24142237.4204   -2991877.25849  -2320866.70545  24142236.4574   24142244.1404
       207.0004        148.0004
  20410534.7134    -518863.06649   -436091.95148  20410535.0614   20410539.5854
       242.0004        214.0004
 05 10 27 17 52  0.0000000  0  8G28G 3G27G23G 8G19G10G13
  22573969.7044   -4249426.45749  -3301623.06646  22573969.7664   22573975.6484
       230.0004        180.0004
  23221399.8224     399654.99949    293028.48045  23221399.6404   23221406.5384
       217.0004        161.0004
  21340159.5494   -2309752.19749  -1794932.34647  21340159.4854   21340164.9924
       240.0004        207.0004
  22287802.3334    1770709.85349   1367003.87046  22287802.6054   22287805.7234
       230.0004        186.0004
  22134660.7224   -3557195.40749  -2758420.27946  22134660.6134   22134666.4184
       231.0004        186.0004
  22205158.3284   -2264640.35849  -1758513.43147  22205157.5894   22205161.8324
       232.0004        194.0004
  24135351.7554   -3028061.63349  -2349062.33345  24135351.7544   24135358.7924
       207.0004        147.0004
  20416851.9344    -485665.87849   -410224.02848  20416852.4374   20416856.7854
       242.0004        214.0004
 05 10 27 17 52 30.0000000  0  8G28G 3G27G23G 8G19G10G13
  22560175.1264   -4321917.48849  -3358109.54246  22560174.9064   22560180.5444
       230.0004        180.0004
  23232287.7394     456871.05849    337612.38345  23232288.5814   23232295.3604
       218.0004        161.0004
  21335793.4664   -2332696.09949  -1812810.71047  21335793.3984   21335798.9614
       240.0004        207.0004
  22304985.9064    1861009.84649   1437367.43646  22304986.0794   22304989.4574
       229.0004        186.0004
  22123888.6854   -3613802.87049  -2802529.97546  22123888.2314   22123894.5534
       232.0004        186.0004
  22202643.5324   -2277855.67549  -1768811.07347  22202642.6904   22202646.8954
       233.0004        194.0004
  24128563.7364   -3063732.53149  -2376857.80745  24128563.1934   24128571.3224
       210.0004        148.0004
  20423266.6014    -451956.62149   -383957.08948  20423266.9474   20423271.3784
       242.0004        214.0004
 05 10 27 17 53  0.0000000  0  8G28G 3G27G23G 8G19G10G13
  22546436.5994   -4394113.92249  -3414366.46746  22546435.9274   22546441.9844
       230.0004        180.0004
  23243269.2634     514579.29849    382579.81245  23243269.0804   23243275.2254
       218.0004        161.0004
  21331444.1544   -2355552.02949  -1830620.53147  21331444.1884   21331449.6284
       240.0004        207.0004
  22322230.2334    1951628.87149   1507979.60146  22322230.1724   22322234.1504
       229.0004        185.0004
  22113132.6004   -3670326.61149  -2846574.42946  22113132.8774   22113137.8674
       232.0004        187.0004
  22200231.4174   -2290531.29949  -1778688.17847  22200230.7104   22200235.1174
       233.0004        194.0004
  24121873.8124   -3098889.04449  -2404252.49845  24121873.2054   24121880.4194
       209.0004        148.0004
  20429778.7804    -417735.12949   -357291.00848  20429779.2484   20429783.3764
       242.0004        214.0004
 05 10 27 17 53 30.0000000  0  8G28G 3G27G23G 8G19G10G13
  22532754.2474   -4466015.25349  -3470393.44346  22532753.8794   22532759.6004
       229.0004        181.0004
  23254344.0664     572777.75649    427929.22845  23254343.7434   23254350.7274
       218.0004        161.0004
  21327111.6724   -2378319.52149  -1848361.43347  21327111.8584   21327117.2574
       240.0004        208.0004
  22339534.8404    2042564.92849   1578838.80046  22339534.9424   22339538.3244
       228.0004        185.0004
  22102392.5144   -3726766.28349  -2890553.37246  22102391.7034   22102398.2224
       232.0004        187.0004
  22197922.2074   -2302666.28049  -1788144.00247  22197921.6794   22197925.9144
       232.0004        194.0004
  24115281.8874   -3133530.44449  -2431245.78545  24115282.2974   24115288.9474
       209.0004        149.0004
  20436388.3604    -383001.66549   -330225.98248  20436388.8324   20436393.1514
       244.0004        214.0004
 05 10 27 17 54  0.0000000  0  8G28G 3G27G23G 8G19G10G13
  22519128.1374   -4537620.71949  -3526189.87446  22519127.8924   22519134.1824
       229.0004        181.0004
  23265511.9134     631464.55749    473659.16145  23265512.1814   23265519.1114
       218.0004        161.0004
  21322796.1434   -2400997.99349  -1866032.96747  21322796.1654   21322801.6094
       240.0004        208.0004
  22356899.4394    2133816.34249   1649943.73046  22356899.8504   22356902.5414
       228.0004        184.0004
  22091668.5804   -3783121.08649  -2934466.19246  22091668.5164   22091674.3524
       232.0004        187.0004
  22195716.0044   -2314259.81849  -1797177.92147  22195715.4464   22195719.7114
       232.0004        194.0004
  24108787.9164   -3167656.18749  -2457837.26745  24108786.8144   24108794.2814
       207.0004        149.0004
  20443095.3024    -347756.54549   -302762.26848  20443095.8494   20443100.0384
       244.0004        214.0004
 05 10 27 17 54 30.0000000  0  8G28G 3G27G23G 8G19G10G13
  22505558.6144   -4608929.11049  -3581754.81946  22505558.1764   22505563.8044
       229.0004        181.0004
  23276772.4544     690638.62749    519768.78345  23276772.9554   23276779.7134
       218.0004        161.0004
  21318497.6714   -2423586.61749  -1883634.49247  21318497.7414   21318502.9404
       240.0004        208.0004
  22374323.8644    2225381.90649   1721293.45746  22374323.5784   22374327.9774
       228.0004        184.0004
  22080960.7654   -3839390.79649  -2978312.69746  22080960.8594   22080966.7964
       232.0004        187.0004
  22193613.1284   -2325310.42949  -1805788.78947  22193612.7924   22193617.1544
       232.0004        194.0004
  24102392.3604   -3201264.93249  -2484025.92645  24102391.9714   24102398.7684
       210.0004        149.0004
  20449899.6744    -311999.47149   -274899.63348  20449900.2694   20449904.4034
       244.0004        214.0004
 05 10 27 17 55  0.0000000  0  8G28G 3G27G23G 8G19G10G13
  22492045.4394   -4679941.05749  -3637088.77046  22492045.5114   22492050.8364
       230.0004        181.0004
  23288125.1504     750297.20249    566255.95545  23288124.5974   23288131.7394
       218.0004        161.0004
  21314216.2364   -2446085.85649  -1901166.36347  21314216.2554   21314221.6784
       240.0004        208.0004
  22391807.5634    2317258.83449   1792885.80846  22391807.8044   22391811.6334
       228.0004        183.0004
  22070269.0624   -3895576.05549  -3022093.39746  22070268.9414   22070274.5444
       232.0004        187.0004
  22191613.6174   -2335817.96349  -1813976.47547  22191613.0264   22191617.3774
       232.0004        194.0004
  24096095.1724   -3234356.89949  -2509811.85745  24096095.3704   24096101.6764
       210.0004        149.0004
  20456801.1864    -275732.00849   -246639.28948  20456801.6114   20456805.9724
       244.0004        214.0004
 05 10 27 17 55 30.0000000  0  8G28G 3G27G23G 8G19G10G13
  22478589.0494   -4750654.77049  -3692190.32446  22478589.1174   22478594.4514
       230.0004        182.0004
  23299569.8504     810439.22249    613119.82845  23299569.9234   23299576.2264
       217.0004        161.0004
  21309952.1464   -2468494.13249  -1918627.35247  21309951.9474   21309957.6674
       240.0004        208.0004
  22409350.2324    2409446.01249   1864719.90346  22409349.8904   22409354.0464
       227.0004        183.0004
  22059593.7074   -3951675.48449  -3065807.21646  22059593.7814   22059599.5294
       232.0004        187.0004
  22189717.6794   -2345781.05949  -1821739.91747  22189717.1984   22189721.4834
       233.0004        194.0004
  24089896.7654   -3266930.66949  -2535194.04145  24089895.9924   24089904.2994
       208.0004        149.0004
  20463800.0644    -238952.85649   -217980.22648  20463800.6264   20463804.8964
       244.0004        214.0004
 05 10 27 17 56  0.0000000  0  8G28G 3G27G23G 8G19G10G13
  22465189.5514   -4821069.49649  -3747058.90746  22465189.3834   22465195.4594
       230.0004        182.0004
  23311106.1764     871062.73849    660358.89045  23311106.6574   23311113.2124
       217.0004        161.0004
  21305705.4964   -2490810.51949  -1936016.74847  21305705.5674   21305710.7864
       240.0004        208.0004
  22426951.6584    2501941.63849   1936794.34946  22426951.6944   22426955.2934
       227.0004        183.0004
  22048934.6074   -4007689.41749  -3109454.42847  22048934.4804   22048940.4224
       232.0004        188.0004
  22187925.6504   -2355198.45249  -1829078.15247  22187925.2494   22187929.2904
       233.0004        195.0004
  24083796.7804   -3298985.64849  -2560171.92445  24083796.5054   24083803.7324
       211.0004        149.0004
  20470896.1824    -201662.76449   -188923.03248  20470896.7134   20470900.8384
       245.0004        214.0004
 05 10 27 17 56 30.0000000  0  8G28G 3G27G23G 8G19G10G13
  22451847.0974   -4891184.62449  -3801694.03346  22451846.3704   22451852.0844
       231.0004        182.0004
  23322733.6774     932165.71849    707971.56545  23322734.4674   23322740.9074
       216.0004        160.0004
  21301476.2834   -2513035.03249  -1953334.54947  21301476.2154   21301481.6554
       240.0004        208.0004
  22444611.3834    2594744.06149   2009107.85646  22444611.8394   22444615.1194
       227.0004        182.0004
  22038291.8914   -4063617.38449  -3153034.64647  22038291.6984   22038297.8084
       233.0004        188.0004
  22186237.6304   -2364069.52349  -1835990.67547  22186237.2384   22186241.4464
       233.0004        195.0004
  24077795.9494   -3330521.11849  -2584745.04745  24077795.5894   24077802.5454
       210.0004        149.0004
  20478089.4804    -163861.99649   -159467.90848  20478090.1434   20478094.1364
       245.0004        214.0004
 05 10 27 17 57  0.0000000  0  8G28G 3G27G23G 8G19G10G13
  22438561.8144   -4960999.29749  -3856095.03946  22438561.6974   22438566.8764
       230.0004        183.0004
  23334452.1744     993746.77949    755956.77745  23334452.5754   23334458.6124
       216.0004        160.0004
  21297264.7524   -2535166.84049  -1970580.11047  21297264.7904   21297270.0334
       240.0004        208.0004
  22462329.2344    2687851.66049   2081659.15846  22462328.7634   22462332.4904
       225.0004        182.0004
  22027665.5184   -4119459.16449  -3196547.71147  22027665.1054   22027671.6354
       233.0004        188.0004
  22184653.7104   -2372393.11049  -1842476.58147  22184653.4044   22184657.5684
       233.0004        195.0004
  24071893.9614   -3361536.31049  -2608912.72145  24071893.6354   24071900.9674
       209.0004        149.0004
  20485379.9184    -125550.70649   -129614.97148  20485380.3164   20485384.6134
       245.0004        214.0004
 05 10 27 17 57 30.0000000  0  8G28G 3G27G23G 8G19G10G13
  22425333.6464   -5030513.66149  -3910262.03146  22425333.8644   22425339.0304
       231.0004        183.0004
  23346261.1594    1055803.46149    804312.58845  23346260.9204   23346268.6624
       215.0004        160.0004
  21293070.8794   -2557205.92049  -1987753.41747  21293070.8744   21293076.1534
       240.0004        208.0004
  22480104.6354    2781261.95749   2154446.33946  22480104.9574   22480108.0264
       227.0004        182.0004
  22017055.6444   -4175214.47549  -3239993.39747  22017055.5104   22017061.4464
       234.0004        189.0004
  22183174.0364   -2380169.05749  -1848535.75947  22183173.4794   22183177.4934
       233.0004        195.0004
  24066090.8794   -3392031.13149  -2632674.94345  24066090.1034   24066097.8714
       209.0004        149.0004
  20492767.3584     -86729.53949    -99364.73048  20492767.8624   20492772.1484
       245.0004        214.0004
 05 10 27 17 58  0.0000000  0  8G28G 3G27G23G 8G19G10G13
  22412162.9314   -5099726.06449  -3964193.73546  22412162.5434   22412168.3644
       231.0004        183.0004
  23358160.4594    1118334.37149    853037.92645  23358160.6124   23358167.5454
       216.0004        160.0004
  21288894.9474   -2579150.62549  -2004853.18547  21288894.7954   21288900.2984
       240.0004        208.0004
  22497937.5384    2874974.02849   2227468.66846  22497937.0924   22497941.6704
       227.0004        182.0004
  22006462.4274   -4230882.67149  -3283371.20547  22006461.9834   22006468.3424
       233.0004        189.0004
  22181798.9224   -2387395.44649  -1854166.70947  22181798.2714   22181802.6814
       233.0004        195.0004
  24060387.2154   -3422004.10649  -2656030.52745  24060386.2814   24060393.7874
       208.0004        149.0004
  20500251.8964     -47398.13349    -68716.90048  20500252.4814   20500256.4994
       245.0004        214.0004
 05 10 27 17 58 30.0000000  0  8G28G 3G27G23G 8G19G10G13
  22399049.6384   -5168636.93349  -4017890.48146  22399049.7114   22399055.2094
       231.0004        183.0004
  23370149.5214    1181336.85949    902130.72945  23370149.7324   23370156.6854
       216.0004        160.0004
  21284736.9584   -2601000.99349  -2021879.44647  21284736.9734   21284742.3774
       240.0004        208.0004
  22515827.3494    2968985.33349   2300724.15846  22515827.6574   22515830.6874
       227.0004        182.0004
  21995885.6194   -4286463.89749  -3326681.23547  21995885.3954   21995891.2904
       233.0004        189.0004
  22180528.3064   -2394072.54349  -1859369.63847  22180527.6304   22180531.8044
       233.0004        195.0004
  24054782.7674   -3451455.46649  -2678979.65045  24054782.2614   24054789.5514
       208.0004        149.0004
  20507833.2784      -7557.96049    -37672.63548  20507833.7224   20507837.9564
       245.0004        214.0004
 05 10 27 17 59  0.0000000  0  8G28G 3G27G23G 8G19G10G13
  22385993.8724   -5237245.19549  -4071351.42146  22385993.2394   22385999.5574
       231.0004        183.0004
  23382227.9774    1244809.41149    951589.82145  23382227.5014   23382235.1084
       216.0004        160.0004
  21280597.0254   -2622756.68849  -2038831.93047  21280596.7794   21280602.4634
       240.0004        208.0004
  22533773.8144    3063294.08549   2374211.43346  22533773.2634   22533777.5014
       227.0004        182.0004
  21985325.5834   -4341957.29849  -3369922.83247  21985325.2364   21985331.1474
       234.0004        189.0004
  22179362.4544   -2400199.22449  -1864143.67047  22179362.0974   22179365.9694
       233.0004        195.0004
  24049277.7534   -3480384.39149  -2701521.67545  24049277.5324   24049284.7874
       209.0004        150.0004
  20515511.4564      32790.91249     -6231.96948  20515511.9474   20515516.0654
       245.0004        214.0004
 05 10 27 17 59 30.0000000  0  8G28G 3G27G23G 8G19G10G13
  22372995.9154   -5305549.72349  -4124575.68646  22372995.5874   22373001.4774
       231.0004        184.0004
  23394395.5004    1308750.14749   1001413.71645  23394396.0174   23394402.8774
       216.0004        160.0004
  21276475.3984   -2644416.01749  -2055709.32947  21276475.4434   21276480.6784
       240.0004        208.0004
  22551776.5374    3157898.57449   2447929.15446  22551776.6404   22551780.2574
       228.0004        183.0004
  21974782.3574   -4397362.59249  -3413095.77747  21974782.1954   21974788.3874
       234.0004        190.0004
  22178301.5624   -2405774.28249  -1868487.86747  22178301.1324   22178305.3544
       233.0004        195.0004
  24043872.3284   -3508790.17849  -2723656.08845  24043872.3044   24043879.5634
       210.0004        150.0004
  20523286.4194      73648.55249     25605.13448  20523286.9144   20523291.2844
       245.0004        214.0004
 05 10 27 18  0  0.0000000  0  8G28G 3G27G23G 8G19G10G13
  22360055.8454   -5373550.13949  -4177562.98146  22360055.7954   22360061.4344
       230.0004        184.0004
  23406651.7424    1373156.93049   1051600.77945  23406651.8624   23406658.8364
       215.0004        160.0004
  21272372.0714   -2665979.09949  -2072511.73147  21272372.1234   21272377.5014
       240.0004        208.0004
  22569835.1664    3252797.11149   2521875.99546  22569835.4784   22569838.6694
       227.0004        183.0004
  21964255.7724   -4452680.11149  -3456200.32647  21964255.3124   21964261.6534
       233.0004        190.0004
  22177345.6474   -2410797.57749  -1872402.11747  22177345.2134   22177349.8074
       232.0004        195.0004
  24038566.5234   -3536672.72949  -2745382.75745  24038566.0974   24038573.1254
       211.0004        150.0004
  20531158.0214     115014.13249     57838.03248  20531158.5954   20531162.7434
       245.0004        214.0004
 05 10 27 18  0 30.0000000  0  8G28G 3G27G23G 8G19G10G13
  22347173.7344   -5441245.90249  -4230312.88446  22347173.1744   22347179.1954
       230.0004        184.0004
  23418996.2734    1438028.07449   1102149.67145  23418996.5664   23419003.3414
       215.0004        159.0004
  21268287.2204   -2687445.16549  -2089238.53247  21268287.1814   21268292.6584
       240.0004        208.0004
  22587949.4404    3347987.86949   2596050.54746  22587949.6584   22587953.4264
       228.0004        182.0004
  21953746.0694   -4507908.87549  -3499235.70847  21953745.8184   21953751.8584
       234.0004        190.0004
  22176494.9784   -2415267.93649  -1875885.50747  22176494.4024   22176498.6004
       233.0004        195.0004
  24033360.4524   -3564030.99449  -2766700.88845  24033359.4514   24033366.5274
       208.0004        150.0004
  20539126.3254     156887.69349     90466.76148  20539126.6884   20539131.1274
       244.0004        213.0004
 05 10 27 18  1  0.0000000  0  8G28G 3G27G23G 8G19G10G13
  22334349.7384   -5508636.31149  -4282824.85446  22334349.5224   22334355.4374
       232.0004        185.0004
  23431428.8604    1503361.80049   1153059.01445  23431428.6594   23431436.1334
       216.0004        158.0004
  21264220.9884   -2708813.37149  -2105889.08147  21264220.9764   21264226.3204
       240.0004        208.0004
  22606118.9874    3443469.16249   2670451.48746  22606118.7904   22606122.6884
       226.0004        182.0004
  21943253.4234   -4563047.99249  -3542201.24747  21943252.9624   21943259.1114
       233.0004        190.0004
  22175749.7314   -2419184.47849  -1878937.35947  22175749.0284   22175753.2434
       232.0004        195.0004
  24028254.2094   -3590864.56849  -2787610.18445  24028254.2864   24028260.6504
       210.0004        150.0004
  20547191.1944     199268.72549    123490.92048  20547191.6454   20547195.9624
       245.0004        213.0004
 05 10 27 18  1 30.0000000  0  8G28G 3G27G23G 8G19G10G13
  22321583.7884   -5575721.45549  -4335098.95646  22321583.7894   22321589.0284
       232.0004        185.0004
  23443949.0304    1569155.52349   1204326.80445  23443949.7314   23443955.9374
       216.0004        158.0004
  21260173.4724   -2730083.30149  -2122463.05647  21260173.6284   21260179.1244
       240.0004        208.0004
  22624343.3524    3539238.56149   2745076.92646  22624343.6234   22624347.3834
       228.0004        182.0004
  21932777.6824   -4618098.20449  -3585097.50747  21932777.1344   21932783.3804
       234.0004        190.0004
  22175109.7354   -2422547.32349  -1881557.75947  22175109.1814   22175113.6444
       232.0004        194.0004
  24023247.7444   -3617173.56349  -2808110.70745  24023247.8724   24023254.1274
       208.0004        150.0004
  20555352.3904     242155.98949    156909.54548  20555352.8954   20555357.1854
       245.0004        213.0004
 05 10 27 18  2  0.0000000  0  8G28G 3G27G23G 8G19G10G13
  22308876.1734   -5642500.55149  -4387134.58046  22308876.1264   22308881.6864
       231.0004        185.0004
  23456556.3574    1635407.33249   1255951.53245  23456556.8744   23456564.4964
       216.0004        158.0004
  21256144.8444   -2751254.10149  -2138959.78347  21256144.7474   21256150.2264
       240.0004        208.0004
  22642622.1914    3635294.23249   2819925.42946  22642622.1794   22642625.7974
       226.0004        182.0004
  21922319.0684   -4673058.85149  -3627923.98147  21922319.4444   21922325.1024
       233.0004        190.0004
  22174575.3284   -2425355.57349  -1883745.99647  22174574.7714   22174578.9354
       232.0004        194.0004
  24018341.2514   -3642957.45049  -2828202.07345  24018340.7494   24018347.8044
       209.0004        151.0004
  20563609.9004     285549.36949    190722.54948  20563610.4694   20563614.7254
       244.0004        213.0004
 05 10 27 18  2 30.0000000  0  8G28G 3G27G23G 8G19G10G13
  22296226.9414   -5708972.23949  -4438930.65046  22296226.8934   22296232.2274
       232.0004        185.0004
  23469250.6574    1702115.94849   1307932.22345  23469251.4054   23469257.6004
       214.0004        158.0004
  21252135.2114   -2772324.65249  -2155378.38947  21252135.3834   21252140.6584
       240.0004        208.0004
  22660955.2124    3731634.53649   2894995.73246  22660955.2374   22660959.5004
       227.0004        181.0004
  21911877.6294   -4727928.98549  -3670679.90947  21911877.4034   21911883.2044
       233.0004        191.0004
  22174146.7604   -2427608.06449  -1885501.17847  22174146.0984   22174150.2864
       232.0004        195.0004
  24013534.9234   -3668215.21249  -2847883.44545  24013534.2964   24013541.5234
       211.0004        151.0004
  20571963.7024     329448.91049    224929.96848  20571964.1564   20571968.4514
       245.0004        213.0004
 05 10 27 18  3  0.0000000  0  8G28G 3G27G23G 8G19G10G13
  22283636.2064   -5775137.08949  -4490487.64046  22283636.0304   22283641.6634
       232.0004        186.0004
  23482031.2154    1769278.22649   1360266.40645  23482032.0084   23482037.6494
       214.0004        157.0004
  21248144.7014   -2793295.12849  -2171719.02447  21248144.6964   21248150.2584
       240.0004        208.0004
  22679341.9544    3828257.32549   2970286.14146  22679341.7184   22679345.8164
       227.0004        181.0004
  21901453.2614   -4782709.23749  -3713365.81647  21901453.0504   21901458.9694
       233.0004        191.0004
  22173823.7984   -2429305.17949  -1886823.60847  22173823.0724   22173827.5964
       232.0004        195.0004
  24008828.4744   -3692947.39549  -2867155.30445  24008828.0944   24008835.5954
       211.0004        151.0004
  20580413.5324     373852.92449    259530.47248  20580414.1664   20580418.4214
       245.0004        213.0004
 05 10 27 18  3 30.0000000  0  8G28G 3G27G23G 8G19G10G13
  22271104.0164   -5840994.20449  -4541804.82546  22271104.0754   22271109.0594
       233.0004        187.0004
  23494897.8954    1836892.41849   1412952.72245  23494898.1704   23494905.0754
       213.0004        156.0004
  21244173.4394   -2814164.40649  -2187980.79847  21244173.4054   21244178.8964
       240.0004        208.0004
  22697782.1564    3925160.71949   3045795.20846  22697782.2524   22697785.3174
       225.0004        180.0004
  21891046.1534   -4837398.88049  -3755981.11047  21891045.8744   21891052.0554
       233.0004        191.0004
  22173606.6314   -2430446.16549  -1887712.68347  22173605.7224   22173610.3334
       232.0004        195.0004
  24004222.4334   -3717153.30249  -2886017.06945  24004222.3534   24004229.7734
       210.0004        151.0004
  20588959.3424     418761.48349    294524.13748  20588959.6904   20588964.0504
       244.0004        213.0004
 05 10 27 18  4  0.0000000  0  8G28G 3G27G23G 8G19G10G13
  22258630.6194   -5906542.26349  -4592881.19646  22258630.3114   22258635.7734
       233.0004        187.0004
  23507850.3174    1904957.59049   1465990.45445  23507850.1644   23507857.4894
       215.0004        156.0004
  21240221.6284   -2834931.30249  -2204162.80147  21240221.4814   21240227.0434
       240.0004        208.0004
  22716275.5014    4022343.73349   3121522.16746  22716275.2504   22716280.3024
       225.0004        180.0004
  21880656.5754   -4891996.48649  -3798524.69147  21880656.2674   21880662.6394
       233.0004        191.0004
  22173495.6804   -2431029.37949  -1888167.13247  22173495.0094   22173499.1154
       232.0004        195.0004
  23999716.5264   -3740831.71549  -2904467.78945  23999716.2024   23999724.2634
       212.0004        151.0004
  20597601.1764     464174.53349    329910.90748  20597601.5374   20597606.0724
       245.0004        213.0004
 05 10 27 18  4 30.0000000  0  8G28G 3G27G23G 8G19G10G13
  22246215.9204   -5971781.98249  -4643717.30146  22246215.7554   22246221.4154
       233.0004        187.0004
  23520887.8154    1973470.03749   1519376.72745  23520887.9284   23520894.9834
       213.0004        155.0004
  21236289.2464   -2855596.03049  -2220265.18947  21236289.1934   21236294.6904
       240.0004        208.0004
  22734821.5274    4119803.33549   3197464.63746  22734821.3414   22734825.9124
       225.0004        180.0004
  21870284.3194   -4946503.05649  -3840997.33847  21870284.1974   21870290.1324
       234.0004        192.0004
  22173490.7044   -2431055.61749  -1888187.57347  22173490.1524   22173494.5304
       232.0004        195.0004
  23995310.9304   -3763983.74049  -2922508.34445  23995310.4524   23995318.1394
       211.0004        151.0004
  20606338.6974     510090.45349    365689.52248  20606339.3484   20606343.6884
       244.0004        213.0004
 05 10 27 18  5  0.0000000  0  8G28G 3G27G23G 8G19G10G13
  22233860.1084   -6036712.21849  -4694312.24746  22233860.0494   22233865.3404
       233.0004        187.0004
  23534010.1854    2042428.19149   1573110.28845  23534009.5144   23534017.2504
       215.0004        155.0004
  21232376.5754   -2876157.15449  -2236286.85047  21232376.4824   21232382.1034
       239.0004        208.0004
  22753419.8124    4217537.72949   3273621.22646  22753420.0754   22753423.5294
       225.0004        179.0004
  21859929.6224   -5000917.49249  -3883398.18447  21859929.6364   21859935.2854
       234.0004        192.0004
  22173591.7974   -2430523.99249  -1887773.31447  22173591.4824   22173595.7794
       232.0004        195.0004
  23991005.5954   -3786608.33849  -2940137.92745  23991005.7024   23991012.7594
       211.0004        151.0004
  20615171.8464     556508.83749    401859.67148  20615172.3134   20615176.8214
       245.0004        213.0004
 05 10 27 18  5 30.0000000  0  8G28G 3G27G23G 8G19G10G13
  22221563.2934   -6101332.33849  -4744665.54147  22221562.8324   22221568.3414
       235.0004        188.0004
  23547217.0544    2111830.36249   1627189.84345  23547217.7704   23547223.8994
       213.0004        154.0004
  21228483.7774   -2896613.85849  -2252227.14847  21228483.7074   21228489.3564
       241.0004        208.0004
  22772070.1434    4315545.61949   3349990.93646  22772070.9134   22772074.1764
       225.0004        177.0004
  21849592.6224   -5055238.97849  -3925726.61447  21849592.4924   21849598.3694
       234.0004        192.0004
  22173799.3494   -2429433.57849  -1886923.63447  22173798.7294   22173802.8154
       233.0004        195.0004
  23986800.6414   -3808704.93549  -2957356.08245  23986800.6634   23986808.4694
       211.0004        151.0004
  20624100.6294     603429.75849    438421.40847  20624101.0924   20624105.4504
       245.0004        212.0004
 05 10 27 18  6  0.0000000  0  8G28G 3G27G23G 8G19G10G13
  22209325.5494   -6165642.03849  -4794776.95047  22209325.2444   22209330.2814
       234.0004        188.0004
  23560507.9474    2181674.17049   1681613.54245  23560508.5894   23560515.3174
       214.0004        154.0004
  21224610.9734   -2916965.74249  -2268085.76447  21224611.1074   21224616.5014
       240.0004        208.0004
  22790771.9494    4413824.34449   3426571.68246  22790771.9074   22790776.3454
       224.0004        177.0004
  21839273.2944   -5109467.43249  -3967982.54447  21839273.2164   21839279.0504
       234.0004        192.0004
  22174113.2494   -2427784.13349  -1885638.34447  22174112.9414   22174116.9354
       232.0004        195.0004
  23982696.2584   -3830273.86049  -2974163.05545  23982696.2054   23982703.2724
       213.0004        151.0004
  20633124.8324     650852.14849    475373.89947  20633125.3554   20633129.7404
       245.0004        212.0004
 05 10 27 18  6 30.0000000  0  8G28G 3G27G23G 8G19G10G13
  22197146.9194   -6229641.16949  -4844646.35747  22197146.8354   22197151.9784
       235.0004        188.0004
  23573882.4614    2251957.15449   1736379.45045  23573882.6914   23573889.2684
       212.0004        153.0004
  21220758.1604   -2937212.58049  -2283862.53047  21220758.1754   21220763.5144
       240.0004        208.0004
  22809524.9914    4512371.75349   3503361.79046  22809524.6454   22809529.2074
       223.0004        175.0004
  21828971.6204   -5163602.92949  -4010166.03547  21828971.5074   21828977.3034
       234.0004        193.0004
  22174533.4644   -2425576.04049  -1883917.74947  22174533.2804   22174536.9694
       232.0004        195.0004
  23978692.2934   -3851315.23749  -2990558.93945  23978692.3574   23978699.7204
       212.0004        151.0004
  20642244.2344     698774.77349    512716.18547  20642244.6814   20642249.0794
       245.0004        212.0004
 05 10 27 18  7  0.0000000  0  8G28G 3G27G23G 8G19G10G13
  22185027.5904   -6293328.55649  -4894272.85147  22185027.3054   22185032.9774
       235.0004        188.0004
  23587340.3114    2322678.18449   1791486.68945  23587339.6554   23587347.0664
       211.0004        153.0004
  21216925.7324   -2957352.19549  -2299555.74347  21216925.7784   21216931.2144
       240.0004        209.0004
  22828329.0034    4611187.11849   3580360.69246  22828329.1574   22828332.8504
       222.0004        175.0004
  21818687.9714   -5217643.98649  -4052275.93847  21818687.5774   21818694.1784
       234.0004        193.0004
  22175060.3824   -2422807.41649  -1881760.36847  22175059.7164   22175063.8594
       233.0004        195.0004
  23974788.7784   -3871827.82449  -3006542.81545  23974788.3694   23974796.5434
       211.0004        151.0004
  20651458.9254     747198.13749    550448.65647  20651459.4924   20651463.8104
       245.0004        212.0004
 05 10 27 18  7 30.0000000  0  8G28G 3G27G23G 8G19G10G13
  22172967.5024   -6356704.40449  -4943656.58647  22172967.3144   22172972.6634
       235.0004        188.0004
  23600880.8734    2393834.26549   1846932.93445  23600881.0704   23600888.5354
       212.0004        153.0004
  21213113.6434   -2977384.99049  -2315165.72347  21213113.5874   21213119.1634
       240.0004        209.0004
  22847183.4904    4710267.45849   3657566.07446  22847183.6144   22847187.6794
       222.0004        174.0004
  21808422.2114   -5271591.02449  -4094312.58447  21808421.8144   21808427.9944
       234.0004        193.0004
  22175693.7464   -2419478.92449  -1879166.73347  22175693.0574   22175697.3414
       232.0004        195.0004
  23970986.0254   -3891812.28349  -3022115.14045  23970985.8024   23970992.7314
       214.0004        151.0004
  20660768.5754     796120.48049    588569.94247  20660769.0374   20660773.5544
       244.0004        212.0004
 05 10 27 18  8  0.0000000  0  8G28G 3G27G23G 8G19G10G13
  22160966.8824   -6419767.85749  -4992796.89647  22160966.6224   22160971.9364
       235.0004        189.0004
  23614503.7624    2465423.24649   1902716.49645  23614503.2804   23614511.1464
       210.0004        152.0004
  21209322.1144   -2997309.61049  -2330691.41147  21209322.0824   21209327.7714
       240.0004        209.0004
  22866087.9794    4809610.95449   3734976.50146  22866088.1674   22866091.4814
       223.0004        173.0004
  21798174.4154   -5325443.50049  -4136275.54147  21798174.0984   21798180.3194
       234.0004        193.0004
  22176433.7524   -2415590.32749  -1876136.65047  22176433.1854   22176437.2424
       232.0004        195.0004
  23967283.6994   -3911268.27649  -3037275.68745  23967283.2754   23967290.5434
       211.0004        151.0004
  20670173.0384     845541.19849    627079.57447  20670173.5574   20670177.9334
       245.0004        212.0004
 05 10 27 18  8 30.0000000  0  8G28G 3G27G23G 8G19G10G13
  22149025.7754   -6482518.67549  -5041693.59347  22149025.3494   22149030.7824
       235.0004        189.0004
  23628208.8874    2537443.63249   1958836.21445  23628208.8314   23628215.7744
       214.0004        151.0004
  21205551.3604   -3017125.24249  -2346132.17647  21205551.4724   21205556.7674
       240.0004        209.0004
  22885042.2774    4909216.28849   3812590.95746  22885042.5454   22885047.0424
       222.0004        172.0004
  21787944.8314   -5379200.15749  -4178163.83647  21787944.7004   21787950.4254
       235.0004        193.0004
  22177280.4534   -2411140.70249  -1872669.40647  22177279.9794   22177284.0484
       233.0004        195.0004
  23963681.9164   -3930195.21249  -3052023.97445  23963681.3294   23963689.6314
       212.0004        151.0004
  20679672.3144     895460.08349    665977.38347  20679672.8704   20679677.3804
       245.0004        212.0004
 05 10 27 18  9  0.0000000  0  8G28G 3G27G23G 8G19G10G13
  22137144.1624   -6544956.83949  -5090346.66647  22137144.0044   22137149.5674
       235.0004        189.0004
  23641995.4774    2609892.14649   2015289.56045  23641996.1974   23642002.0104
       214.0004        152.0004
  21201801.3114   -3036831.90749  -2361488.02447  21201801.1884   21201806.8314
       240.0004        209.0004
  22904045.9194    5009080.58949   3890407.22246  22904045.3994   22904050.3254
       221.0004        171.0004
  21777733.5354   -5432861.12249  -4219977.56947  21777733.4094   21777739.4864
       235.0004        193.0004
  22178233.9174   -2406130.33249  -1868765.21247  22178233.1094   22178237.9294
       232.0004        195.0004
  23960180.9614   -3948593.62149  -3066360.42745  23960180.2324   23960187.6374
       210.0004        151.0004
  20689266.1094     945875.77049    705262.31747  20689266.5594   20689270.8604
       244.0004        211.0004
 05 10 27 18  9 30.0000000  0  8G28G 3G27G23G 8G19G10G13
  22125322.2134   -6607081.66049  -5138755.58347  22125322.1684   22125327.1014
       235.0004        189.0004
  23655863.1164    2682766.92849   2072075.07845  23655862.4374   23655870.2734
       211.0004        151.0004
  21198072.2184   -3056428.28449  -2376757.93647  21198072.1604   21198077.8694
       240.0004        209.0004
  22923098.4334    5109202.08349   3968423.87546  22923098.8894   22923102.6704
       223.0004        171.0004
  21767540.5174   -5486425.93249  -4261716.37847  21767540.2554   21767546.5084
       235.0004        194.0004
  22179294.1754   -2400558.85749  -1864423.80547  22179293.6254   22179297.4814
       232.0004        195.0004
  23956780.5374   -3966463.34449  -3080284.90445  23956779.8964   23956787.5124
       211.0004        151.0004
  20698954.3244     996787.66649    744933.90047  20698954.9224   20698959.2484
       245.0004        211.0004
 05 10 27 18 10  0.0000000  0  8G28G 3G27G23G 8G19G10G13
  22113559.8664   -6668892.95349  -5186920.19047  22113559.3914   22113565.2604
       235.0004        190.0004
  23669811.4424    2756065.56149   2129190.82945  23669812.1704   23669819.0124
       215.0004        151.0004
  21194364.2794   -3075913.57849  -2391941.28847  21194364.2674   21194369.7964
       240.0004        209.0004
  22942199.6434    5209578.83849   4046639.43546  22942199.7164   22942203.3594
       221.0004        171.0004
  21757365.8034   -5539894.12449  -4303379.89147  21757365.7794   21757371.7134
       234.0004        194.0004
  22180461.1724   -2394426.16949  -1859645.08547  22180460.8664   22180465.0684
       232.0004        195.0004
  23953480.5474   -3983804.50249  -3093797.54045  23953480.6204   23953487.5584
       209.0004        151.0004
  20708736.8024    1048194.68449    784991.29147  20708737.2404   20708741.8914
       245.0004        211.0004
 05 10 27 18 10 30.0000000  0  8G28G 3G27G23G 8G19G10G13
  22101857.3924   -6730389.67949  -5234839.67847  22101856.9334   22101862.6224
       236.0004        190.0004
  23683840.2104    2829786.67349   2186635.81745  23683840.9584   23683847.8654
       215.0004        151.0004
  21190677.7674   -3095286.32649  -2407036.93947  21190677.8694   21190683.3494
       240.0004        208.0004
  22961349.0904    5310209.41749   4125052.79946  22961348.7494   22961354.0304
       221.0004        171.0004
  21747209.7244   -5593264.68549  -4344967.32647  21747209.5904   21747215.2214
       234.0004        193.0004
  22181735.1724   -2387731.34849  -1854428.33347  22181734.5054   22181738.7614
       232.0004        195.0004
  23950281.3424   -4000616.40849  -3106897.73945  23950280.7864   23950288.5994
       212.0004        151.0004
  20718613.4434    1100096.62349    825434.33847  20718613.9324   20718618.4404
       245.0004        211.0004
 05 10 27 18 11  0.0000000  0  8G28G 3G27G23G 8G19G10G13
  22090214.7754   -6791572.03149  -5282514.20947  22090214.2834   22090219.8404
       235.0004        190.0004
  23697948.7894    2903927.41049   2244407.77445  23697948.4124   23697956.1184
       211.0004        151.0004
  21187012.8034   -3114546.13549  -2422044.58747  21187012.7564   21187018.3454
       240.0004        208.0004
  22980546.1404    5411090.85349   4203661.61646  22980546.1994   22980550.2094
       222.0004        170.0004
  21737072.1744   -5646537.70849  -4386478.76447  21737071.9584   21737078.0784
       234.0004        193.0004
  22183116.0164   -2380474.67149  -1848773.77847  22183115.7694   22183119.8744
       233.0004        195.0004
  23947182.9754   -4016899.49449  -3119585.89745  23947182.6704   23947189.8704
       211.0004        151.0004
  20728583.9444    1152491.76549    866261.69647  20728584.5204   20728588.5784
       244.0004        211.0004
 05 10 27 18 11 30.0000000  0  8G28G 3G27G23G 8G19G10G13
  22078632.0474   -6852439.61349  -5329943.45647  22078631.9514   22078636.9894
       236.0004        191.0004
  23712136.7994    2978485.46849   2302504.90445  23712138.0684   23712143.8564
       215.0004        150.0004
  21183369.4164   -3133692.39149  -2436963.75247  21183369.4094   21183374.9674
       239.0004        208.0004
  22999790.7034    5512221.26449   4282464.45246  22999790.8064   22999795.4974
       222.0004        170.0004
  21726953.2984   -5699712.90449  -4427913.97247  21726952.8844   21726959.0454
       235.0004        194.0004
  22184603.9124   -2372656.02049  -1842681.32447  22184603.3994   22184607.6264
       232.0004        195.0004
  23944185.0484   -4032653.49049  -3131861.77545  23944184.8364   23944192.2994
       212.0004        152.0004
  20738648.1704    1205379.63749    907473.00047  20738648.6424   20738652.9974
       243.0004        211.0004
 05 10 27 18 12  0.0000000  0  8G28G 3G27G23G 8G19G10G13
  22067109.2634   -6912992.04649  -5377127.13747  22067109.0084   22067114.7354
       236.0004        191.0004
  23726403.7694    3053458.52349   2360925.42345  23726404.9224   23726409.8184
       214.0004        150.0004
  21179747.7674   -3152724.34549  -2451793.84947  21179747.7664   21179753.1964
       239.0004        208.0004
  23019082.3544    5613598.76749   4361459.82846  23019082.6614   23019086.6264
       221.0004        171.0004
  21716853.2264   -5752789.33749  -4469272.22547  21716853.5654   21716859.1064
       235.0004        194.0004
  22186198.7254   -2364275.29249  -1836150.88847  22186198.0854   22186202.2354
       231.0004        195.0004
  23941287.8034   -4047878.91749  -3143725.77445  23941287.1324   23941294.9644
       211.0004        152.0004
  20748806.0244    1258759.41949    949067.60847  20748806.5704   20748811.0514
       243.0004        211.0004
 05 10 27 18 12 30.0000000  0  8G28G 3G27G23G 8G19G10G13
  22055646.5864   -6973228.80949  -5424064.84547  22055646.5044   22055651.4324
       236.0004        191.0004
  23740749.4754    3128845.07449   2419668.14245  23740748.7024   23740756.7084
       211.0004        151.0004
  21176148.0644   -3171640.95549  -2466534.06647  21176148.0084   21176153.6084
       240.0004        209.0004
  23038420.6804    5715221.98049   4440646.66646  23038420.4434   23038425.0724
       222.0004        171.0004
  21706772.1474   -5805765.91849  -4510552.66647  21706771.9944   21706777.8394
       234.0004        194.0004
  22187900.5084   -2355332.12649  -1829182.19147  22187900.4264   22187904.1094
       232.0004        195.0004
  23938491.2434   -4062575.23949  -3155177.48945  23938490.8484   23938497.8704
       211.0004        151.0004
  20759057.4554    1312630.66949    991045.18147  20759058.0034   20759062.3564
       244.0004        211.0004
 05 10 27 18 13  0.0000000  0  8G28G 3G27G23G 8G19G10G13
  22044244.0144   -7033149.58849  -5470756.33147  22044243.8084   22044249.1784
       236.0004        191.0004
  23755173.1514    3204642.23649   2478730.81845  23755172.9164   23755180.5984
       213.0004        151.0004
  21172570.5204   -3190441.28349  -2481183.67147  21172570.5544   21172576.0324
       240.0004        209.0004
  23057805.2684    5817088.31949   4520022.93846  23057805.7134   23057809.5764
       223.0004        171.0004
  21696709.9694   -5858642.85449  -4551755.46047  21696709.4314   21696715.4174
       235.0004        194.0004
  22189709.3854   -2345826.44849  -1821775.17247  22189709.0444   22189713.0964
       232.0004        195.0004
  23935795.3134   -4076742.87749  -3166217.24645  23935794.7544   23935802.4464
       211.0004        151.0004
  20769402.0234    1366991.77149   1033404.45647  20769402.5524   20769407.0254
       243.0004        211.0004
 05 10 27 18 13 30.0000000  0  8G28G 3G27G23G 8G19G10G13
  22032901.5564   -7092754.51749  -5517201.70647  22032901.7304   22032906.5754
       236.0004        192.0004
  23769674.4634    3280847.44549   2538111.44345  23769675.0464   23769682.1744
       214.0004        150.0004
  21169015.1934   -3209124.65749  -2495742.14547  21169015.3164   21169020.5324
       240.0004        209.0004
  23077235.6834    5919195.39549   4599586.81146  23077235.5924   23077240.2424
       223.0004        172.0004
  21686666.8684   -5911419.73949  -4592880.30547  21686666.4134   21686672.6954
       235.0004        194.0004
  22191625.1944   -2335758.76949  -1813930.23347  22191624.8084   22191628.7764
       232.0004        195.0004
  23933199.7554   -4090382.51949  -3176845.57545  23933198.8214   23933207.6884
       210.0004        151.0004
  20779839.6374    1421841.49449   1076144.46947  20779840.2164   20779844.6124
       243.0004        211.0004
 05 10 27 18 14  0.0000000  0  8G28G 3G27G23G 8G19G10G13
  22021619.4474   -7152042.38149  -5563400.01047  22021619.2804   22021624.7964
       236.0004        192.0004
  23784253.2904    3357459.38949   2597809.01545  23784254.1634   23784260.1044
       212.0004        150.0004
  21165482.4504   -3227689.36749  -2510208.14847  21165482.3514   21165487.9534
       240.0004        209.0004
  23096711.6654    6021542.12649   4679337.42246  23096712.2694   23096715.8804
       223.0004        172.0004
  21676643.1024   -5964095.01049  -4633925.95747  21676642.8224   21676648.5514
       235.0004        194.0004
  22193648.1994   -2325127.95049  -1805646.47647  22193647.6874   22193652.0904
       232.0004        194.0004
  23930704.8694   -4103493.27149  -3187061.78945  23930704.2784   23930711.4274
       211.0004        151.0004
  20790370.2094    1477179.79149   1119265.20047  20790370.6964   20790375.0634
       243.0004        211.0004
 05 10 27 18 14 30.0000000  0  8G28G 3G27G23G 8G19G10G13
  22010397.4274   -7211014.34449  -5609352.16247  22010396.9394   22010402.9744
       236.0004        192.0004
  23798908.7424    3434474.25649   2657820.55545  23798907.9294   23798915.0454
       211.0004        150.0004
  21161972.1594   -3246136.19049  -2524582.29547  21161972.1124   21161977.7354
       239.0004        209.0004
  23116232.6374    6124124.88149   4759271.96646  23116232.4454   23116236.8774
       222.0004        172.0004
  21666638.4564   -6016669.67049  -4674893.21847  21666638.1794   21666643.9484
       235.0004        195.0004
  22195778.0844   -2313935.52049  -1796925.10947  22195777.3534   22195781.8904
       231.0004        194.0004
  23928310.4884   -4116076.62949  -3196867.02445  23928309.4764   23928317.8484
       211.0004        151.0004
  20800993.2974    1533004.38849   1162764.86047  20800993.8424   20800998.1514
       244.0004        210.0004
 05 10 27 18 15  0.0000000  0  8G28G 3G27G23G 8G19G10G13
  21999235.7994   -7269669.02049  -5655057.07047  21999235.7564   21999241.1874
       238.0004        193.0004
  23813640.6414    3511890.79749   2718145.07545  23813641.5294   23813647.8564
       214.0004        149.0004
  21158484.6454   -3264463.11249  -2538863.01447  21158484.6264   21158490.1654
       241.0004        209.0004
  23135798.2624    6226942.71849   4839389.67746  23135797.9804   23135802.2524
       225.0004        173.0004
  21656653.3504   -6069141.84949  -4715780.61547  21656653.0814   21656659.0704
       236.0004        195.0004
  22198015.0294   -2302180.19949  -1787765.11947  22198014.3744   22198018.8874
       233.0004        194.0004
  23926016.5294   -4128131.54849  -3206260.50345  23926017.0234   23926023.7374
       211.0004        151.0004
  20811708.9654    1589315.63749   1206643.72847  20811709.5334   20811714.0024
       244.0004        210.0004
 05 10 27 18 15 30.0000000  0  8G28G 3G27G23G 8G19G10G13
  21988134.5724   -7328006.54649  -5700514.86447  21988134.2914   21988139.5484
       236.0004        193.0004
  23828448.5264    3589706.24149   2778780.43045  23828448.2194   23828455.3824
       215.0004        149.0004
  21155020.1234   -3282669.28949  -2553049.64947  21155020.1644   21155025.6864
       240.0004        209.0004
  23155408.0954    6329993.00849   4919688.52746  23155407.3454   23155412.7844
       220.0004        172.0004
  21646687.8284   -6121511.17949  -4756587.88147  21646687.6504   21646693.6044
       236.0004        195.0004
  22200359.0214   -2289862.46649  -1778166.89947  22200358.4524   22200362.6834
       232.0004        194.0004
  23923823.0384   -4139658.70949  -3215242.74245  23923823.1124   23923829.7724
       212.0004        151.0004
  20822516.9434    1646111.61249   1250900.30547  20822517.4714   20822521.6644
       243.0004        210.0004
 05 10 27 18 16  0.0000000  0  8G28G 3G27G23G 8G19G10G13
  21977093.7754   -7386026.10149  -5745724.88447  21977093.7454   21977098.8914
       238.0004        193.0004
  23843331.8544    3667918.65249   2839725.11845  23843333.2744   23843337.1474
       214.0004        148.0004
  21151578.8344   -3300753.46749  -2567141.21947  21151578.7874   21151584.2804
       240.0004        209.0004
  23175061.9454    6433274.68149   5000167.64546  23175062.4284   23175065.8274
       223.0004        171.0004
  21636741.9894   -6173776.89249  -4797314.40047  21636741.9454   21636747.8604
       236.0004        196.0004
  22202810.0474   -2276982.17149  -1768130.30447  22202809.6454   22202814.0904
       231.0004        194.0004
  23921729.9254   -4150657.79149  -3223813.47445  23921730.0814   23921736.9994
       212.0004        151.0004
  20833417.0714    1703391.98949   1295534.34247  20833417.5354   20833422.1274
       243.0004        210.0004
 05 10 27 18 16 30.0000000  0  8G28G 3G27G23G 8G19G10G13
  21966113.4664   -7443728.10349  -5790687.45647  21966113.4564   21966118.7334
       237.0004        194.0004
  23858290.2824    3746525.34449   2900977.05045  23858290.0694   23858297.0904
       211.0004        148.0004
  21148160.7844   -3318715.62349  -2581137.71047  21148160.9434   21148166.2054
       240.0004        209.0004
  23194759.4274    6536784.82049   5080824.81946  23194759.9924   23194764.4864
       221.0004        172.0004
  21626815.8324   -6225939.07449  -4837960.24547  21626815.6374   21626821.5394
       235.0004        196.0004
  22205368.0624   -2263539.75449  -1757655.70547  22205367.2944   22205371.7974
       232.0004        194.0004
  23919737.2554   -4161129.48749  -3231973.27845  23919736.6414   23919744.3714
       211.0004        151.0004
  20844408.9384    1761154.75849   1340544.26347  20844409.4264   20844413.9694
       243.0004        210.0004
 05 10 27 18 17  0.0000000  0  8G28G 3G27G23G 8G19G10G13
  21955193.5864   -7501112.43849  -5835402.49947  21955193.4864   21955198.4614
       237.0004        194.0004
  23873323.2004    3825523.56349   2962534.05745  23873323.4924   23873331.8104
       213.0004        148.0004
  21144766.1534   -3336554.60649  -2595038.21947  21144766.0334   21144771.6214
       240.0004        209.0004
  23214499.8914    6640521.26449   5161658.30546  23214499.9164   23214503.7754
       220.0004        171.0004
  21616909.4944   -6277997.31849  -4878525.09547  21616909.1754   21616915.4734
       236.0004        196.0004
  22208032.9824   -2249535.31249  -1746743.15847  22208032.5694   22208036.8444
       232.0004        194.0004
  23917844.8164   -4171074.44249  -3239722.62245  23917844.3214   23917851.9904
       211.0004        151.0004
  20855492.5344    1819399.24449   1385929.55747  20855492.9934   20855497.5744
       243.0004        210.0004
 05 10 27 18 17 30.0000000  0  8G28G 3G27G23G 8G19G10G13
  21944334.2814   -7558178.59549  -5879869.60647  21944333.7744   21944339.2364
       237.0004        194.0004
  23888430.2944    3904911.36649   3024394.63145  23888430.8434   23888438.2264
       215.0004        148.0004
  21141395.1334   -3354269.56749  -2608842.08847  21141395.1074   21141400.5774
       240.0004        209.0004
  23234283.0934    6744482.17749   5242666.70746  23234284.0004   23234287.2904
       220.0004        170.0004
  21607023.2184   -6329950.17349  -4919007.83147  21607022.7694   21607028.8904
       235.0004        196.0004
  22210804.8784   -2234969.06949  -1735392.84547  22210804.2404   22210808.7084
       232.0004        194.0004
  23916052.6554   -4180492.67349  -3247061.53445  23916051.6824   23916060.2964
       211.0004        151.0004
  20866667.5914    1878124.47849   1431689.45447  20866668.0864   20866672.7724
       243.0004        209.0004
 05 10 27 18 18  0.0000000  0  8G28G 3G27G23G 8G19G10G13
  21933535.4584   -7614926.77349  -5924088.93247  21933535.4594   21933540.5324
       237.0004        195.0004
  23903611.0784    3984686.16649   3086556.76745  23903611.4644   23903617.9444
       212.0004        148.0004
  21138047.8414   -3371859.68249  -2622548.67447  21138047.7744   21138053.2384
       240.0004        209.0004
  23254108.5084    6848664.88749   5323847.95846  23254108.0764   23254112.6744
       218.0004        170.0004
  21597156.9644   -6381797.65949  -4959408.46047  21597156.8094   21597162.6784
       236.0004        196.0004
  22213683.6914   -2219841.23049  -1723604.92047  22213683.0274   22213687.1994
       231.0004        195.0004
  23914360.4774   -4189384.84849  -3253990.52945  23914360.4034   23914367.8324
       213.0004        151.0004
  20877933.7814    1937328.82549   1477822.69047  20877934.1674   20877938.9664
       243.0004        209.0004
 05 10 27 18 18 30.0000000  0  8G28G 3G27G23G 8G19G10G13
  21922797.2964   -7671356.10949  -5968059.81447  21922797.4934   21922802.5534
       237.0004        195.0004
  23918864.9884    4064846.12049   3149019.03145  23918863.9454   23918871.6314
       211.0004        148.0004
  21134724.6474   -3389323.17749  -2636156.59347  21134724.6654   21134730.0314
       240.0004        209.0004
  23273975.7504    6953068.23249   5405201.11546  23273976.7014   23273980.7454
       219.0004        170.0004
  21587311.0074   -6433538.58449  -4999726.05147  21587310.7864   21587316.8584
       236.0004        196.0004
  22216669.3734   -2204151.32849  -1711379.02247  22216668.6604   22216672.9374
       231.0004        194.0004
  23912768.5934   -4197750.72349  -3260509.42845  23912768.4754   23912774.6704
       211.0004        151.0004
  20889291.1034    1997011.83149   1524328.90147  20889291.6544   20889296.0924
       243.0004        209.0004
 05 10 27 18 19  0.0000000  0  8G28G 3G27G23G 8G19G10G13
  21912119.7584   -7727466.69649  -6011782.32047  21912119.6054   21912125.0174
       236.0004        195.0004
  23934191.6464    4145388.42149   3211779.20345  23934191.9144   23934200.1794
       213.0004        147.0004
  21131425.6194   -3406659.73449  -2649665.60247  21131425.5684   21131431.0654
       240.0004        209.0004
  23293884.6124    7057689.52249   5486724.08246  23293884.7194   23293889.0294
       218.0004        169.0004
  21577485.4254   -6485172.20349  -5039960.03247  21577484.9384   21577490.9984
       236.0004        196.0004
  22219761.8324   -2187900.12449  -1698715.75147  22219761.4094   22219765.3344
       231.0004        194.0004
  23911276.6034   -4205590.97949  -3266618.74745  23911276.2584   23911284.2754
       212.0004        151.0004
  20900739.2314    2057171.97949   1571206.91547  20900739.9194   20900744.3524
       243.0004        209.0004
 05 10 27 18 19 30.0000000  0  8G28G 3G27G23G 8G19G10G13
  21901502.9874   -7783258.13249  -6055256.13747  21901502.9354   21901508.0914
       237.0004        195.0004
  23949590.7354    4226310.96049   3274835.69445  23949591.2034   23949598.5304
       211.0004        147.0004
  21128151.0564   -3423867.89249  -2663074.55947  21128151.0554   21128156.2674
       240.0004        209.0004
  23313834.6284    7162527.09049   5568415.61546  23313835.3684   23313839.1134
       219.0004        168.0004
  21567680.3814   -6536698.03149  -5080110.01747  21567680.0764   21567686.1524
       236.0004        196.0004
  22222961.2434   -2171087.38249  -1685614.91947  22222960.5554   22222964.9284
       231.0004        194.0004
  23909884.6234   -4212905.77849  -3272318.61845  23909884.3814   23909891.6514
       212.0004        151.0004
  20912277.9494    2117808.30849   1618455.97747  20912278.5114   20912283.2334
       243.0004        209.0004
 05 10 27 18 20  0.0000000  0  8G28G 3G27G23G 8G19G10G13
  21890946.8314   -7838730.88949  -6098481.62447  21890946.4334   21890951.8534
       237.0004        195.0004
  23965061.6064    4307610.54849   3338185.97045  23965062.1134   23965067.9164
       213.0004        147.0004
  21124900.9044   -3440947.56449  -2676383.39947  21124900.8854   21124906.3444
       241.0004        209.0004
  23333825.2444    7267578.12549   5650273.45046  23333825.5294   23333830.3784
       217.0004        167.0004
  21557895.8434   -6588115.92149  -5120175.89447  21557895.5694   21557901.1934
       236.0004        196.0004
  22226267.3244   -2153714.10649  -1672077.30547  22226266.8764   22226271.0534
       231.0004        194.0004
  23908592.5384   -4219696.16549  -3277609.86745  23908592.6364   23908600.0414
       211.0004        151.0004
  20923907.0084    2178919.27549   1666074.89147  20923907.4304   20923912.0284
       242.0004        209.0004
 05 10 27 18 20 30.0000000  0  8G28G 3G27G23G 8G19G10G13
  21880451.5104   -7893884.00049  -6141458.04547  21880451.4194   21880456.4884
       236.0004        195.0004
  23980603.9634    4389285.73249   3401828.90645  23980603.7434   23980611.4144
       209.0004        147.0004
  21121675.5474   -3457897.15449  -2689590.87947  21121675.4484   21121680.7944
       240.0004        209.0004
  23353856.2624    7372840.96749   5732296.34746  23353856.6414   23353860.0264
       215.0004        167.0004
  21548132.0384   -6639424.92049  -5160156.91747  21548131.7494   21548137.9334
       236.0004        197.0004
  22229680.0704   -2135779.97049  -1658102.66147  22229679.2934   22229683.5754
       230.0004        194.0004
  23907400.1834   -4225961.95749  -3282492.33045  23907400.6014   23907407.5674
       212.0004        151.0004
  20935626.2124    2240503.92649   1714062.90347  20935626.8874   20935631.2714
       243.0004        209.0004
 05 10 27 18 21  0.0000000  0  8G28G 3G27G23G 8G19G10G13
  21870016.9504   -7948717.92649  -6184185.74747  21870016.7824   21870021.9164
       236.0004        195.0004
  23996217.1554    4471333.51249   3465762.18345  23996216.6054   23996225.3664
       210.0004        147.0004
  21118475.0854   -3474715.68449  -2702696.23447  21118475.1044   21118480.4174
       240.0004        209.0004
  23373927.0394    7478313.41949   5814482.55546  23373927.1174   23373931.9474
       216.0004        166.0004
  21538389.1164   -6690624.34649  -5200052.57147  21538388.8844   21538394.4964
       236.0004        197.0004
  22233199.4364   -2117285.55849  -1643691.44047  22233198.8274   22233203.2384
       231.0004        194.0004
  23906307.8244   -4231703.80149  -3286966.52245  23906307.0184   23906314.3194
       212.0004        151.0004
  20947435.3184    2302561.11849   1762419.12747  20947435.7424   20947440.5934
       243.0004        209.0004
 05 10 27 18 21 30.0000000  0  8G28G 3G27G23G 8G19G10G13
  21859643.1374   -8003232.57449  -6226664.66247  21859643.0644   21859648.2664
       237.0004        196.0004
  24011900.7344    4553750.88349   3529983.46045  24011901.5664   24011908.7034
       212.0004        147.0004
  21115299.6074   -3491402.75249  -2715699.14847  21115299.6124   21115305.0784
       240.0004        209.0004
  23394037.1824    7583992.84449   5896830.04946  23394037.3154   23394042.2414
       213.0004        164.0004
  21528667.1084   -6741713.87249  -5239862.57647  21528666.7944   21528672.7644
       236.0004        197.0004
  22236825.3474   -2098231.27649  -1628843.95847  22236825.1164   22236829.3394
       231.0004        194.0004
  23905314.6694   -4236922.65649  -3291033.19445  23905314.4954   23905321.2704
       211.0004        151.0004
  20959333.9804    2365088.81449   1811141.97947  20959334.5654   20959339.3034
       242.0004        208.0004
 05 10 27 18 22  0.0000000  0  8G28G 3G27G23G 8G19G10G13
  21849330.2454   -8057427.11949  -6268894.14647  21849330.0844   21849335.2904
       237.0004        196.0004
  24027654.3964    4636536.50249   3594491.66045  24027656.1104   24027659.5784
       212.0004        147.0004
  21112149.5674   -3507956.61449  -2728598.26847  21112149.6034   21112154.9264
       240.0004        209.0004
  23414186.5624    7689877.92349   5979337.81546  23414186.9664   23414191.3794
       217.0004        165.0004
  21518966.2934   -6792692.05249  -5279585.82647  21518965.9004   21518971.8064
       237.0004        197.0004
  22240557.8644   -2078617.01049  -1613560.12247  22240557.3534   22240561.4154
       230.0004        194.0004
  23904421.1614   -4241618.19549  -3294692.07345  23904420.8144   23904428.0924
       212.0004        151.0004
  20971322.0654    2428086.64049   1860231.16847  20971322.5464   20971327.2924
       243.0004        208.0004
 05 10 27 18 22 30.0000000  0  8G28G 3G27G23G 8G19G10G13
  21839078.1164   -8111302.27549  -6310874.75747  21839077.9614   21839083.0594
       237.0004        196.0004
  24043477.4384    4719687.11449   3659284.28745  24043477.3874   24043484.8154
       210.0004        146.0004
  21109024.8984   -3524376.90549  -2741393.30547  21109024.8964   21109030.0404
       240.0004        209.0004
  23434374.3894    7795965.53149   6062003.35646  23434374.3304   23434378.7754
       216.0004        163.0004
  21509286.5774   -6843559.16449  -5319222.53047  21509286.4714   21509292.2704
       236.0004        197.0004
  22244396.7014   -2058443.95549  -1597840.86947  22244395.8954   22244400.0214
       230.0004        194.0004
  23903627.0944   -4245791.78949  -3297944.25545  23903626.1844   23903633.0944
       211.0004        151.0004
  20983399.2854    2491552.60349   1909685.13947  20983399.8054   20983404.3264
       243.0004        208.0004
 05 10 27 18 23  0.0000000  0  8G28G 3G27G23G 8G19G10G13
  21828886.9694   -8164857.19349  -6352605.83547  21828886.9064   21828891.9724
       237.0004        196.0004
  24059369.6904    4803201.36049   3724360.26145  24059369.5654   24059377.8774
       210.0004        146.0004
  21105925.9514   -3540661.90149  -2754082.92647  21105925.8824   21105931.1724
       241.0004        209.0004
  23454600.6264    7902254.69049   6144825.96845  23454600.6084   23454605.6044
       212.0004        162.0004
  21499628.4124   -6894313.19949  -5358771.12447  21499628.2674   21499633.9584
       237.0004        198.0004
  22248341.9244   -2037711.51249  -1581685.73547  22248341.4644   22248345.4094
       231.0004        194.0004
  23902932.2704   -4249442.89149  -3300789.28845  23902932.6144   23902940.0634
       212.0004        151.0004
  20995565.5154    2555486.40749   1959503.65647  20995566.1324   20995570.7224
       243.0004        208.0004
 05 10 27 18 23 30.0000000  0  8G28G 3G27G23G 8G19G10G13
  21818756.6034   -8218092.42649  -6394087.80947  21818756.5594   21818761.4654
       237.0004        196.0004
  24075330.5544    4887075.64949   3789716.77645  24075329.2564   24075337.0904
       210.0004        146.0004
  21102852.8364   -3556811.28249  -2766666.86847  21102852.9494   21102858.3194
       240.0004        209.0004
  23474864.6244    8008742.45549   6227803.32345  23474865.5294   23474869.3484
       218.0004        162.0004
  21489991.6304   -6944954.63749  -5398231.98047  21489991.9484   21489997.4484
       237.0004        198.0004
  22252393.4494   -2016420.78649  -1565095.56847  22252393.0694   22252397.1034
       232.0004        194.0004
  23902336.7714   -4252572.87349  -3303228.25045  23902336.2974   23902343.6774
       211.0004        151.0004
  21007820.3914    2619885.86649   2009685.02347  21007821.0184   21007825.6634
       243.0004        208.0004
 05 10 27 18 24  0.0000000  0  8G28G 3G27G23G 8G19G10G13
  21808687.1094   -8271007.77449  -6435320.51747  21808686.9804   21808692.2024
       237.0004        196.0004
  24091359.2924    4971307.57749   3855351.98145  24091360.1484   24091366.7844
       210.0004        147.0004
  21099805.7284   -3572823.89049  -2779144.22647  21099805.7984   21099811.2754
       241.0004        209.0004
  23495166.1424    8115426.80849   6310933.87845  23495166.2154   23495171.5234
       215.0004        161.0004
  21480376.5254   -6995482.36849  -5437604.22647  21480376.4054   21480382.3154
       237.0004        198.0004
  22256551.1774   -1994572.15549  -1548070.66247  22256550.6214   22256554.8614
       231.0004        194.0004
  23901840.1304   -4255182.46349  -3305261.71445  23901839.1814   23901847.0374
       211.0004        151.0004
  21020163.6004    2684749.69749   2060228.24947  21020164.1634   21020168.5694
       243.0004        208.0004
 05 10 27 18 24 30.0000000  0  8G28G 3G27G23G 8G19G10G13
  21798678.5904   -8323602.88049  -6476303.69347  21798678.4394   21798683.5304
       237.0004        197.0004
  24107455.7924    5055895.28749   3921264.41345  24107456.1254   24107463.6824
       211.0004        147.0004
  21096784.9774   -3588698.35549  -2791513.94647  21096785.0304   21096790.2494
       241.0004        209.0004
  23515504.6554    8222305.73649   6394216.04345  23515504.7054   23515509.7374
       218.0004        162.0004
  21470783.3294   -7045895.22649  -5476886.97047  21470783.1064   21470788.8734
       237.0004        198.0004
  22260815.0104   -1972165.65849  -1530611.06547  22260814.5994   22260818.5404
       230.0004        194.0004
  23901442.3994   -4257271.81849  -3306889.81345  23901441.7164   23901449.9044
       211.0004        151.0004
  21032594.9864    2750076.99449   2111132.60647  21032595.4774   21032600.2544
       243.0004        208.0004
 05 10 27 18 25  0.0000000  0  8G28G 3G27G23G 8G19G10G13
  21788730.7834   -8375878.81049  -6517038.15747  21788730.7264   21788735.5794
       237.0004        197.0004
  24123619.2594    5140834.63249   3987450.85945  24123619.4364   24123627.6784
       208.0004        145.0004
  21093790.4734   -3604434.78149  -2803776.10447  21093790.4334   21093795.9044
       241.0004        209.0004
  23535879.6154    8329375.90949   6477647.23745  23535879.6204   23535884.9484
       216.0004        161.0004
  21461211.8424   -7096193.94949  -5516080.77447  21461211.4824   21461217.5834
       238.0004        199.0004
  22265184.5664   -1949203.41449  -1512718.40747  22265184.1344   22265188.1314
       230.0004        194.0004
  23901143.4524   -4258843.14149  -3308114.23545  23901143.3034   23901150.8514
       211.0004        151.0004
  21045114.0464    2815864.87249   2162395.86347  21045114.7204   21045118.8414
       243.0004        208.0004
 05 10 27 18 25 30.0000000  0  8G28G 3G27G23G 8G19G10G13
  21778844.1424   -8427833.33349  -6557522.18047  21778843.9904   21778849.0344
       237.0004        197.0004
  24139849.7194    5226125.77149   4053911.40645  24139850.2294   24139857.3024
       207.0004        144.0004
  21090822.7714   -3620030.30349  -2815928.46947  21090822.8174   21090828.1524
       241.0004        210.0004
  23556290.8884    8436637.46749   6561227.56545  23556291.2894   23556295.8254
       218.0004        160.0004
  21451662.6064   -7146375.39149  -5555183.19247  21451662.5834   21451668.3864
       238.0004        199.0004
  22269660.2414   -1925683.55149  -1494391.25147  22269659.8554   22269663.9084
       230.0004        193.0004
  23900943.4174   -4259894.33149  -3308933.36345  23900942.9224   23900950.8304
       209.0004        151.0004
  21057720.9984    2882114.61749   2214019.01447  21057721.5634   21057726.1774
       243.0004        207.0004
 05 10 27 18 26  0.0000000  0  8G28G 3G27G23G 8G19G10G13
  21769018.3994   -8479467.95349  -6597756.92347  21769018.4124   21769023.1184
       237.0004        197.0004
  24156146.2774    5311764.35349   4120642.70845  24156146.3484   24156153.5734
       205.0004        144.0004
  21087881.7694   -3635485.54349  -2827971.52047  21087881.6434   21087887.0284
       240.0004        210.0004
  23576737.9694    8544086.64949   6644954.08045  23576737.4644   23576742.5884
       218.0004        161.0004
  21442135.5554   -7196440.52049  -5594194.98347  21442135.2694   21442141.2164
       237.0004        199.0004
  22274241.6484   -1901608.05049  -1475631.12847  22274240.8944   22274245.0894
       230.0004        193.0004
  23900841.8664   -4260427.67749  -3309348.98345  23900841.2024   23900849.6594
       211.0004        151.0004
  21070415.2394    2948822.92649   2265999.48947  21070415.7954   21070420.0174
       243.0004        207.0004
 05 10 27 18 26 30.0000000  0  8G28G 3G27G23G 8G19G10G13
  21759253.4004   -8530783.43549  -6637742.99247  21759253.0334   21759258.4344
       237.0004        197.0004
  24172508.2694    5397747.39049   4187642.40345  24172508.3314   24172515.4644
       205.0004        144.0004
  21084967.5784   -3650799.64649  -2839904.59347  21084967.5114   21084973.0364
       241.0004        210.0004
  23597220.1544    8651720.50449   6728824.50345  23597220.6944   23597224.8824
       218.0004        161.0004
  21432630.5834   -7246389.31649  -5633116.11247  21432630.4094   21432636.2994
       238.0004        199.0004
  22278928.6234   -1876977.88049  -1456438.79547  22278928.1194   22278932.7184
       231.0004        193.0004
  23900838.6454   -4260445.00449  -3309362.52245  23900838.6844   23900846.0224
       210.0004        151.0004
  21083196.2734    3015987.80149   2318335.73147  21083196.9364   21083201.3444
       243.0004        207.0004
 05 10 27 18 27  0.0000000  0  8G28G 3G27G23G 8G19G10G13
  21749549.4214   -8581777.98649  -6677478.98347  21749549.5004   21749554.3444
       238.0004        198.0004
  24188935.8184    5484074.05149   4254909.86045  24188937.0774   24188943.3394
       207.0004        143.0004
  21082080.8394   -3665969.63049  -2851725.36747  21082080.7194   21082086.1054
       241.0004        210.0004
  23617737.3264    8759538.53849   6812838.45445  23617737.9204   23617742.2054
       220.0004        161.0004
  21423148.3624   -7296218.91049  -5671944.36447  21423148.3334   21423153.8604
       238.0004        199.0004
  22283721.2814   -1851792.42149  -1436813.77047  22283720.9014   22283725.0074
       230.0004        193.0004
  23900933.7484   -4259945.36749  -3308973.21845  23900934.1984   23900941.5274
       212.0004        151.0004
  21096064.3234    3083609.46749   2371027.91347  21096064.9284   21096069.3504
       243.0004        207.0004
 05 10 27 18 27 30.0000000  0  8G28G 3G27G23G 8G19G10G13
  21739906.3184   -8632452.91649  -6716965.91547  21739906.2864   21739911.1344
       237.0004        198.0004
  24205428.0224    5570740.56349   4322442.12945  24205428.5704   24205435.3674
       203.0004        143.0004
  21079221.3534   -3680996.29649  -2863434.46347  21079221.1194   21079226.8294
       241.0004        210.0004
  23638288.9164    8867537.06249   6896993.02345  23638288.9034   23638293.7194
       219.0004        162.0004
  21413688.6814   -7345929.82549  -5710680.13147  21413688.7124   21413694.2184
       237.0004        199.0004
  22288619.2404   -1826053.34749  -1416757.35247  22288618.8204   22288623.1554
       230.0004        193.0004
  23901126.8794   -4258930.54849  -3308182.49145  23901127.0544   23901134.2294
       212.0004        151.0004
  21109018.6534    3151684.88849   2424073.67247  21109019.2604   21109023.4684
       243.0004        206.0004
 05 10 27 18 28  0.0000000  0  8G28G 3G27G23G 8G19G10G13
  21730324.1504   -8682807.40749  -6756203.15747  21730324.1704   21730329.1114
       238.0004        198.0004
  24221984.4624    5657744.85949   4390237.60945  24221985.2694   24221991.9834
       205.0004        143.0004
  21076389.4884   -3695877.85249  -2875030.48747  21076389.4594   21076394.8894
       241.0004        210.0004
  23658874.5374    8975714.91749   6981287.35245  23658873.9724   23658880.5804
       220.0004        160.0004
  21404251.8004   -7395521.02749  -5749322.61747  21404251.7254   21404257.5104
       238.0004        200.0004
  22293622.6334   -1799760.65349  -1396269.54747  22293621.9674   22293626.2564
       231.0004        193.0004
  23901418.0234   -4257400.52349  -3306990.28945  23901417.7934   23901425.5084
       213.0004        152.0004
  21122059.2494    3220213.60349   2477472.64347  21122059.7824   21122064.3374
       242.0004        206.0004
 05 10 27 18 28 30.0000000  0  8G28G 3G27G23G 8G19G10G13
  21720802.9314   -8732841.78049  -6795190.96047  21720802.7014   21720808.0074
       237.0004        198.0004
  24238604.7464    5745084.21149   4458294.16545  24238605.4934   24238612.6434
       203.0004        143.0004
  21073585.4764   -3710613.12449  -2886512.52647  21073585.5004   21073590.9684
       241.0004        210.0004
  23679493.8694    9084069.78649   7065719.60545  23679494.4774   23679497.7394
       219.0004        158.0004
  21394837.8154   -7444991.94649  -5787871.38047  21394837.7024   21394843.4744
       238.0004        200.0004
  22298731.1304   -1772915.49149  -1375351.24147  22298730.4004   22298734.9864
       230.0004        193.0004
  23901807.1314   -4255356.72349  -3305397.73645  23901806.6844   23901814.5734
       213.0004        152.0004
  21135185.7554    3289193.83749   2531223.44747  21135186.1954   21135190.8294
       242.0004        205.0004
 05 10 27 18 29  0.0000000  0  8G28G 3G27G23G 8G19G10G13
  21711342.5874   -8782556.17549  -6833929.42347  21711342.5404   21711347.5404
       239.0004        198.0004
  24255288.2364    5832756.10549   4526609.85945  24255288.5534   24255295.8384
       202.0004        143.0004
  21070809.4104   -3725201.61249  -2897880.18147  21070809.2724   21070814.8544
       241.0004        210.0004
  23700146.3474    9192599.19649   7150287.86645  23700146.3404   23700151.3384
       217.0004        157.0004
  21385446.9354   -7494341.35749  -5826325.45247  21385446.7934   21385452.3604
       238.0004        200.0004
  22303944.6284   -1745518.53749  -1354002.97047  22303943.8214   22303948.0364
       230.0004        193.0004
  23902293.8274   -4252799.84149  -3303405.38945  23902293.2774   23902300.7504
       212.0004        152.0004
  21148397.9044    3358623.99749   2585324.84747  21148398.3784   21148403.0254
       242.0004        205.0004
 05 10 27 18 29 30.0000000  0  8G28G 3G27G23G 8G19G10G13
  21701943.1764   -8831950.31249  -6872418.33747  21701943.1774   21701947.7574
       238.0004        198.0004
  24272034.6934    5920758.62649   4595183.18245  24272034.7804   24272041.6894
       200.0004        143.0004
  21068061.6204   -3739641.52949  -2909132.07347  21068061.6144   21068067.0394
       241.0004        210.0004
  23720831.6564    9301301.13449   7234990.54445  23720832.4094   23720836.0944
       217.0004        159.0004
  21376079.3454   -7543568.39649  -5864684.17847  21376079.2984   21376084.8484
       238.0004        200.0004
  22309263.0664   -1717569.80949  -1332224.74947  22309262.4694   22309266.7364
       230.0004        193.0004
  23902878.0404   -4249730.16349  -3301013.45745  23902876.8534   23902885.2044
       211.0004        152.0004
  21161695.4334    3428502.94549   2639775.94347  21161695.8834   21161700.4904
       242.0004        205.0004
 05 10 27 18 30  0.0000000  0  8G28G 3G27G23G 8G19G10G13
  21692604.6384   -8881024.46849  -6910657.91047  21692604.5824   21692609.4444
       238.0004        199.0004
  24288843.2764    6009088.82849   4664011.81845  24288843.2744   24288852.2814
       202.0004        142.0004
  21065342.2664   -3753931.90049  -2920267.43447  21065342.3474   21065347.5944
       241.0004        210.0004
  23741549.4874    9410173.28649   7319825.88145  23741550.5874   23741554.7404
       220.0004        160.0004
  21366735.0944   -7592672.76949  -5902947.31247  21366735.0374   21366740.7754
       239.0004        200.0004
  22314686.3414   -1689070.38849  -1310017.40647  22314685.9244   22314690.1004
       230.0004        192.0004
  23903559.2854   -4246149.17949  -3298223.09945  23903558.8514   23903566.5244
       212.0004        151.0004
  21175077.9774    3498828.69949   2694575.20147  21175078.5584   21175083.2864
       242.0004        205.0004
 05 10 27 18 30 30.0000000  0  8G28G 3G27G23G 8G19G10G13
  21683326.9814   -8929779.09549  -6948648.50347  21683326.9354   21683332.1104
       238.0004        199.0004
  24305713.7204    6097743.52749   4733093.33545  24305714.0644   24305720.6704
       203.0004        142.0004
  21062651.4814   -3768072.01149  -2931285.71047  21062651.5004   21062657.0984
       241.0004        210.0004
  23762299.2124    9519212.89349   7404791.69345  23762299.4924   23762302.5484
       216.0004        159.0004
  21357414.3164   -7641653.68549  -5941114.24647  21357414.0404   21357420.1574
       238.0004        201.0004
  22320214.2254   -1660021.52849  -1287381.93947  22320213.6784   22320217.4514
       231.0004        192.0004
  23904337.8354   -4242057.94649  -3295035.15845  23904337.4724   23904343.1974
       211.0004        151.0004
  21188545.2164    3569599.44649   2749721.20747  21188545.5954   21188550.4764
       242.0004        204.0004
 05 10 27 18 31  0.0000000  0  8G28G 3G27G23G 8G19G10G13
  21674110.1754   -8978213.58249  -6986389.63547  21674110.0264   21674114.7424
       238.0004        199.0004
  24322645.5804    6186720.96749   4802426.32545  24322646.0134   24322653.7294
       203.0004        142.0004
  21059989.5494   -3782060.69949  -2942185.99147  21059989.5834   21059994.9254
       241.0004        210.0004
  23783080.4334    9628418.58549   7489886.91345  23783080.4764   23783085.7934
       215.0004        158.0004
  21348117.3404   -7690509.77949  -5979183.92147  21348117.2364   21348122.8044
       240.0004        201.0004
  22325846.5504   -1630423.41349  -1264318.47647  22325846.1484   22325850.3654
       230.0004        192.0004
  23905213.5054   -4237456.85849  -3291449.92645  23905213.5554   23905220.4904
       212.0004        150.0004
  21202097.0154    3640814.45949   2805213.39447  21202097.5934   21202102.2284
       242.0004        204.0004
 05 10 27 18 31 30.0000000  0  8G28G 3G27G23G 8G19G10G13
  21664954.2124   -9026328.50949  -7023881.75847  21664954.0644   21664958.9924
       239.0004        199.0004
  24339638.2144    6276018.09049   4872008.43245  24339638.3994   24339646.8004
       200.0004        142.0004
  21057356.6224   -3795896.98149  -2952967.51547  21057356.6554   21057361.9894
       241.0004        210.0004
  23803892.7404    9737787.84949   7575109.58445  23803892.8484   23803898.4484
       215.0004        158.0004
  21338844.1414   -7739240.71949  -6017156.07147  21338843.9964   21338849.5994
       239.0004        201.0004
  22331583.1524   -1600277.32349  -1240828.02747  22331582.5274   22331586.8304
       231.0004        192.0004
  23906185.7464   -4232347.48349  -3287468.62045  23906185.4824   23906192.6684
       212.0004        150.0004
  21215732.9464    3712471.47849   2861049.99547  21215733.5334   21215738.0664
       241.0004        204.0004
 05 10 27 18 32  0.0000000  0  8G28G 3G27G23G 8G19G10G13
  21655859.1164   -9074123.46549  -7061124.55147  21655858.9314   21655863.6444
       238.0004        199.0004
  24356691.4284    6365632.88049   4941838.04845  24356691.8834   24356700.0284
       202.0004        142.0004
  21054752.9924   -3809579.10949  -2963628.91747  21054752.8984   21054758.2024
       241.0004        210.0004
  23824735.8004    9847318.41649   7660457.93545  23824736.8484   23824741.0734
       214.0004        157.0004
  21329595.0674   -7787844.87449  -6055029.42547  21329594.8894   21329600.6784
       239.0004        201.0004
  22337423.9604   -1569583.60049  -1216910.84447  22337423.4744   22337427.3894
       230.0004        192.0004
  23907254.8744   -4226730.05249  -3283091.43145  23907254.1524   23907261.6574
       212.0004        150.0004
  21229452.7324    3784569.26149   2917230.05947  21229453.2954   21229457.7844
       241.0004        203.0004
 05 10 27 18 32 30.0000000  0  8G28G 3G27G23G 8G19G10G13
  21646824.7114   -9121599.36749  -7098118.73547  21646824.3854   21646829.4554
       238.0004        199.0004
  24373804.4854    6455561.93749   5011912.55745  24373805.8354   24373812.8714
       207.0004        142.0004
  21052178.7584   -3823106.99649  -2974170.13347  21052178.7004   21052183.9884
       240.0004        210.0004
  23845609.0894    9957007.69249   7745929.95745  23845609.8384   23845613.4964
       214.0004        157.0004
  21320370.1434   -7836322.29549  -6092804.02947  21320369.9754   21320375.6094
       239.0004        201.0004
  22343368.7154   -1538343.79949  -1192568.14847  22343368.4184   22343372.1334
       230.0004        192.0004
  23908420.1954   -4220606.48649  -3278319.85245  23908419.2064   23908427.1604
       210.0004        150.0004
  21243255.9244    3857105.46049   2973751.73847  21243256.3104   21243261.3344
       241.0004        203.0004
 05 10 27 18 33  0.0000000  0  8G28G 3G27G23G 8G19G10G13
  21637851.1404   -9168755.73649  -7134863.92747  21637850.8484   21637855.8534
       239.0004        199.0004
  24390976.9984    6545803.16649   5082230.32445  24390977.6184   24390984.6534
       205.0004        142.0004
  21049634.1284   -3836479.14949  -2984589.99447  21049634.2714   21049639.4384
       241.0004        209.0004
  23866512.2634   10066853.75749   7831524.18345  23866512.8974   23866517.6824
       212.0004        156.0004
  21311169.5294   -7884671.90949  -6130479.03547  21311169.4944   21311175.1664
       239.0004        201.0004
  22349417.2814   -1506558.13849  -1167800.10647  22349416.4014   22349420.9784
       230.0004        192.0004
  23909681.4574   -4213977.17149  -3273154.19545  23909681.5424   23909688.5334
       211.0004        150.0004
  21257142.3194    3930078.98149   3030614.19147  21257142.8164   21257147.4154
       241.0004        203.0004
 05 10 27 18 33 30.0000000  0  8G28G 3G27G23G 8G19G10G13
  21628938.3934   -9215592.57249  -7171360.14247  21628938.1384   21628943.4764
       239.0004        200.0004
  24408208.2614    6636353.97749   5152789.33045  24408209.0584   24408215.7374
       204.0004        141.0004
  21047119.4714   -3849693.72349  -2994887.07347  21047119.5524   21047124.4584
       241.0004        210.0004
  23887444.7604   10176854.38049   7917238.79345  23887445.3364   23887450.4704
       214.0004        156.0004
  21301993.3204   -7932893.07549  -6168053.96447  21301993.1774   21301998.6634
       239.0004        202.0004
  22355569.5384   -1474227.79749  -1142607.64647  22355569.1914   22355573.1334
       230.0004        192.0004
  23911039.1584   -4206843.36749  -3267595.39745  23911037.8334   23911046.7844
       211.0004        151.0004
  21271111.6104    4003487.93549   3087815.93447  21271112.0664   21271116.9804
       241.0004        203.0004
 05 10 27 18 34  0.0000000  0  8G28G 3G27G23G 8G19G10G13
  21620086.2804   -9262110.44749  -7207607.80547  21620086.0764   21620091.1384
       238.0004        200.0004
  24425497.8834    6727211.81449   5223587.57645  24425497.8804   24425505.9264
       206.0004        141.0004
  21044634.8884   -3862750.32849  -3005061.05347  21044634.8124   21044640.1634
       241.0004        209.0004
  23908406.2814   10287007.26049   8003072.08245  23908406.1354   23908410.9724
       213.0004        157.0004
  21292841.8664   -7980984.34149  -6205527.67047  21292841.7124   21292847.2374
       239.0004        202.0004
  22361825.3154   -1441353.74149  -1116991.50647  22361824.7214   22361829.2124
       230.0004        192.0004
  23912492.4864   -4199206.18049  -3261644.36845  23912491.6764   23912499.5964
       210.0004        151.0004
  21285163.5304    4077331.13249   3145356.06047  21285164.3274   21285168.5674
       241.0004        202.0004
 05 10 27 18 34 30.0000000  0  8G28G 3G27G23G 8G19G10G13
  21611294.9234   -9308309.23649  -7243606.83847  21611294.8724   21611299.5714
       239.0004        200.0004
  24442845.6124    6818373.98649   5294622.97745  24442844.8314   24442853.4494
       203.0004        141.0004
  21042180.6454   -3875647.58549  -3015110.86547  21042180.6514   21042185.9934
       241.0004        210.0004
  23929396.3344   10397310.44449   8089022.48645  23929396.6734   23929402.1934
       208.0004        154.0004
  21283715.3074   -8028944.76549  -6242899.41447  21283715.1614   21283720.8274
       239.0004        202.0004
  22368184.3854   -1407936.63549  -1090952.21447  22368183.9184   22368187.8914
       230.0004        191.0004
  23914041.3094   -4191066.54949  -3255301.81145  23914040.5244   23914048.4924
       210.0004        150.0004
  21299297.6694    4151606.29249   3203232.77647  21299298.1934   21299302.8934
       240.0004        202.0004
 05 10 27 18 35  0.0000000  0  8G28G 3G27G23G 8G19G10G13
  21602564.2834   -9354189.08749  -7279357.34647  21602564.2564   21602568.8594
       239.0004        200.0004
  24460250.6424    6909837.92349   5365893.50945  24460251.3804   24460259.5114
       206.0004        142.0004
  21039756.9704   -3888384.09649  -3025035.42047  21039757.0394   21039762.1454
       241.0004        209.0004
  23950414.4564   10507761.56549   8175088.09945  23950414.3134   23950420.2194
       207.0004        154.0004
  21274613.8064   -8076773.55549  -6280168.59447  21274613.6414   21274619.4634
       239.0004        202.0004
  22374646.5304   -1373977.77249  -1064490.77347  22374646.3054   22374650.0344
       230.0004        191.0004
  23915685.6734   -4182425.40249  -3248568.48745  23915685.6054   23915693.3654
       211.0004        150.0004
  21313513.8114    4226312.47749   3261445.35347  21313514.4714   21313519.5094
       241.0004        202.0004
 05 10 27 18 35 30.0000000  0  8G28G 3G27G23G 8G19G10G13
  21593894.1954   -9399750.49249  -7314859.71647  21593893.8084   21593898.9014
       238.0004        200.0004
  24477712.6124    7001600.79949   5437396.98345  24477713.3924   24477720.2014
       206.0004        143.0004
  21037363.9814   -3900959.32749  -3034834.30447  21037363.9764   21037369.2394
       240.0004        209.0004
  23971460.3754   10618358.12549   8261267.09845  23971461.3334   23971465.3664
       209.0004        153.0004
  21265537.4134   -8124470.22749  -6317334.82547  21265537.0654   21265542.9374
       239.0004        202.0004
  22381211.6184   -1339478.12749  -1037607.94547  22381211.1604   22381214.9294
       230.0004        191.0004
  23917425.3504   -4173284.16449  -3241445.45445  23917425.5114   23917432.0924
       214.0004        151.0004
  21327811.4754    4301447.04449   3319991.73447  21327812.0234   21327816.5864
       240.0004        202.0004
 05 10 27 18 36  0.0000000  0  8G28G 3G27G23G 8G19G10G13
  21585284.7714   -9444993.44249  -7350113.93447  21585284.5184   21585289.5444
       239.0004        201.0004
  24495230.9944    7093660.27849   5509131.58245  24495231.5544   24495238.9994
       206.0004        142.0004
  21035001.9504   -3913371.85049  -3044506.39847  21035002.0314   21035007.2624
       241.0004        209.0004
  23992533.5574   10729097.93749   8347557.69845  23992533.8344   23992539.9794
       206.0004        152.0004
  21256486.3664   -8172033.62649  -6354397.20447  21256486.1214   21256491.7524
       239.0004        202.0004
  22387879.5344   -1304438.40449  -1010304.27947  22387878.9644   22387883.1764
       230.0004        191.0004
  23919259.7544   -4163644.03449  -3233933.68645  23919258.9824   23919267.2214
       211.0004        151.0004
  21342190.3374    4377008.43749   3378870.70947  21342190.8494   21342195.7294
       241.0004        202.0004
 05 10 27 18 36 30.0000000  0  8G28G 3G27G23G 8G19G10G13
  21576735.8684   -9489918.29949  -7385120.28947  21576735.8474   21576740.6564
       239.0004        201.0004
  24512805.2484    7186013.48649   5581095.07145  24512806.1074   24512814.3624
       207.0004        143.0004
  21032670.9854   -3925621.08949  -3054051.26247  21032670.9654   21032676.1864
       241.0004        209.0004
  24013633.5864   10839978.59149   8433958.04145  24013634.4274   24013639.5644
       213.0004        155.0004
  21247460.7484   -8219463.27749  -6391355.36547  21247460.4794   21247466.0624
       240.0004        202.0004
  22394649.8214   -1268860.29349   -982581.08847  22394649.2074   22394653.2274
       230.0004        191.0004
  23921188.9304   -4153506.35549  -3226034.21745  23921188.6264   23921196.1464
       211.0004        151.0004
  21356650.1144    4452994.91549   3438080.92147  21356650.6184   21356655.2604
       241.0004        201.0004
 05 10 27 18 37  0.0000000  0  8G28G 3G27G23G 8G19G10G13
  21568247.4494   -9534525.07349  -7419878.79447  21568247.2834   21568251.9074
       239.0004        201.0004
  24530435.0554    7278658.06549   5653285.60545  24530434.5644   24530443.2294
       202.0004        142.0004
  21030371.4554   -3937705.29949  -3063467.53547  21030371.2574   21030376.6774
       241.0004        209.0004
  24034760.0824   10950998.08749   8520466.59745  24034760.4724   24034765.6764
       207.0004        156.0004
  21238460.9804   -8266757.61749  -6428208.09247  21238460.7704   21238466.4904
       240.0004        203.0004
  22401522.4124   -1232744.62349   -954439.02647  22401521.9194   22401526.1404
       230.0004        190.0004
  23923212.5524   -4142871.97949  -3217747.70345  23923212.5254   23923219.5264
       213.0004        150.0004
  21371190.4934    4529404.83849   3497621.08747  21371190.8524   21371195.8374
       240.0004        201.0004
 05 10 27 18 37 30.0000000  0  8G28G 3G27G23G 8G19G10G13
  21559819.4204   -9578814.46649  -7454389.99447  21559819.1584   21559824.0934
       239.0004        201.0004
  24548119.6614    7371590.98549   5725700.80145  24548119.9504   24548126.6334
       208.0004        143.0004
  21028103.4444   -3949623.80249  -3072754.68747  21028103.2674   21028108.5844
       241.0004        209.0004
  24055912.3574   11062153.57349   8607081.07645  24055913.0184   24055917.8104
       209.0004        154.0004
  21229486.9054   -8313916.70449  -6464955.42847  21229486.8424   21229492.5264
       239.0004        203.0004
  22408497.1314   -1196092.44849   -925878.90947  22408496.4114   22408500.2464
       229.0004        190.0004
  23925330.3744   -4131742.64849  -3209075.53045  23925329.6894   23925337.9344
       210.0004        151.0004
  21385811.0084    4606236.05549   3557489.53447  21385811.7014   21385816.2244
       240.0004        201.0004
 05 10 27 18 38  0.0000000  0  7G28G27G23G 8G19G10G13
  21551452.2174   -9622784.31649  -7488652.18847  21551452.0704   21551456.8224
       239.0004        201.0004
  21025867.6524   -3961372.92849  -3081909.85147  21025867.4754   21025872.8464
       240.0004        209.0004
  24077090.4894   11173445.08049   8693801.58345  24077091.0474   24077095.7804
       205.0004        150.0004
  21220539.3444   -8360936.60149  -6501594.29847  21220539.2064   21220544.8624
       240.0004        203.0004
  22415574.0714   -1158902.82349   -896899.99547  22415573.2524   22415577.6794
       229.0004        189.0004
  23927542.5464   -4120117.52649  -3200017.01345  23927542.5774   23927550.2374
       211.0004        151.0004
  21400511.7624    4683488.89649   3617686.52647  21400512.1444   21400517.0004
       239.0004        201.0004
 05 10 27 18 38 30.0000000  0  7G28G27G23G 8G19G10G13
  21543145.5724   -9666435.85349  -7522666.35247  21543145.3314   21543150.3904
       239.0004        201.0004
  21023664.0654   -3972952.81849  -3090933.14447  21023664.0004   21023669.2794
       241.0004        209.0004
  24098293.9674   11284869.30049   8780625.45845  24098294.1684   24098299.9744
       209.0004        152.0004
  21211618.1944   -8407817.55849  -6538124.90347  21211618.0124   21211623.8604
       240.0004        204.0004
  22422752.8564   -1121177.96649   -867504.02147  22422752.0224   22422756.4754
       229.0004        189.0004
  23929848.7024   -4107998.72149  -3190573.80245  23929848.8504   23929856.1064
       211.0004        151.0004
  21415292.2244    4761160.72749   3678209.99947  21415292.9014   21415297.4074
       240.0004        200.0004
 05 10 27 18 39  0.0000000  0  7G28G27G23G 8G19G10G13
  21534899.0954   -9709771.49949  -7556434.37547  21534899.1204   21534903.9974
       239.0004        202.0004
  21021492.4974   -3984364.37949  -3099825.27647  21021492.3944   21021497.9864
       241.0004        209.0004
  24119521.9544   11396421.97149   8867549.43445  24119522.2024   24119527.8844
       210.0004        155.0004
  21202723.1364   -8454561.13049  -6574548.45947  21202722.8704   21202728.5954
       240.0004        204.0004
  22430032.9404   -1082920.83949   -837693.29147  22430032.5124   22430036.3224
       229.0004        189.0004
  23932248.1444   -4095389.65849  -3180748.59245  23932248.1194   23932255.6224
       213.0004        151.0004
  21430151.6854    4839247.65149   3739056.91747  21430152.3844   21430157.2214
       239.0004        200.0004
 05 10 27 18 39 30.0000000  0  7G28G27G23G 8G19G10G13
  21526712.9054   -9752790.09649  -7589955.33147  21526712.7174   21526717.4244
       239.0004        202.0004
  21019353.3954   -3995605.33749  -3108584.46447  21019353.3444   21019358.6184
       241.0004        209.0004
  24140774.2064   11508102.32749   8954572.91945  24140774.9994   24140780.0144
       210.0004        155.0004
  21193854.6944   -8501164.90449  -6610863.08147  21193854.5004   21193860.2724
       240.0004        204.0004
  22437414.2904   -1044131.54049   -807467.88247  22437413.8824   22437417.6894
       229.0004        188.0004
  23934740.7924   -4082290.25849  -3170541.30045  23934740.5644   23934748.3074
       211.0004        151.0004
  21445090.0254    4917748.94449   3800226.72647  21445090.4134   21445095.4304
       239.0004        200.0004
 05 10 27 18 40  0.0000000  0  7G28G27G23G 8G19G10G13
  21518586.9234   -9795492.26249  -7623229.73347  21518586.7824   21518591.9514
       239.0004        202.0004
  21017247.0174   -4006674.40049  -3117209.71947  21017247.0334   21017252.2624
       240.0004        209.0004
  24162050.2364   11619907.81949   9041693.90845  24162049.4714   24162056.2914
       204.0004        153.0004
  21185013.0824   -8547628.09149  -6647068.15747  21185012.9914   21185018.4964
       241.0004        204.0004
  22444896.6784   -1004811.49149   -776828.90247  22444896.4914   22444900.1604
       229.0004        188.0004
  23937326.6094   -4068702.00049  -3159953.08045  23937326.5744   23937333.3854
       210.0004        151.0004
  21460106.8354    4996662.72249   3861717.94447  21460107.4074   21460112.3554
       239.0004        200.0004
 05 10 27 18 40 30.0000000  0  7G28G27G23G 8G19G10G13
  21510520.9364   -9837879.26649  -7656258.54547  21510520.4174   21510525.6414
       239.0004        202.0004
  21015173.3294   -4017571.72849  -3125701.14747  21015173.3684   21015178.8524
       241.0004        209.0004
  24183349.2424   11731834.67449   9128909.40445  24183349.8154   24183355.1204
       209.0004        150.0004
  21176198.2194   -8593950.75849  -6683163.73247  21176198.1334   21176203.5174
       240.0004        204.0004
  22452479.5844    -964963.09349   -745778.21847  22452478.9024   22452483.5874
       228.0004        188.0004
  23940004.9414   -4054627.45349  -3148985.91145  23940004.9794   23940012.5124
       212.0004        152.0004
  21475201.5544    5075985.78149   3923528.09147  21475202.0174   21475207.0044
       240.0004        200.0004
 05 10 27 18 41  0.0000000  0  7G28G27G23G 8G19G10G13
  21502515.2284   -9879949.56649  -7689040.57747  21502515.1194   21502519.9964
       239.0004        202.0004
  21013132.9284   -4028294.32149  -3134056.42547  21013133.1014   21013138.2914
       240.0004        209.0004
  24204671.5394   11843882.61849   9216219.35945  24204672.7044   24204677.4124
       210.0004        152.0004
  21167410.5684   -8640130.21649  -6719147.72047  21167410.3774   21167416.0574
       240.0004        204.0004
  22460163.1044    -924585.73949   -714315.36446  22460162.9134   22460166.6394
       228.0004        187.0004
  23942776.0214   -4040066.05249  -3137639.39545  23942775.3024   23942783.2194
       213.0004        152.0004
  21490374.1134    5155717.91449   3985656.99147  21490374.7234   21490379.3644
       240.0004        199.0004
 05 10 27 18 41 30.0000000  0  7G28G27G23G 8G19G10G13
  21494569.5234   -9921704.34349  -7721576.74247  21494569.1794   21494574.1604
       240.0004        202.0004
  21011125.8624   -4038841.66849  -3142275.14147  21011125.9004   21011131.2114
       240.0004        209.0004
  24226016.1644   11956048.59849   9303621.21045  24226016.3384   24226022.1834
       208.0004        151.0004
  21158650.1854   -8686166.12249  -6755019.84247  21158649.9014   21158655.7974
       239.0004        204.0004
  22467946.9084    -883681.44049   -682441.89646  22467946.5744   22467950.6804
       228.0004        187.0004
  23945639.2544   -4025020.03449  -3125915.23945  23945638.4694   23945646.7874
       213.0004        152.0004
  21505624.0194    5235856.52249   4048102.62947  21505624.6264   21505629.6944
       239.0004        199.0004
 05 10 27 18 42  0.0000000  0  7G28G27G23G 8G19G10G13
  21486683.8474   -9963143.84849  -7753867.24047  21486683.4994   21486688.5194
       239.0004        202.0004
  21009152.3384   -4049212.48349  -3150356.30047  21009152.2774   21009157.9174
       240.0004        209.0004
  24247382.8024   12068330.62949   9391113.50745  24247382.8764   24247387.9354
       210.0004        150.0004
  21149917.2294   -8732057.99949  -6790779.73547  21149916.9174   21149922.7154
       240.0004        204.0004
  22475830.7804    -842251.63949   -650158.94146  22475830.6964   22475834.7974
       228.0004        187.0004
  23948594.3854   -4009491.19549  -3113814.86945  23948594.2734   23948600.9984
       212.0004        151.0004
  21520950.9444    5316399.69049   4110863.51447  21520951.4254   21520956.1024
       239.0004        199.0004
 05 10 27 18 42 30.0000000  0  7G28G27G23G 8G19G10G13
  21478858.1354  -10004268.03149  -7785912.03547  21478858.0464   21478862.8554
       240.0004        203.0004
  21007212.8084   -4059404.93149  -3158298.47747  21007212.8594   21007218.1924
       240.0004        209.0004
  24268771.2114   12180726.53049   9478694.56745  24268771.5694   24268777.0674
       212.0004        150.0004
  21141212.0854   -8777803.92249  -6826425.90647  21141211.9344   21141217.5064
       240.0004        204.0004
  22483814.5624    -800296.55249   -617466.68246  22483814.2594   22483818.3634
       227.0004        187.0004
  23951641.1874   -3993480.37749  -3101338.93545  23951640.5244   23951648.2944
       211.0004        151.0004
  21536354.5824    5397346.19049   4173938.67447  21536355.2714   21536359.7644
       239.0004        198.0004
 05 10 27 18 43  0.0000000  0  7G28G27G23G 8G19G10G13
  21471092.4344  -10045077.01749  -7817711.21647  21471092.3124   21471097.1894
       240.0004        203.0004
  21005307.2874   -4069418.45349  -3166101.22947  21005307.1084   21005312.7304
       241.0004        209.0004
  24290180.7574   12293233.91449   9566362.44245  24290180.7984   24290187.5904
       213.0004        152.0004
  21132534.8834   -8823402.86949  -6861957.54647  21132534.5914   21132540.4364
       240.0004        204.0004
  22491897.9464    -757818.01049   -584366.53246  22491897.4734   22491901.6624
       227.0004        186.0004
  23954779.4624   -3976988.91249  -3088488.48145  23954779.2914   23954786.4874
       212.0004        151.0004
  21551834.5714    5478693.96649   4237326.51947  21551834.9954   21551839.7634
       239.0004        198.0004
 05 10 27 18 43 30.0000000  0  7G28G27G23G 8G19G10G13
  21463386.6104  -10085571.55649  -7849265.37847  21463386.4174   21463391.2524
       240.0004        203.0004
  21003436.0674   -4079251.79749  -3173763.58347  21003436.1044   21003441.4464
       240.0004        209.0004
  24311611.0214   12405849.86849   9654114.92745  24311612.0914   24311617.3994
       212.0004        152.0004
  21123885.8284   -8868854.17649  -6897374.14447  21123885.7584   21123891.2764
       240.0004        205.0004
  22500080.5824    -714817.92049   -550859.97546  22500079.8894   22500084.6024
       227.0004        186.0004
  23958008.8764   -3960018.58449  -3075264.86645  23958007.6064   23958016.0464
       212.0004        151.0004
  21567390.4594    5560440.54749   4301025.12247  21567390.8964   21567395.7854
       238.0004        197.0004
 05 10 27 18 44  0.0000000  0  7G28G27G23G 8G19G10G13
  21455740.6464  -10125751.24349  -7880574.20447  21455740.8704   21455745.3484
       240.0004        203.0004
  21001599.4904   -4088902.94949  -3181283.97447  21001599.5154   21001604.8544
       240.0004        209.0004
  24333061.8284   12518573.65349   9741951.44845  24333062.9314   24333068.2414
       211.0004        151.0004
  21115265.1524   -8914155.99949  -6932674.26447  21115265.0164   21115270.6204
       240.0004        205.0004
  22508362.5264    -671296.33149   -516947.06046  22508362.2854   22508366.4574
       227.0004        186.0004
  23961329.2494   -3942569.85049  -3061668.48845  23961328.8874   23961336.0714
       211.0004        151.0004
  21583022.0024    5642584.69549   4365033.50747  21583022.4644   21583027.1464
       238.0004        197.0004
 05 10 27 18 44 30.0000000  0  7G28G27G23G 8G19G10G13
  21448154.3354  -10165617.53349  -7911638.81147  21448154.1724   21448158.7874
       240.0004        204.0004
  20999797.6274   -4098371.90149  -3188662.37947  20999797.4334   20999803.0934
       240.0004        209.0004
  24354532.4554   12631401.53149   9829869.06645  24354532.9584   24354538.1714
       213.0004        151.0004
  21106672.8754   -8959308.55349  -6967858.05847  21106672.5754   21106678.5404
       240.0004        205.0004
  22516743.1744    -627255.95749   -482629.89946  22516742.8334   22516746.4614
       227.0004        185.0004
  23964740.0544   -3924645.58849  -3047701.55745  23964740.1664   23964747.6174
       211.0004        151.0004
  21598728.6514    5725123.70349   4429349.58547  21598729.1914   21598733.6824
       238.0004        197.0004
 05 10 27 18 45  0.0000000  0  7G28G27G23G 8G19G10G13
  21440627.7004  -10205170.25549  -7942459.08747  21440627.4624   21440632.3104
       241.0004        204.0004
  20998030.8284   -4107656.66849  -3195897.27047  20998030.9364   20998036.3894
       241.0004        209.0004
  24376022.5454   12744331.98049   9917866.61145  24376022.5914   24376029.2004
       211.0004        149.0004
  21098109.3874   -9004309.99449  -7002924.10847  21098109.0934   21098114.9374
       240.0004        205.0004
  22525222.3334    -582697.65549   -447909.15146  22525221.8934   22525226.3194
       226.0004        185.0004
  23968241.2874   -3906246.74849  -3033364.83245  23968240.6924   23968249.1924
       210.0004        152.0004
  21614510.1684    5808055.85549   4493972.00447  21614510.5664   21614515.5814
       238.0004        197.0004
 05 10 27 18 45 30.0000000  0  7G28G27G23G 8G19G10G13
  21433160.6834  -10244409.60349  -7973035.17547  21433160.4724   21433165.2554
       240.0004        204.0004
  20996299.1844   -4116756.32349  -3202987.91847  20996299.2744   20996304.6484
       241.0004        209.0004
  24397531.5884   12857362.44349  10005942.10245  24397531.4704   24397537.6864
       211.0004        147.0004
  21089574.8074   -9049159.40749  -7037871.69847  21089574.6014   21089580.2664
       240.0004        205.0004
  22533799.8424    -537622.64349   -412785.78246  22533799.4654   22533803.2744
       227.0004        185.0004
  23971832.4754   -3887374.98349  -3018659.60445  23971832.4164   23971839.8734
       213.0004        151.0004
  21630366.0654    5891379.18149   4558899.22547  21630366.6794   21630371.2664
       238.0004        196.0004
 05 10 27 18 46  0.0000000  0  7G28G27G23G 8G19G10G13
  21425753.1544  -10283336.45649  -8003367.75647  21425752.9904   21425757.6374
       241.0004        204.0004
  20994602.9814   -4125669.81749  -3209933.49647  20994603.0794   20994608.2974
       240.0004        209.0004
  24419059.2554   12970490.21949  10094093.41245  24419058.7574   24419066.0544
       207.0004        145.0004
  21081069.2434   -9093856.13349  -7072700.30447  21081069.0704   21081075.0054
       240.0004        205.0004
  22542475.3004    -492032.70049   -377261.14546  22542474.5904   22542479.1344
       227.0004        185.0004
  23975513.3974   -3868032.11449  -3003587.25545  23975512.0684   23975519.8694
       211.0004        151.0004
  21646296.0284    5975091.23049   4624129.35847  21646296.3014   21646301.5634
       238.0004        196.0004
 05 10 27 18 46 30.0000000  0  7G28G27G23G 8G19G10G13
  21418405.0384  -10321950.90749  -8033456.91447  21418405.0774   21418409.5804
       240.0004        204.0004
  20992942.5954   -4134395.26049  -3216732.54947  20992942.6784   20992947.7774
       241.0004        209.0004
  24440605.0404   13083713.67449  10182319.23145  24440605.2014   24440611.2814
       209.0004        142.0004
  21072593.1284   -9138398.60849  -7107408.72447  21072592.8284   21072598.6644
       241.0004        205.0004
  22551248.5594    -445929.02749   -341336.22046  22551247.9864   22551252.0524
       227.0004        184.0004
  23979283.6804   -3848219.30049  -2988148.73645  23979283.3984   23979291.2214
       213.0004        151.0004
  21662299.5934    6059190.46249   4689661.18647  21662300.2724   21662304.8564
       239.0004        196.0004
 05 10 27 18 47  0.0000000  0  7G28G27G23G 8G19G10G13
  21411116.3714  -10360253.07549  -8063302.73347  21411116.3734   21411120.9984
       240.0004        204.0004
  20991318.0964   -4142932.10249  -3223384.63447  20991318.1334   20991323.5304
       241.0004        209.0004
  24462168.6284   13197030.53449  10270617.90845  24462169.3634   24462175.1464
       213.0004        142.0004
  21064146.5484   -9182785.74049  -7141996.09447  21064146.4154   21064152.2384
       240.0004        206.0004
  22560119.3114    -399313.02249   -305012.07346  22560118.9954   22560123.6084
       226.0004        184.0004
  23983143.1214   -3827938.18349  -2972345.30145  23983143.4354   23983149.6894
       213.0004        151.0004
  21678376.4544    6143674.82449   4755493.11647  21678377.2724   21678381.7124
       238.0004        196.0004
 05 10 27 18 47 30.0000000  0  7G28G27G23G 8G19G10G13
  21403886.9124  -10398243.90549  -8092905.94847  21403886.7284   21403891.5404
       241.0004        205.0004
  20989729.7464   -4151279.14149  -3229888.82347  20989729.8024   20989735.1724
       241.0004        209.0004
  24483749.4714   13310437.71249  10358986.97345  24483750.2824   24483755.5734
       210.0004        142.0004
  21055729.6054   -9227017.14249  -7176462.11547  21055729.4724   21055735.0584
       241.0004        206.0004
  22569087.1464    -352186.70249   -268290.27646  22569086.5074   22569091.0844
       226.0004        184.0004
  23987091.1734   -3807191.05849  -2956178.74845  23987089.9034   23987098.7204
       210.0004        151.0004
  21694526.1324    6228541.77049   4821623.16447  21694526.7024   21694531.8344
       238.0004        195.0004
 05 10 27 18 48  0.0000000  0  7G28G27G23G 8G19G10G13
  21396716.7524  -10435923.38549  -8122266.56847  21396716.6514   21396721.2824
       240.0004        205.0004
  20988177.7794   -4159434.73949  -3236243.83947  20988177.8674   20988182.9014
       241.0004        209.0004
  24505347.1754   13423933.58149  10447425.07145  24505347.0914   24505354.7534
       207.0004        142.0004
  21047342.6254   -9271091.08049  -7210805.43947  21047342.2684   21047347.9074
       240.0004        206.0004
  22578151.8674    -304551.23249   -231171.74646  22578151.7514   22578155.4214
       226.0004        183.0004
  23991127.6754   -3785979.06949  -2939649.97145  23991127.2984   23991133.9144
       213.0004        152.0004
  21710748.2904    6313789.64549   4888050.04647  21710749.0414   21710753.5954
       238.0004        195.0004
 05 10 27 18 48 30.0000000  0  7G28G27G23G 8G19G10G13
  21389605.7654  -10473291.72849  -8151384.73447  21389605.5444   21389610.0924
       240.0004        205.0004
  20986662.6224   -4167397.06749  -3242448.25547  20986662.5964   20986667.9734
       241.0004        210.0004
  24526961.3284   13537516.24949  10535930.78945  24526961.5584   24526968.9724
       210.0004        143.0004
  21038985.7844   -9315006.33449  -7245025.11447  21038985.3744   21038991.3384
       240.0004        206.0004
  22587313.3174    -256407.76249   -193657.37946  22587312.7494   22587316.6504
       226.0004        183.0004
  23995252.5334   -3764303.44149  -2922759.88745  23995251.8134   23995259.9224
       213.0004        151.0004
  21727042.5834    6399416.72849   4954772.40647  21727042.9114   21727047.6794
       238.0004        195.0004
 05 10 27 18 49  0.0000000  0  7G28G27G23G 8G19G10G13
  21382553.7324  -10510350.15349  -8180261.40447  21382553.4064   21382557.9844
       241.0004        205.0004
  20985184.2074   -4175166.36949  -3248502.26147  20985184.1394   20985189.6284
       241.0004        210.0004
  24548591.4964   13651182.30649  10624501.54745  24548591.5244   24548598.0774
       207.0004        140.0004
  21030659.1934   -9358762.64849  -7279120.93347  21030658.9084   21030664.6784
       240.0004        206.0004
  22596570.9494    -207758.73949   -155749.06346  22596570.8794   22596574.2324
       225.0004        183.0004
  23999464.8054   -3742166.74249  -2905510.55845  23999464.4364   23999472.8364
       210.0004        152.0004
  21743408.5084    6485420.06849   5021787.95847  21743408.9714   21743413.6404
       238.0004        194.0004
 05 10 27 18 49 30.0000000  0  7G28G27G23G 8G19G10G13
  21375560.7854  -10547098.24449  -8208896.26547  21375560.7174   21375565.3154
       241.0004        205.0004
  20983743.0144   -4182739.82949  -3254403.66247  20983743.0374   20983748.3204
       241.0004        210.0004
  24570237.2304   13764930.60049  10713136.41645  24570237.0794   24570245.9314
       205.0004        135.0004
  21022363.2684   -9402357.88749  -7313091.23747  21022362.9614   21022368.7694
       240.0004        206.0004
  22605924.5924    -158604.64149   -117447.19246  22605923.9254   22605928.4534
       226.0004        183.0004
  24003764.9314   -3719569.82949  -2887902.61045  24003764.0004   24003772.4054
       213.0004        152.0004
  21759845.7924    6571798.32649   5089095.64947  21759846.3524   21759851.1734
       238.0004        194.0004
 05 10 27 18 50  0.0000000  0  7G28G27G23G 8G19G10G13
  21368626.7254  -10583537.00049  -8237290.08247  21368626.4884   21368631.0354
       241.0004        205.0004
  20982339.1394   -4190117.01749  -3260152.12347  20982339.0494   20982344.5964
       241.0004        210.0004
  24591898.0064   13878758.22649  10801833.04945  24591897.0244   24591905.7914
       202.0004        137.0004
  21014098.1344   -9445791.43249  -7346935.55247  21014098.0734   21014103.7594
       241.0004        206.0004
  22615373.9934    -108947.81549    -78753.58546  22615373.8034   22615377.9684
       226.0004        182.0004
  24008152.1524   -3696514.90149  -2869937.76745  24008151.8824   24008159.4474
       213.0004        152.0004
  21776353.8324    6658548.93749   5156693.48847  21776354.6334   21776359.4834
       237.0004        193.0004
 05 10 27 18 50 30.0000000  0  7G28G27G23G 8G19G10G13
  21361751.3864  -10619667.01549  -8265443.32347  21361751.1674   21361756.0034
       241.0004        205.0004
  20980972.8184   -4197297.17549  -3265747.05647  20980972.8054   20980978.0204
       241.0004        210.0004
  24613573.4214   13992662.57949  10890589.45945  24613573.8474   24613581.2174
       206.0004        142.0004
  21005863.9174   -9489062.55049  -7380653.30047  21005863.6134   21005869.3794
       241.0004        206.0004
  22624918.7914     -58789.88849    -39669.51146  22624918.0854   22624923.0264
       227.0004        182.0004
  24012626.1654   -3673003.93449  -2851617.56045  24012625.6854   24012633.5674
       211.0004        151.0004
  21792932.4284    6745669.73549   5224579.78547  21792933.0664   21792938.0974
       238.0004        193.0004
 05 10 27 18 51  0.0000000  0  6G28G27G 8G19G10G13
  21354935.5814  -10655484.06349  -8293352.68947  21354935.4164   21354940.0364
       241.0004        205.0004
  20979645.1604   -4204274.02449  -3271183.56447  20979645.0844   20979650.4634
       241.0004        210.0004
  20997661.6924   -9532165.41649  -7414239.94047  20997661.5014   20997667.2934
       241.0004        206.0004
  22634559.5124      -8127.89449      -192.66246  22634559.0814   22634563.2004
       227.0004        183.0004
  24017187.4014   -3649034.18049  -2832939.87945  24017187.2374   24017194.5204
       212.0004        151.0004
  21809581.8964    6833163.05549   5292756.35747  21809582.4004   21809587.0884
       236.0004        192.0004
 05 10 27 18 51 30.0000000  0  7G28G29G27G 8G19G10G13
  21348176.6404  -10691002.59649  -8321029.45647  21348176.5054   21348181.1214
       240.0004        205.0004
  24762959.9894   -3335615.13049  -2587347.05445  24762958.4514   24762968.8984
       203.0004        136.0004
  20978353.7634   -4211060.48649  -3276471.72347  20978353.7284   20978359.2134
       241.0004        210.0004
  20989489.0774   -9575112.87249  -7447705.48447  20989488.7994   20989494.3914
       241.0004        206.0004
  22644293.1624      43022.63949     39664.87346  22644292.7724   22644297.0254
       226.0004        182.0004
  24021833.0114   -3624621.51049  -2813917.05045  24021833.4814   24021840.6744
       213.0004        151.0004
  21826299.1444    6921012.72449   5361210.59747  21826299.6974   21826304.5504
       236.0004        192.0004
 05 10 27 18 52  0.0000000  0  7G28G29G27G 8G19G10G13
  21341476.6254  -10726211.26949  -8348464.76547  21341476.3834   21341480.9944
       241.0004        205.0004
  24744216.4044   -3434113.19249  -2664098.74845  24744216.3554   24744224.2604
       200.0004        135.0004
  20977101.0714   -4217643.44749  -3281601.30547  20977101.0454   20977106.4264
       241.0004        210.0004
  20981348.4994   -9617891.96449  -7481039.83547  20981348.4454   20981353.9294
       241.0004        206.0004
  22654121.5824      94671.53549     79910.73346  22654121.0184   22654125.4974
       227.0004        182.0004
  24026564.8604   -3599755.76449  -2794541.19845  24026565.2254   24026573.4764
       213.0004        151.0004
  21843086.0434    7009228.32849   5429949.99047  21843086.6664   21843091.7594
       235.0004        191.0004
 05 10 27 18 52 30.0000000  0  8G28G11G29G27G 8G19G10G13
  21334835.2154  -10761111.99749  -8375660.11347  21334835.1714   21334839.7834
       241.0004        206.0004
  24498103.4964   -2070116.05949  -1604915.73045  24498103.1464   24498111.4084
       213.0004        152.0004
  24725497.4324   -3532481.43249  -2740749.24245  24725497.4044   24725503.5394
       201.0004        135.0004
  20975887.0484   -4224023.21349  -3286572.55347  20975887.0964   20975892.3664
       241.0004        210.0004
  20973239.8724   -9660502.98449  -7514243.21747  20973239.8084   20973245.4194
       241.0004        207.0004
  22664044.3624     146816.05849    120542.80246  22664043.9994   22664047.9364
       226.0004        182.0004
  24031382.2744   -3574440.01149  -2774814.68145  24031382.4404   24031390.1114
       211.0004        150.0004
  21859941.8904    7097806.23449   5498971.69247  21859942.4674   21859947.2904
       235.0004        191.0004
 05 10 27 18 53  0.0000000  0  8G28G11G29G27G 8G19G10G13
  21328252.1814  -10795706.04149  -8402616.49447  21328251.9984   21328256.7714
       240.0004        206.0004
  24486682.3764   -2130133.96849  -1651682.82545  24486682.0734   24486690.3714
       212.0004        152.0004
  24706803.5554   -3630718.39549  -2817297.48545  24706804.4154   24706810.8124
       203.0004        136.0004
  20974711.8424   -4230199.16649  -3291384.98947  20974711.7594   20974717.2664
       241.0004        210.0004
  20965163.3324   -9702945.43849  -7547315.25547  20965163.3694   20965168.9494
       241.0004        207.0004
  22674061.0514     199453.61549    161559.03746  22674060.5154   22674064.7214
       226.0004        182.0004
  24036284.8034   -3548677.03049  -2754739.67545  24036284.7964   24036292.9664
       212.0004        150.0004
  21876866.0994    7186743.61149   5568273.50247  21876866.7104   21876871.4124
       236.0004        191.0004
 05 10 27 18 53 30.0000000  0  8G28G11G29G27G 8G19G10G13
  21321727.5914  -10829992.94449  -8429333.53247  21321727.3154   21321732.2194
       241.0004        206.0004
  24475278.2624   -2190062.54349  -1698380.29045  24475277.0384   24475286.0974
       211.0004        151.0004
  24688135.2994   -3728820.47349  -2893740.58345  24688134.6304   24688142.7754
       201.0004        138.0004
  20973575.7874   -4236169.04949  -3296036.84247  20973575.7864   20973581.1224
       241.0004        210.0004
  20957119.3334   -9745217.10849  -7580254.20647  20957118.9184   20957124.8494
       241.0004        207.0004
  22684171.4824     252583.81649    202959.17546  22684171.4654   22684174.7974
       226.0004        182.0004
  24041272.3004   -3522467.65749  -2734316.83445  24041272.2944   24041280.0904
       213.0004        150.0004
  21893858.5464    7276039.29349   5637854.51147  21893859.2174   21893864.0004
       237.0004        191.0004
 05 10 27 18 54  0.0000000  0  8G28G11G29G27G 8G19G10G13
  21315261.3714  -10863973.30249  -8455811.72447  21315261.0924   21315265.6814
       241.0004        206.0004
  24463891.6234   -2249899.26849  -1745006.17745  24463890.8314   24463899.0214
       209.0004        150.0004
  24669493.1804   -3826785.49149  -2970076.91045  24669493.6854   24669500.6214
       204.0004        137.0004
  20972479.2434   -4241931.45249  -3300527.03547  20972479.1454   20972484.6134
       241.0004        210.0004
  20949108.0084   -9787316.89249  -7613059.23147  20949107.9544   20949113.4194
       242.0004        207.0004
  22694375.1534     306204.32749    244741.35346  22694374.6014   22694378.9934
       226.0004        182.0004
  24046344.4314   -3495813.79749  -2713547.63945  24046343.8234   24046351.6864
       209.0004        149.0004
  21910918.7614    7365691.13149   5707713.04247  21910919.3564   21910924.4714
       236.0004        190.0004
 05 10 27 18 54 30.0000000  0  8G28G11G29G27G 8G19G10G13
  21308853.2054  -10897648.11249  -8482051.82047  21308852.9984   21308857.7154
       241.0004        206.0004
  24452522.9054   -2309641.50449  -1791558.42345  24452522.5814   24452530.5594
       210.0004        150.0004
  24650877.5754   -3924611.27549  -3046304.73045  24650876.7234   24650884.1074
       204.0004        137.0004
  20971422.3374   -4247485.78349  -3304855.09347  20971422.4064   20971427.7684
       242.0004        210.0004
  20941129.5704   -9829243.97549  -7645729.68647  20941129.3384   20941134.9784
       242.0004        207.0004
  22704671.7984     360313.47449    286904.29246  22704671.1234   22704675.7094
       226.0004        182.0004
  24051500.7204   -3468717.68149  -2692433.84045  24051500.0134   24051508.8164
       212.0004        150.0004
  21928046.1814    7455696.23049   5777846.83647  21928046.9194   21928051.7544
       236.0004        190.0004
 05 10 27 18 55  0.0000000  0  8G28G11G29G27G 8G19G10G13
  21302503.1124  -10931018.06249  -8508054.35647  21302503.0044   21302507.7464
       241.0004        206.0004
  24441172.5974   -2369287.28849  -1838035.51845  24441173.0084   24441179.1594
       208.0004        150.0004
  24632288.7924   -4022295.89349  -3122422.58545  24632288.6614   24632295.8374
       203.0004        139.0004
  20970405.2014   -4252831.10049  -3309020.27547  20970405.2114   20970410.4724
       242.0004        210.0004
  20933184.0724   -9870997.89249  -7678265.20047  20933183.8184   20933189.2474
       241.0004        207.0004
  22715060.9504     414908.73549    329446.02746  22715061.3004   22715064.6444
       227.0004        182.0004
  24056740.7314   -3441181.86149  -2670977.39845  24056740.3854   24056748.0514
       212.0004        150.0004
  21945240.4244    7546052.17349   5848254.02047  21945241.1264   21945246.2014
       236.0004        190.0004
 05 10 27 18 55 30.0000000  0  9G28G11G29G 7G27G 8G19G10G13
  21296210.9264  -10964083.63049  -8533819.71247  21296210.8104   21296215.3074
       240.0004        206.0004
  24429841.3114   -2428833.17049  -1884434.77845  24429840.4634   24429849.1164
       207.0004        149.0004
  24613727.2684   -4119836.95749  -3198428.54245  24613727.5814   24613735.1694
       206.0004        140.0004
                   -199233.51349   -144699.36343
       206.0004         74.0004
  20969428.1414   -4257965.76749  -3313021.32147  20969428.1874   20969433.4834
       241.0004        210.0004
  20925271.7614   -9912577.19149  -7710664.64947  20925271.4264   20925277.3814
       242.0004        207.0004
  22725542.2794     469988.40149    372365.22246  22725541.8054   22725545.8124
       225.0004        182.0004
  24062063.9824   -3413208.11049  -2649179.72345  24062063.5304   24062071.2884
       212.0004        150.0004
  21962501.0304    7636756.98949   5918933.06247  21962501.6464   21962505.9334
       236.0004        189.0004
 05 10 27 18 56  0.0000000  0  9G28G11G29G 7G27G 8G19G10G13
  21289976.4954  -10996845.74749  -8559348.61747  21289976.2064   21289980.7104
       241.0004        206.0004
  24418529.3844   -2488277.13849  -1930754.60745  24418529.3544   24418536.2204
       209.0004        148.0004
  24595193.5114   -4217232.22849  -3274320.90045  24595193.7824   24595200.7114
       205.0004        139.0004
                   -304667.74349   -226855.70043
       208.0004         74.0004
  20968491.2494   -4262889.05649  -3316857.65547  20968491.1864   20968496.5084
       241.0004        210.0004
  20917392.9324   -9953980.83749  -7742927.23047  20917392.4914   20917398.4474
       242.0004        208.0004
  22736115.4304     525550.70749    415660.49446  22736114.7654   22736118.9024
       225.0004        182.0004
  24067470.2724   -3384798.70549  -2627042.55245  24067469.3284   24067478.1584
       211.0004        150.0004
  21979827.3344    7727807.45549   5989881.43447  21979827.8524   21979833.1034
       235.0004        189.0004
 05 10 27 18 56 30.0000000  0  9G28G11G29G 7G27G 8G19G10G13
  21283799.8134  -11029304.38949  -8584641.06047  21283799.6424   21283804.0914
       240.0004        206.0004
  24407237.6364   -2547615.32749  -1976992.03845  24407236.8324   24407244.0034
       207.0004        147.0004
  24576688.1684   -4314478.62249  -3350097.26145  24576688.8224   24576694.9474
       206.0004        141.0004
                   -410059.94549   -308979.25644                  24280688.5904
       209.0004        115.0004
  20967594.9824   -4267598.94649  -3320527.70447  20967595.0164   20967600.2714
       241.0004        210.0004
  20909547.8794   -9995206.92049  -7775051.45147  20909547.5214   20909553.0944
       241.0004        208.0004
  22746780.1824     581594.38649    459330.87446  22746779.3424   22746784.3714
       225.0004        182.0004
  24072958.9774   -3355954.95949  -2604566.96045  24072958.4684   24072966.4584
       211.0004        150.0004
  21997219.1934    7819202.11649   6061098.00447  21997219.8324   21997225.1484
       236.0004        189.0004
 05 10 27 18 57  0.0000000  0  9G28G11G29G 7G27G 8G19G10G13
  21277680.6694  -11061460.54749  -8609697.79247  21277680.7284   21277685.1494
       240.0004        206.0004
  24395966.3384   -2606845.78049  -2023145.52045  24395966.6744   24395974.3564
       205.0004        147.0004
  24558211.5054   -4411574.34849  -3425756.21345  24558211.7144   24558217.8164
       210.0004        140.0004
  24260630.3214    -515408.39349   -391068.74545  24260630.6454   24260641.2444
       207.0004        140.0004
  20966739.4234   -4272094.89949  -3324031.04847  20966739.4384   20966744.6474
       241.0004        210.0004
  20901736.6384  -10036255.14849  -7807037.08147  20901736.3394   20901742.1884
       242.0004        208.0004
  22757536.0814     638116.94749    503374.40046  22757535.7764   22757539.8984
       225.0004        182.0004
  24078529.9924   -3326679.15749  -2581754.68245  24078529.4514   24078537.1314
       210.0004        150.0004
  22014676.0664    7910938.43949   6132580.81147  22014676.9264   22014681.7854
       235.0004        188.0004
 05 10 27 18 57 30.0000000  0  9G28G11G29G 7G27G 8G19G10G13
  21271618.5564  -11093317.13349  -8634521.08347  21271618.2354   21271623.1034
       240.0004        206.0004
  24384715.5614   -2665968.44749  -2069215.01345  24384715.8234   24384723.4384
       205.0004        146.0004
  24539763.6224   -4508519.12649  -3501297.55045  24539762.5764   24539769.8804
       206.0004        141.0004
  24240591.7414    -620712.93249   -473124.01445  24240591.1084   24240602.2004
       206.0004        142.0004
  20965924.3954   -4276377.89149  -3327368.44947  20965924.3334   20965929.5494
       241.0004        210.0004
  20893959.1304  -10077126.01549  -7838884.50847  20893959.0334   20893964.4144
       242.0004        208.0004
  22768382.2834     695114.20149    547787.82146  22768382.1174   22768386.8474
       225.0004        182.0004
  24084182.3924   -3296975.83149  -2558609.30045  24084182.0384   24084189.7914
       209.0004        150.0004
  22032197.1194    8003011.76249   6204326.21547  22032197.1874   22032202.6414
       235.0004        188.0004
 05 10 27 18 58  0.0000000  0  9G28G11G29G 7G27G 8G19G10G13
  21265613.6874  -11124872.85449  -8659109.94847  21265613.7224   21265618.3044
       240.0004        206.0004
  24373486.3674   -2724977.90349  -2115196.31745  24373486.3174   24373493.2704
       207.0004        145.0004
  24521345.1644   -4605308.70649  -3576717.93445  24521345.3964   24521352.3684
       207.0004        142.0004
  24220562.2604    -725969.18649   -555141.68245  24220562.9334   24220572.3994
       207.0004        142.0004
  20965150.5054   -4280444.79049  -3330537.46547  20965150.4784   20965155.9384
       241.0004        210.0004
  20886215.9964  -10117816.61949  -7870591.47547  20886215.8444   20886221.4994
       242.0004        208.0004
  22779318.9074     752586.41949    592571.34246  22779318.0964   22779322.9824
       225.0004        182.0004
  24089916.0304   -3266844.97249  -2535130.74245  24089916.0484   24089923.9244
       211.0004        150.0004
  22049782.1794    8095421.75649   6276333.95646  22049782.3834   22049787.5634
       235.0004        187.0004
 05 10 27 18 58 30.0000000  0  9G28G11G29G 7G27G 8G19G10G13
  21259666.0374  -11156127.81149  -8683464.44347  21259666.0794   21259670.5934
       240.0004        206.0004
  24362279.3444   -2783871.08149  -2161087.01545  24362279.7154   24362286.5754
       203.0004        144.0004
  24502956.8094   -4701940.03349  -3652015.00445  24502957.1164   24502964.0254
       210.0004        142.0004
  24200542.4654    -831174.31349   -637119.54745  24200542.6734   24200551.4614
       208.0004        141.0004
  20964418.0944   -4284293.63649  -3333536.57447  20964417.9654   20964423.5244
       241.0004        210.0004
  20878507.4634  -10158325.53449  -7902156.86547  20878507.2804   20878512.8854
       242.0004        208.0004
  22790345.6404     810532.08849    637723.77846  22790344.8234   22790349.4144
       225.0004        182.0004
  24095730.7884   -3236288.53049  -2511320.59745  24095730.7634   24095738.4234
       211.0004        150.0004
  22067430.9094    8188166.53049   6348602.56546  22067431.7354   22067436.4404
       235.0004        187.0004
 05 10 27 18 59  0.0000000  0  9G28G11G29G 7G27G 8G19G10G13
  21253775.7044  -11187081.78449  -8707584.40747  21253775.6074   21253780.1734
       241.0004        206.0004
  24351095.0324   -2842644.46849  -2206884.38445  24351094.9084   24351100.8584
       203.0004        142.0004
  24484599.2814   -4798409.77849  -3727186.20245  24484597.5564   24484606.0674
       206.0004        140.0004
  24180532.9424    -936325.01249   -719055.01545  24180532.6364   24180541.8264
       205.0004        138.0004
  20963727.5014   -4287922.66249  -3336364.38847  20963727.5734   20963732.8674
       241.0004        210.0004
  20870833.8504  -10198650.60549  -7933578.99547  20870833.5834   20870839.1554
       241.0004        208.0004
  22801462.2844     868950.43449    683244.54146  22801461.8164   22801466.3704
       224.0004        182.0004
  24101626.4674   -3205307.21249  -2487179.35145  24101626.4214   24101633.2634
       211.0004        149.0004
  22085143.1394    8281244.67849   6421130.95246  22085143.7134   22085148.7254
       235.0004        187.0004
 05 10 27 18 59 30.0000000  0  9G28G11G29G 7G27G 8G19G10G13
  21247942.4184  -11217735.80849  -8731470.64247  21247942.4564   21247946.8364
       240.0004        206.0004
  24339933.9544   -2901296.04349  -2252586.83345  24339934.2344   24339941.1654
       202.0004        141.0004
  24466272.6694   -4894716.25149  -3802230.14345  24466273.0124   24466279.2734
       210.0004        142.0004
  24160534.0314   -1041419.65049   -800946.73345  24160533.8104   24160544.2464
       206.0004        140.0004
  20963079.0064   -4291330.70649  -3339020.00847  20963078.9424   20963084.2964
       241.0004        210.0004
  20863195.3304  -10238791.12549  -7964857.31747  20863195.0514   20863200.9974
       242.0004        208.0004
  22812668.3144     927838.56849    729131.38446  22812667.5494   22812672.2454
       224.0004        182.0004
  24107602.3424   -3173903.91149  -2462709.28345  24107602.6044   24107611.2964
       211.0004        149.0004
  22102918.2124    8374653.07249   6493916.66846  22102918.6184   22102924.0424
       234.0004        186.0004
 05 10 27 19  0  0.0000000  0  9G28G11G29G 7G27G 8G19G10G13
  21242166.1764  -11248090.14149  -8755123.36047  21242166.1744   21242170.7044
       240.0004        206.0004
  24328796.7354   -2959822.30349  -2298191.63945  24328797.1544   24328804.4564
       203.0004        141.0004
  24447977.7594   -4990856.39949  -3877144.49445  24447977.5774   24447985.0784
       207.0004        142.0004
  24140546.4134   -1146455.17449   -882792.40145  24140546.6774   24140557.2404
       209.0004        142.0004
  20962472.8184   -4294516.03949  -3341502.09747  20962472.8224   20962478.1794
       241.0004        210.0004
  20855592.3434  -10278745.31349  -7995990.45447  20855592.2544   20855597.6264
       242.0004        209.0004
  22823963.5164     987195.02449    775383.14246  22823962.8294   22823967.8354
       224.0004        182.0004
  24113658.2654   -3142080.12449  -2437911.57745  24113658.2024   24113665.3964
       209.0004        149.0004
  22120755.8494    8468390.21649   6566958.54646  22120756.4494   22120761.6404
       234.0004        186.0004
 05 10 27 19  0 30.0000000  0  9G28G11G29G 7G27G 8G19G10G13
  21236446.6934  -11278146.11149  -8778543.58047  21236446.6744   21236451.1954
       241.0004        206.0004
  24317683.8144   -3018221.00249  -2343697.06745  24317683.4584   24317690.7594
       199.0004        140.0004
  24429714.7564   -5086828.47649  -3951927.87945  24429714.5814   24429721.5034
       206.0004        144.0004
  24120570.3634   -1251429.88149   -964590.70145  24120570.4874   24120578.8474
       207.0004        141.0004
  20961909.1954   -4297477.98249  -3343810.10547  20961909.3324   20961914.5904
       241.0004        210.0004
  20848024.8714  -10318512.64649  -8026977.97747  20848024.6534   20848030.2534
       242.0004        209.0004
  22835347.3584    1047017.56349    821998.08246  22835346.6984   22835351.2074
       225.0004        182.0004
  24119793.6734   -3109838.38249  -2412788.20045  24119793.5144   24119801.1144
       211.0004        149.0004
  22138655.4374    8562452.95549   6640254.14946  22138656.2474   22138660.6524
       235.0004        186.0004
 05 10 27 19  1  0.0000000  0  9G28G11G29G 7G27G 8G19G10G13
  21230783.8614  -11307904.42349  -8801731.86647  21230783.9244   21230788.4634
       241.0004        207.0004
  24306595.5144   -3076489.88949  -2389101.33145  24306595.7544   24306601.5264
       198.0004        138.0004
  24411484.0314   -5182630.41149  -4026578.66945  24411483.6324   24411491.6354
       207.0004        143.0004
  24100606.1374   -1356341.93149  -1046340.16345  24100605.5684   24100614.1654
       205.0004        137.0004
  20961388.1744   -4300216.12149  -3345943.72947  20961388.1134   20961393.5224
       241.0004        210.0004
  20840493.2094  -10358091.85649  -8057818.92347  20840492.8774   20840498.7284
       242.0004        209.0004
  22846819.4184    1107303.73849    868974.29646  22846819.2464   22846824.1134
       224.0004        183.0004
  24126008.1174   -3077181.50849  -2387341.33645  24126008.3024   24126016.0804
       209.0004        148.0004
  22156616.4594    8656838.38549   6713801.18346  22156616.9934   22156622.1484
       233.0004        185.0004
 05 10 27 19  1 30.0000000  0  9G28G11G29G 7G27G 8G19G10G13
  21225177.6964  -11337365.03249  -8824688.16747  21225177.4454   21225182.0744
       240.0004        207.0004
  24295532.6954   -3134625.23449  -2434401.52845  24295532.6034   24295539.5584
       201.0004        137.0004
  24393286.5634   -5278258.53049  -4101094.03045  24393286.2594   24393293.6444
       207.0004        143.0004
  24080654.4764   -1461187.76149  -1128037.98245  24080653.4514   24080662.8034
       204.0004        137.0004
  20960910.1664   -4302727.97749  -3347901.02447  20960910.1544   20960915.5264
       241.0004        210.0004
  20832997.6524  -10397481.08349  -8088511.82347  20832997.3764   20833003.0834
       242.0004        209.0004
  22858379.5534    1168052.49749    916310.97246  22858378.8544   22858383.7374
       225.0004        183.0004
  24132301.3664   -3044110.58649  -2361571.82245  24132300.2564   24132308.8284
       209.0004        148.0004
  22174638.6574    8751545.42149   6787598.82646  22174639.2574   22174644.1714
       233.0004        185.0004
 05 10 27 19  2  0.0000000  0  9G28G11G29G 7G27G 8G19G10G13
  21219627.8514  -11366529.48949  -8847413.70447  21219627.6574   21219632.5114
       240.0004        207.0004
  24284495.6524   -3192625.07649  -2479596.13145  24284494.9344   24284503.3754
       198.0004        135.0004
  24375122.3944   -5373711.69849  -4175473.07945  24375122.6444   24375129.3224
       205.0004        144.0004
  24060715.6954   -1565966.14149  -1209683.24445  24060714.6144   24060724.8204
       203.0004        139.0004
  20960475.3564   -4305012.93749  -3349681.52147  20960475.3954   20960480.6004
       241.0004        210.0004
  20825538.3334  -10436680.21149  -8119056.59347  20825538.2104   20825543.8964
       242.0004        209.0004
  22870027.1294    1229260.77449    964005.70546  22870026.9304   22870031.0924
       225.0004        183.0004
  24138672.6844   -3010628.89549  -2335482.24445  24138672.6154   24138680.6034
       213.0004        148.0004
  22192721.4294    8846570.63649   6861644.40546  22192721.6884   22192726.7184
       234.0004        185.0004
 05 10 27 19  2 30.0000000  0  9G28G11G29G 7G27G 8G19G10G13
  21214134.3344  -11395398.19449  -8869908.78947  21214134.1714   21214138.6894
       241.0004        207.0004
  24273484.8364   -3250486.39848  -2524682.78945  24273484.9664   24273493.4084
       194.0004        134.0004
  24356991.9564   -5468987.10549  -4249713.59245  24356991.8854   24356999.2054
       206.0004        143.0004
  24040790.2894   -1670674.42849  -1291273.89245  24040789.6584   24040799.0264
       205.0004        139.0004
  20960083.9594   -4307069.80449  -3351284.28647  20960084.0764   20960089.4164
       242.0004        210.0004
  20818115.4804  -10475687.52149  -8149451.90047  20818115.3494   20818120.8264
       243.0004        209.0004
  22881761.8584    1290926.57549   1012056.95546  22881761.4364   22881765.5804
       224.0004        183.0004
  24145122.0614   -2976738.21049  -2309073.95945  24145121.2104   24145129.5714
       208.0004        148.0004
  22210864.2484    8941911.58949   6935936.00746  22210864.7984   22210870.2784
       234.0004        185.0004
 05 10 27 19  3  0.0000000  0  9G28G11G29G 7G27G 8G19G10G13
  21208697.0094  -11423971.54249  -8892173.72047  21208696.9554   21208701.5124
       241.0004        207.0004
  24262500.9074   -3308206.50049  -2569659.42245  24262499.5514   24262505.8494
       198.0004        132.0004
  24338895.8764   -5564081.83649  -4323813.33845  24338896.3534   24338902.7444
       205.0004        144.0004
  24020878.6754   -1775309.87349  -1372807.79345  24020878.0724   24020887.3534
       205.0004        139.0004
  20959736.2744   -4308896.88649  -3352707.99547  20959736.3764   20959741.7584
       241.0004        210.0004
  20810729.5014  -10514501.14549  -8179696.27747  20810729.2124   20810735.0234
       243.0004        209.0004
  22893583.2044    1353048.40149   1060463.54646  22893583.0624   22893587.6444
       225.0004        184.0004
  24151648.6944   -2942440.46549  -2282348.50145  24151648.2624   24151656.6014
       209.0004        148.0004
  22229066.8204    9037566.50149   7010472.25246  22229067.3874   22229072.5634
       233.0004        184.0004
 05 10 27 19  3 30.0000000  0  9G28G11G29G 7G27G 8G19G10G13
  21203315.7394  -11452250.16149  -8914208.99147  21203315.5604   21203320.2684
       241.0004        207.0004
  24251544.5814   -3365782.42749  -2614523.70145  24251543.6664   24251551.9084
       197.0004        132.0004
  24320834.6444   -5658993.73549  -4397770.60645  24320834.6964   24320842.6184
       206.0004        144.0004
  24000981.2314   -1879870.49749  -1454283.37945  24000981.3864   24000990.1414
       205.0004        141.0004
  20959432.4874   -4310493.30749  -3353951.96447  20959432.4774   20959438.0154
       241.0004        210.0004
  20803380.5464  -10553120.34149  -8209789.15647  20803380.2804   20803386.1144
       243.0004        210.0004
  22905491.1184    1415624.51649   1109224.12546  22905490.5194   22905495.2074
       225.0004        184.0004
  24158252.1434   -2907738.30249  -2255307.91245  24158252.5104   24158260.7384
       211.0004        148.0004
  22247328.6174    9133532.57149   7085250.96046  22247328.3154   22247334.2494
       233.0004        184.0004
 05 10 27 19  4  0.0000000  0  9G28G11G29G 7G27G 8G19G10G13
  21197990.4564  -11480234.85049  -8936015.23047  21197990.2274   21197994.8774
       241.0004        207.0004
  24240616.0394   -3423211.38849  -2659273.42844  24240616.4404   24240621.6064
       197.0004        131.0004
  24302808.7444   -5753720.03849  -4471583.26245  24302809.2554   24302816.9684
       206.0004        145.0004
  23981098.5534   -1984353.62549  -1535698.57445  23981097.9814   23981107.4414
       206.0004        142.0004
  20959172.9684   -4311857.23149  -3355014.76747  20959172.8574   20959178.4474
       241.0004        210.0004
  20796068.8124  -10591543.86449  -8239729.56347  20796068.7314   20796074.4224
       243.0004        210.0004
  22917484.9544    1478652.41149   1158336.75146  22917484.1064   22917488.7814
       225.0004        184.0004
  24164932.4704   -2872633.68249  -2227953.70645  24164932.5454   24164940.6924
       209.0004        148.0004
  22265649.1094    9229807.47349   7160270.31046  22265649.7414   22265654.9584
       232.0004        183.0004
 05 10 27 19  4 30.0000000  0  9G28G11G29G 7G27G 8G19G10G13
  21192721.0204  -11507925.81449  -8957592.59447  21192720.8354   21192725.7324
       240.0004        207.0004
  24229716.1134   -3480490.45649  -2703906.35944  24229714.6384   24229724.4744
       199.0004        131.0004
  24284818.6164   -5848258.41649  -4545249.48145  24284818.6804   24284826.3754
       205.0004        146.0004
  23961231.1334   -2088756.77649  -1617051.47145  23961230.5854   23961240.1604
       204.0004        143.0004
  20958957.8794   -4312987.58149  -3355895.56447  20958957.8154   20958963.3154
       241.0004        210.0004
  20788794.6214  -10629769.94749  -8269516.12047  20788794.3274   20788800.0734
       243.0004        210.0004
  22929564.3754    1542130.34149   1207800.03846  22929564.1534   22929568.2824
       226.0004        184.0004
  24171688.8244   -2837128.77249  -2200287.60245  24171687.8894   24171696.3994
       210.0004        148.0004
  22284028.0194    9326389.07349   7235528.64746  22284029.1184   22284034.0654
       232.0004        183.0004
 05 10 27 19  5  0.0000000  0  9G28G11G29G 7G27G 8G19G10G13
  21187507.0944  -11535324.91649  -8978942.53547  21187506.9644   21187511.5724
       241.0004        207.0004
  24218845.0524   -3537617.72349  -2748420.98544  24218843.7134   24218851.7454
       198.0004        130.0004
  24266864.7584   -5942606.84949  -4618767.68445  24266864.8294   24266872.9174
       203.0004        146.0004
  23941379.2444   -2193078.20449  -1698340.65945  23941378.7484   23941388.2654
       208.0004        145.0004
  20958787.2984   -4313883.75349  -3356593.88747  20958787.4734   20958792.8904
       241.0004        210.0004
  20781558.1374  -10667797.98049  -8299148.35747  20781557.9974   20781563.6624
       243.0004        210.0004
  22941729.0764    1606055.86849   1257612.10746  22941728.6824   22941733.0954
       225.0004        184.0004
  24178520.9494   -2801226.33449  -2172311.73245  24178521.1484   24178528.9074
       210.0004        149.0004
  22302464.6614    9423274.14849   7311023.45746  22302465.3654   22302470.1294
       232.0004        183.0004
 05 10 27 19  5 30.0000000  0  9G28G11G29G 7G27G 8G19G10G13
  21182348.9064  -11562431.45249  -9000064.50147  21182348.8254   21182353.5134
       240.0004        207.0004
  24208003.7124   -3594589.16249  -2792814.19444  24208002.8584   24208011.2544
       198.0004        131.0004
  24248947.5904   -6036761.99449  -4692135.28145  24248947.4034   24248954.7984
       202.0004        145.0004
  23921543.5964   -2297314.70149  -1779563.71045  23921542.8904   23921552.0774
       208.0004        147.0004
  20958661.7524   -4314543.69049  -3357108.13347  20958661.8304   20958667.2454
       241.0004        210.0004
  20774359.8104  -10705625.53749  -8328624.37647  20774359.5604   20774365.2484
       243.0004        210.0004
  22953978.5784    1670427.34249   1307771.66846  22953977.9324   22953982.6034
       225.0004        184.0004
  24185428.4494   -2764927.57449  -2144027.03145  24185427.7374   24185436.8034
       212.0004        149.0004
  22320958.7964    9520461.32049   7386753.66846  22320959.3214   22320964.5334
       232.0004        182.0004
 05 10 27 19  6  0.0000000  0  9G28G11G29G 7G27G 8G19G10G13
  21177245.9184  -11589247.74449  -9020960.29947  21177245.6984   21177250.3664
       241.0004        207.0004
  24197192.1654   -3651403.45749  -2837084.93944  24197192.5224   24197199.6074
       198.0004        131.0004
  24231067.2574   -6130722.64449  -4765351.29645  24231067.7814   24231074.2944
       208.0004        146.0004
  23901724.2074   -2401465.03949  -1860719.61745  23901724.3314   23901733.3124
       207.0004        146.0004
  20958581.1844   -4314967.16549  -3357438.12147  20958581.2764   20958586.7254
       241.0004        210.0004
  20767199.5494  -10743252.81849  -8357944.33647  20767199.2874   20767204.7934
       243.0004        210.0004
  22966312.3474    1735241.69249   1358276.32546  22966312.4134   22966316.3064
       225.0004        183.0004
  24192410.7004   -2728236.05249  -2115436.29045  24192409.8134   24192417.9084
       209.0004        149.0004
  22339509.7384    9617946.90649   7462716.40546  22339510.4494   22339514.7804
       232.0004        182.0004
 05 10 27 19  6 30.0000000  0  9G28G11G29G 7G27G 8G19G10G13
  21172198.3864  -11615772.64049  -9041629.03047  21172198.1824   21172202.6634
       241.0004        207.0004
  24186411.5604   -3708056.02049  -2881229.65045  24186410.6964   24186418.5444
       198.0004        132.0004
  24213224.8764   -6224484.50149  -4838412.42445  24213225.3334   24213232.8414
       210.0004        147.0004
  23881922.0364   -2505525.23949  -1941805.29345  23881922.1694   23881930.8244
       210.0004        147.0004
  20958546.1444   -4315151.32149  -3357581.62447  20958546.2004   20958551.6294
       241.0004        210.0004
  20760077.9484  -10780676.99149  -8387106.02647  20760077.6574   20760083.1684
       243.0004        210.0004
  22978730.3524    1800498.60349   1409125.83746  22978730.0264   22978734.5494
       225.0004        183.0004
  24199467.4034   -2691152.43849  -2086540.02545  24199466.8984   24199475.4064
       211.0004        148.0004
  22358117.2644    9715729.94249   7538910.92846  22358117.5774   22358123.1174
       231.0004        182.0004
 05 10 27 19  7  0.0000000  0  9G28G11G29G 7G27G 8G19G10G13
  21167205.9224  -11642008.22549  -9062072.33347  21167205.7384   21167210.3644
       240.0004        207.0004
  24175661.9124   -3764545.37649  -2925247.19645  24175664.0964   24175668.9394
       197.0004        132.0004
  24195420.7994   -6318046.29949  -4911317.63945  24195420.0894   24195427.8904
       209.0004        147.0004
  23862137.4434   -2609494.13449  -2022819.84245  23862137.3064   23862146.6364
       210.0004        149.0004
  20958556.7324   -4315095.85549  -3357538.41247  20958556.6634   20958562.3714
       241.0004        210.0004
  20752995.0874  -10817897.77549  -8416109.23647  20752994.8814   20753000.3654
       243.0004        210.0004
  22991231.7834    1866194.14549   1460317.13046  22991231.0124   22991235.9874
       225.0004        183.0004
  24206598.1974   -2653680.34149  -2057341.02945  24206598.3014   24206606.6874
       212.0004        149.0004
  22376780.7474    9813807.05349   7615334.59046  22376781.4874   22376786.3764
       231.0004        182.0004
 05 10 27 19  7 30.0000000  0  9G28G11G29G 7G27G 8G19G10G13
  21162268.3504  -11667955.20549  -9082290.75047  21162268.2474   21162272.9854
       240.0004        207.0004
  24164943.8044   -3820868.86249  -2969135.47845  24164944.1774   24164950.1554
       202.0004        132.0004
  24177655.0504   -6411405.86349  -4984065.30045  24177655.7374   24177662.3754
       207.0004        148.0004
  23842370.5704   -2713369.59249  -2103761.60145  23842370.5204   23842379.3374
       211.0004        150.0004
  20958613.0894   -4314799.64649  -3357307.61247  20958612.9944   20958618.6554
       241.0004        210.0004
  20745951.0954  -10854914.17549  -8444953.18447  20745950.9274   20745956.3184
       243.0004        210.0004
  23003816.3954    1932326.56049   1511848.84946  23003816.0304   23003820.9874
       224.0004        182.0004
  24213802.4204   -2615822.15549  -2027841.19945  24213802.4334   24213810.0264
       211.0004        149.0004
  22395499.6354    9912175.42449   7691985.20746  22395500.4984   22395505.7684
       230.0004        181.0004
 05 10 27 19  8  0.0000000  0  9G28G11G29G 7G27G 8G19G10G13
  21157385.7804  -11693613.16849  -9102283.95147  21157385.7074   21157390.2564
       240.0004        207.0004
  24154258.0264   -3877023.02249  -3012891.83145  24154258.1954   24154265.0734
       202.0004        132.0004
  24159928.3974   -6504559.54749  -5056652.49545  24159929.2194   24159934.9974
       209.0004        149.0004
  23822622.1294   -2817147.94749  -2184627.68745  23822621.4824   23822630.3914
       212.0004        152.0004
  20958715.7384   -4314260.41749  -3356887.44347  20958715.8534   20958721.2844
       242.0004        210.0004
  20738946.5504  -10891723.51849  -8473635.78447  20738946.4564   20738951.6374
       243.0004        210.0004
  23016483.8354    1998894.34649   1563719.81946  23016483.7304   23016487.6504
       225.0004        182.0004
  24221079.7744   -2577579.37949  -1998041.68145  24221079.2064   24221087.5484
       209.0004        148.0004
  22414273.6844   10010833.60249   7768861.65046  22414273.8614   22414279.8754
       230.0004        180.0004
 05 10 27 19  8 30.0000000  0  9G28G11G29G 7G27G 8G19G10G13
  21152557.9284  -11718983.63549  -9122053.13947  21152557.5794   21152562.3994
       241.0004        207.0004
  24143604.8624   -3933005.42749  -3056514.37245  24143605.3404   24143612.0314
       202.0004        133.0004
  24142241.3834   -6597505.72749  -5129078.03145  24142241.9144   24142248.6494
       209.0004        151.0004
  23802892.3584   -2920827.73649  -2265416.95245  23802891.8414   23802900.4624
       211.0004        153.0004
  20958864.7274   -4313477.61149  -3356277.48147  20958864.7604   20958870.0714
       241.0004        210.0004
  20731981.4204  -10928325.38949  -8502156.72347  20731981.1384   20731986.8324
       243.0004        210.0004
  23029233.6734    2065895.16049   1615928.20646  23029233.2444   23029237.7674
       224.0004        181.0004
  24228429.8124   -2538955.10749  -1967944.89545  24228429.0384   24228438.2144
       209.0004        148.0004
  22433102.2964   10109778.44149   7845961.46346  22433103.0164   22433108.0574
       229.0004        180.0004
 05 10 27 19  9  0.0000000  0  9G28G11G29G 7G27G 8G19G10G13
  21147784.7204  -11744067.14849  -9141598.72247  21147784.7034   21147789.3344
       241.0004        208.0004
  24132984.9684   -3988813.04149  -3100000.70445  24132984.5324   24132992.2614
       203.0004        132.0004
  24124594.4174   -6690241.52449  -5201339.62845  24124594.2414   24124600.9534
       210.0004        150.0004
  23783181.8914   -3024406.14449  -2346127.25345  23783180.7574   23783190.1704
       212.0004        152.0004
  20959060.3354   -4312449.81149  -3355476.60947  20959060.3444   20959065.5944
       242.0004        210.0004
  20725056.1104  -10964718.05549  -8530514.63647  20725055.8724   20725061.5624
       243.0004        211.0004
  23042065.5874    2133327.03249   1668472.47746  23042065.3204   23042069.3004
       224.0004        180.0004
  24235852.0174   -2499951.35049  -1937552.41445  24235851.8994   24235860.0884
       209.0004        147.0004
  22451985.0244   10209007.78149   7923282.97046  22451985.5044   22451990.6384
       229.0004        179.0004
 05 10 27 19  9 30.0000000  0  9G28G11G29G 7G27G 8G19G10G13
  21143065.9174  -11768864.58549  -9160921.39047  21143065.8804   21143070.1594
       240.0004        208.0004
  24122398.8494   -4044443.54449  -3143349.03845  24122398.8014   24122404.0194
       203.0004        134.0004
  24106987.9794   -6782764.50949  -5273435.38345  24106988.5994   24106995.2384
       212.0004        152.0004
  23763491.1254   -3127881.05449  -2426756.91345  23763490.6884   23763499.2534
       212.0004        151.0004
  20959302.7094   -4311175.98049  -3354484.03147  20959302.7874   20959308.0964
       242.0004        210.0004
  20718170.8984  -11000900.22249  -8558708.53347  20718170.7794   20718176.1154
       243.0004        211.0004
  23054979.0954    2201187.57449   1721350.78346  23054978.4014   23054983.3324
       223.0004        180.0004
  24243345.9524   -2460570.74249  -1906866.27545  24243345.5414   24243354.5514
       209.0004        148.0004
  22470921.3974   10308519.09349   8000824.19046  22470921.8354   22470927.5524
       229.0004        179.0004
 05 10 27 19 10  0.0000000  0  9G28G11G29G 7G27G 8G19G10G13
  21138401.4214  -11793376.55249  -9180021.61347  21138401.2894   21138405.9544
       241.0004        208.0004
  24111846.8844   -4099893.79149  -3186556.94545  24111845.7174   24111852.7864
       204.0004        134.0004
  24089422.4634   -6875071.93949  -5345363.20145  24089423.0694   24089428.5704
       213.0004        152.0004
  23743820.6514   -3231249.66649  -2507303.74145  23743820.5254   23743829.2784
       212.0004        151.0004
  20959592.2514   -4309654.52949  -3353298.49947  20959592.1464   20959597.6864
       241.0004        210.0004
  20711326.0634  -11036870.04449  -8586736.95947  20711325.7084   20711331.6284
       243.0004        211.0004
  23067973.6274    2269474.36649   1774561.23446  23067973.4444   23067977.7884
       223.0004        179.0004
  24250911.2334   -2420815.08849  -1875887.87445  24250910.5644   24250919.1284
       208.0004        148.0004
  22489911.0224   10408309.87949   8078583.17846  22489911.6184   22489917.5934
       230.0004        179.0004
 05 10 27 19 10 30.0000000  0  9G28G11G29G 7G27G 8G19G10G13
  21133791.2014  -11817603.48449  -9198899.73947  21133791.0214   21133795.4654
       241.0004        208.0004
  24101329.8014   -4155160.70349  -3229621.99045  24101328.6674   24101336.1924
       207.0004        134.0004
  24071898.4024   -6967161.23449  -5417121.01745  24071898.0424   24071904.8644
       210.0004        153.0004
  23724170.8504   -3334509.74549  -2587766.00245  23724170.6284   23724179.0014
       211.0004        152.0004
  20959929.1704   -4307883.97749  -3351918.86147  20959929.2034   20959934.4184
       242.0004        210.0004
  20704521.8534  -11072626.48749  -8614599.12047  20704521.6184   20704527.2484
       243.0004        211.0004
  23081049.0344    2338185.88749   1828102.62446  23081048.3834   23081052.8174
       222.0004        178.0004
  24258547.3034   -2380686.78249  -1844619.12145  24258547.2974   24258555.0274
       210.0004        148.0004
  22508953.4224   10508377.86049   8156558.16646  22508954.2254   22508959.1974
       229.0004        178.0004
 05 10 27 19 11  0.0000000  0  9G28G11G29G 7G27G 8G19G10G13
  21129235.0594  -11841546.16449  -9217556.36947  21129234.9554   21129239.5234
       241.0004        208.0004
  24090848.2094   -4210241.84249  -3272542.30045  24090848.3134   24090855.8054
       203.0004        134.0004
  24054416.2894   -7059030.10349  -5488707.11745  24054415.8844   24054423.0994
       209.0004        153.0004
  23704542.0014   -3437659.02949  -2668141.93745  23704541.7474   23704550.5644
       211.0004        152.0004
  20960313.7184   -4305863.18849  -3350344.23647  20960313.6874   20960319.0574
       242.0004        210.0004
  20697758.3514  -11108168.64849  -8642294.30647  20697758.0604   20697763.7174
       243.0004        211.0004
  23094204.7764    2407319.28849   1881972.76346  23094204.2054   23094208.2684
       222.0004        177.0004
  24266253.9304   -2340188.39949  -1813061.97945  24266253.6424   24266261.3274
       209.0004        147.0004
  22528048.0314   10608720.13749   8234746.88946  22528048.5474   22528053.6684
       230.0004        178.0004
 05 10 27 19 11 30.0000000  0  9G28G11G29G 7G27G 8G19G10G13
  21124732.8004  -11865205.71749  -9235992.37347  21124732.5524   21124737.2084
       241.0004        208.0004
  24080402.4114   -4265134.21549  -3315315.49945  24080401.4754   24080410.4694
       206.0004        134.0004
  24036976.6224   -7150675.61349  -5560119.13645  24036976.7474   24036982.6754
       211.0004        153.0004
  23684934.8284   -3540694.67149  -2748429.33845  23684933.7024   23684943.4984
       211.0004        152.0004
  20960746.2354   -4303590.38949  -3348573.24247  20960746.3474   20960751.6854
       242.0004        210.0004
  20691036.0564  -11143494.32549  -8669820.80047  20691035.8444   20691041.4694
       243.0004        211.0004
  23107440.3274    2476872.80249   1936170.26646  23107439.9224   23107444.2794
       221.0004        176.0004
  24274030.6374   -2299322.23049  -1781218.26845  24274030.3184   24274038.6794
       208.0004        147.0004
  22547194.4344   10709334.85849   8313147.91546  22547195.4814   22547200.5634
       230.0004        177.0004
 05 10 27 19 12  0.0000000  0  9G28G11G29G 7G27G 8G19G10G13
  21120284.3034  -11888582.85349  -9254208.31947  21120284.2914   21120288.5404
       241.0004        208.0004
  24069992.9284   -4319835.87049  -3357940.11045  24069992.3814   24069997.6324
       207.0004        135.0004
  24019579.8254   -7242096.25449  -5631355.92845  24019579.9714   24019587.1194
       214.0004        154.0004
  23665349.5214   -3643615.40249  -2828627.17645  23665348.9504   23665358.2634
       210.0004        151.0004
  20961226.7404   -4301065.48449  -3346605.79647  20961226.7954   20961232.0224
       242.0004        210.0004
  20684355.0454  -11178603.30549  -8697178.43947  20684354.9094   20684360.5944
       243.0004        211.0004
  23120755.3214    2546843.40249   1990692.74946  23120754.5454   23120759.4854
       221.0004        175.0004
  24281876.5954   -2258091.42249  -1749090.42645  24281877.6264   24281885.0914
       212.0004        148.0004
  22566392.0734   10810218.42049   8391758.42346  22566392.2424   22566398.2334
       229.0004        177.0004
 05 10 27 19 12 30.0000000  0  9G28G11G29G 7G27G 8G19G10G13
  21115889.5104  -11911677.49449  -9272204.14147  21115889.3344   21115894.0774
       241.0004        208.0004
  24059620.6204   -4374342.43849  -3400412.70345  24059620.7014   24059627.6504
       209.0004        136.0004
  24002226.5324   -7333288.03249  -5702414.40245  24002226.5744   24002232.8864
       213.0004        152.0004
  23645786.8264   -3746417.20649  -2908732.35345  23645786.3234   23645795.5964
       212.0004        152.0004
  20961755.7024   -4298285.85249  -3344439.86647  20961755.6294   20961760.9764
       241.0004        210.0004
  20677715.9134  -11213492.23349  -8724364.61147  20677715.7954   20677721.3094
       243.0004        211.0004
  23134149.5484    2617230.42849   2045539.72946  23134149.1224   23134153.4244
       220.0004        174.0004
  24289791.8584   -2216496.90149  -1716679.15545  24289792.0274   24289800.9594
       209.0004        147.0004
  22585640.5644   10911369.87849   8470577.68146  22585641.7064   22585647.0034
       229.0004        176.0004
 05 10 27 19 13  0.0000000  0  9G28G11G29G 7G27G 8G19G10G13
  21111548.1614  -11934491.37349  -9289981.18147  21111548.1594   21111552.8734
       241.0004        208.0004
  24049285.7044   -4428652.73049  -3442732.34745  24049285.9864   24049293.4534
       209.0004        137.0004
  23984917.0704   -7424249.54149  -5773293.44245  23984916.3484   23984923.4914
       211.0004        154.0004
  23626247.1214   -3849099.08449  -2988744.10245  23626246.0604   23626255.8834
       211.0004        151.0004
  20962333.2434   -4295250.97149  -3342075.03547  20962333.2394   20962338.4154
       241.0004        210.0004
  20671118.6154  -11248161.13249  -8751379.33147  20671118.3834   20671124.1294
       243.0004        211.0004
  23147622.3714    2688030.20449   2100708.32446  23147622.6644   23147626.2324
       221.0004        174.0004
  24297775.5774   -2174542.55049  -1683987.49645  24297774.2114   24297783.7564
       210.0004        147.0004
  22604939.3754   11012785.42049   8549602.71646  22604940.5154   22604944.8684
       229.0004        176.0004
 05 10 27 19 13 30.0000000  0  9G28G11G29G 7G27G 8G19G10G13
  21107260.0864  -11957025.48049  -9307540.22247  21107259.9884   21107264.7414
       241.0004        209.0004
  24038988.6514   -4482763.59149  -3484896.59145  24038990.0634   24038994.7644
       210.0004        137.0004
  23967651.9094   -7514978.35049  -5843991.17345  23967652.0204   23967658.7064
       211.0004        154.0004
  23606730.5744   -3951658.39249  -3068660.32745  23606730.2314   23606738.3984
       211.0004        149.0004
  20962959.6034   -4291959.63249  -3339510.37347  20962959.5354   20962965.0044
       242.0004        210.0004
  20664563.4104  -11282608.84149  -8778221.69947  20664563.1214   20664568.8834
       243.0004        211.0004
  23161173.3634    2759240.53249   2156196.84246  23161173.0144   23161177.7044
       218.0004        173.0004
  24305827.3444   -2132230.61249  -1651017.19445  24305825.9174   24305835.2664
       205.0004        146.0004
  22624287.9644   11114462.53549   8628831.58646  22624288.7014   22624293.9884
       228.0004        175.0004
 05 10 27 19 14  0.0000000  0  9G28G11G29G 7G27G 8G19G10G13
  21103025.3154  -11979279.41349  -9324880.95047  21103025.1504   21103029.8284
       241.0004        209.0004
  24028730.2724   -4536671.41949  -3526902.61045  24028730.3264   24028737.7504
       209.0004        138.0004
  23950431.7164   -7605470.90749  -5914504.78345  23950432.6314   23950438.4844
       212.0004        154.0004
  23587238.0764   -4054091.94249  -3148478.56145  23587237.6954   23587246.6684
       211.0004        151.0004
  20963635.1144   -4288409.79649  -3336744.28247  20963634.9684   20963640.4924
       241.0004        210.0004
  20658050.7944  -11316832.89549  -8804889.79247  20658050.5194   20658056.1624
       243.0004        211.0004
  23174802.1284    2830860.20349   2212004.31446  23174802.0284   23174805.7654
       220.0004        172.0004
  24313946.6994   -2089562.86749  -1617769.65645  24313946.3954   24313954.8214
       208.0004        146.0004
  22643685.9704   11216399.63049   8708263.02246  22643686.1124   22643691.4604
       228.0004        175.0004
 05 10 27 19 14 30.0000000  0  9G28G11G29G 7G27G 8G19G10G13
  21098843.4434  -12001255.32249  -9342005.02947  21098843.4054   21098848.0114
       241.0004        209.0004
  24018510.8704   -4590374.68249  -3568749.24045  24018511.6304   24018517.3854
       210.0004        138.0004
  23933256.7654   -7695726.01849  -5984833.37045  23933256.9814   23933264.2934
       214.0004        154.0004
  23567769.6834   -4156398.61649  -3228197.92445  23567769.5634   23567778.2264
       212.0004        151.0004
  20964359.8114   -4284601.46249  -3333776.76747  20964359.8664   20964365.2104
       241.0004        210.0004
  20651580.7794  -11350833.03749  -8831383.40847  20651580.4884   20651586.1234
       243.0004        211.0004
  23188508.1254    2902885.62249   2268127.94746  23188507.8204   23188512.1494
       220.0004        171.0004
  24322133.2194   -2046542.84549  -1584247.60945  24322132.6784   24322140.5904
       206.0004        146.0004
  22663132.7794   11318593.07349   8787894.20846  22663133.4394   22663139.2794
       228.0004        174.0004
 05 10 27 19 15  0.0000000  0  9G28G11G29G 7G27G 8G19G10G13
  21094714.4624  -12022953.17449  -9358912.44247  21094714.4534   21094718.8704
       241.0004        209.0004
  24008331.1174   -4643869.68549  -3610433.61045  24008331.4284   24008338.0694
       211.0004        139.0004
  23916127.6924   -7785740.00649  -6054974.09045  23916127.1704   23916134.5224
       212.0004        153.0004
  23548326.0954   -4258575.01149  -3307815.79945  23548325.7134   23548334.1924
       213.0004        151.0004
  20965134.1304   -4280532.42549  -3330606.10447  20965134.1404   20965139.5734
       241.0004        210.0004
  20645153.8244  -11384606.88149  -8857700.68547  20645153.7174   20645159.1784
       243.0004        211.0004
  23202291.1494    2975315.56249   2324566.80446  23202290.8984   23202295.7044
       220.0004        171.0004
  24330386.3874   -2003172.20049  -1550452.34145  24330385.8444   24330395.0174
       207.0004        145.0004
  22682628.0464   11421041.18649   8867723.85246  22682628.2834   22682633.5064
       227.0004        173.0004
 05 10 27 19 15 30.0000000  0  9G28G11G29G 7G27G 8G19G10G13
  21090638.2544  -12044373.74149  -9375603.78347  21090638.1154   21090642.7674
       242.0004        209.0004
  23998191.2664   -4697154.49449  -3651954.16445  23998190.1694   23998197.2164
       210.0004        140.0004
  23899044.8224   -7875511.07549  -6124925.50445  23899044.0664   23899051.5344
       211.0004        153.0004
  23528907.6344   -4360619.26149  -3387330.67145  23528907.0774   23528916.1624
       214.0004        153.0004
  20965958.1874   -4276202.00349  -3327231.76247  20965958.0894   20965963.7444
       241.0004        210.0004
  20638770.0404  -11418153.85949  -8883841.17547  20638769.7274   20638775.2864
       243.0004        211.0004
  23216150.5454    3048147.12049   2381318.60946  23216150.0344   23216154.7904
       218.0004        171.0004
  24338705.6394   -1959453.91649  -1516386.21045  24338704.8154   24338712.2484
       207.0004        144.0004
  22702171.1164   11523740.74149   8947749.41446  22702171.8134   22702177.4414
       225.0004        172.0004
 05 10 27 19 16  0.0000000  0  9G28G11G29G 7G27G 8G19G10G13
  21086614.7204  -12065517.64049  -9392079.54747  21086614.4514   21086619.1244
       241.0004        209.0004
  23988092.1084   -4750225.55149  -3693308.17145  23988091.7804   23988098.0754
       212.0004        141.0004
  23882008.7134   -7965036.21649  -6194685.31045  23882008.9294   23882015.1994
       213.0004        153.0004
  23509514.8644   -4462528.52349  -3466740.36945  23509514.3124   23509522.2524
       213.0004        152.0004
  20966832.3824   -4271608.19249  -3323652.18847  20966832.3144   20966837.8294
       242.0004        210.0004
  20632429.8934  -11451471.48449  -8909802.95747  20632429.6264   20632435.2964
       244.0004        211.0004
  23230085.9474    3121378.32549   2438381.83146  23230085.4074   23230089.9744
       219.0004        170.0004
  24347090.8774   -1915389.88349  -1482050.65145  24347090.1604   24347098.3054
       208.0004        144.0004
  22721761.6704   11626689.68749   9027969.31246  22721762.3814   22721768.3244
       225.0004        172.0004
 05 10 27 19 16 30.0000000  0  9G28G11G29G 7G27G 8G19G10G13
  21082643.6014  -12086386.12549  -9408340.69647  21082643.4904   21082647.9324
       241.0004        209.0004
  23978034.0614   -4803080.52649  -3734493.79945  23978034.0724   23978040.6744
       213.0004        142.0004
  23865019.7874   -8054313.15649  -6264251.69445  23865019.6614   23865025.9464
       212.0004        153.0004
  23490148.1334   -4564300.83749  -3546043.34845  23490147.6594   23490156.4874
       215.0004        153.0004
  20967756.8444   -4266750.30449  -3319866.83847  20967756.8744   20967762.2344
       242.0004        210.0004
  20626133.4734  -11484559.27749  -8935585.65347  20626133.2354   20626138.8514
       244.0004        211.0004
  23244096.9344    3195006.65149   2495754.48346  23244096.2374   23244101.5524
       219.0004        171.0004
  24355541.1794   -1870983.24049  -1447448.11445  24355540.6504   24355549.2134
       206.0004        145.0004
  22741399.2144   11729885.41749   9108381.50046  22741400.8864   22741405.1104
       225.0004        171.0004
 05 10 27 19 17  0.0000000  0  9G28G11G29G 7G27G 8G19G10G13
  21078724.7974  -12106979.47449  -9424387.45247  21078724.5734   21078729.2094
       241.0004        209.0004
  23968017.9004   -4855716.18649  -3775508.54545  23968017.7974   23968025.0594
       211.0004        143.0004
  23848078.5924   -8143338.98249  -6333622.40045  23848078.0594   23848084.2384
       212.0004        153.0004
  23470807.9974   -4665933.31349  -3625237.34645  23470807.1784   23470815.7724
       216.0004        154.0004
  20968731.9074   -4261626.31049  -3315874.12647  20968731.9794   20968737.2944
       241.0004        210.0004
  20619881.2254  -11517415.18849  -8961187.65647  20619881.1234   20619886.7834
       244.0004        211.0004
  23258183.2834    3269030.28549   2553435.18346  23258182.6754   23258187.7704
       220.0004        171.0004
  24364056.3364   -1826235.96149  -1412580.14745  24364055.4154   24364063.8994
       206.0004        145.0004
  22761083.2904   11833325.58049   9188984.17546  22761083.4304   22761089.2194
       224.0004        171.0004
 05 10 27 19 17 30.0000000  0  9G28G11G29G 7G27G 8G19G10G13
  21074858.0764  -12127299.33049  -9440221.10547  21074858.0594   21074862.4544
       241.0004        209.0004
  23958043.6654   -4908130.79949  -3816351.01545  23958043.7914   23958049.8334
       212.0004        144.0004
  23831185.5284   -8232111.71649  -6402795.90845  23831185.2944   23831192.8684
       212.0004        153.0004
  23451494.9154   -4767424.28849  -3704321.11745  23451494.4884   23451503.0334
       215.0004        155.0004
  20969757.7304   -4256235.63949  -3311673.62147  20969757.8394   20969763.2404
       242.0004        209.0004
  20613673.2214  -11550038.47049  -8986608.39747  20613672.9914   20613678.7224
       244.0004        211.0004
  23272344.2434    3343446.17349   2611421.52746  23272344.3014   23272349.5494
       220.0004        171.0004
  24372635.6174   -1781151.20949  -1377449.21845  24372635.3264   24372644.2194
       208.0004        145.0004
  22780813.2254   11937006.99249   9269774.79946  22780814.4204   22780819.2914
       224.0004        170.0004
 05 10 27 19 18  0.0000000  0  9G28G11G29G 7G27G 8G19G10G13
  21071043.3864  -12147345.60249  -9455841.57147  21071043.2604   21071047.6364
       241.0004        209.0004
  23948112.1604   -4960320.82549  -3857018.49945  23948111.5774   23948118.1074
       212.0004        144.0004
  23814341.1884   -8320628.51449  -6471769.98845  23814341.4544   23814348.0754
       212.0004        152.0004
  23432209.2984   -4868770.89549  -3783292.37445  23432208.9894   23432217.5364
       215.0004        156.0004
  20970834.5914   -4250576.66849  -3307264.04547  20970834.6334   20970840.0514
       241.0004        209.0004
  20607509.9084  -11582426.74449  -9011846.01247  20607509.6184   20607515.3644
       244.0004        211.0004
  23286579.4904    3418252.32249   2669711.97646  23286579.0174   23286584.2294
       220.0004        171.0004
  24381278.7814   -1735731.20249  -1342057.05645  24381278.7624   24381288.5544
       208.0004        145.0004
  22800588.6784   12040927.55449   9350751.78946  22800589.7504   22800594.5854
       223.0004        169.0004
 05 10 27 19 18 30.0000000  0  9G28G11G29G 7G27G 8G19G10G13
  21067280.4404  -12167119.89949  -9471250.11647  21067280.2354   21067284.9434
       241.0004        209.0004
  23938223.7454   -5012284.36249  -3897509.50445  23938223.0734   23938229.8854
       212.0004        144.0004
  23797546.0684   -8408887.25449  -6540542.97945  23797545.4624   23797552.6584
       211.0004        153.0004
  23412951.3954   -4969971.32849  -3862149.71145  23412950.5024   23412959.3254
       216.0004        156.0004
  20971962.5814   -4244648.97349  -3302645.08047  20971962.6024   20971967.9394
       241.0004        209.0004
  20601391.4604  -11614579.35649  -9036899.99547  20601391.2444   20601397.0614
       244.0004        211.0004
  23300888.4964    3493446.22049   2728304.56746  23300887.7214   23300892.7714
       221.0004        171.0004
  24389985.2104   -1689978.97049  -1306406.01945  24389984.5554   24389993.0884
       208.0004        145.0004
  22820409.1134   12145084.26449   9431912.79746  22820409.9594   22820416.1454
       224.0004        170.0004
 05 10 27 19 19  0.0000000  0  9G28G11G29G 7G27G 8G19G10G13
  21063569.1444  -12186622.92649  -9486447.27347  21063568.9254   21063573.5874
       241.0004        209.0004
  23928379.0974   -5064018.22849  -3937821.54845  23928378.8784   23928385.8874
       213.0004        146.0004
  23780800.6494   -8496885.15449  -6609112.71545  23780800.6144   23780808.1464
       212.0004        153.0004
  23393721.7954   -5071022.91549  -3940891.07845  23393720.8544   23393729.7294
       218.0004        158.0004
  20973142.0744   -4238450.85349  -3297815.39147  20973142.1064   20973147.4864
       241.0004        209.0004
  20595318.1874  -11646494.56749  -9061768.99247  20595318.0184   20595323.7614
       244.0004        212.0004
  23315270.8794    3569025.51749   2787197.48346  23315270.4744   23315274.5234
       219.0004        172.0004
  24398754.4224   -1643897.03749  -1270498.07445  24398753.6044   24398762.6394
       204.0004        145.0004
  22840274.0194   12249474.85649   9513256.04846  22840275.3764   22840279.6124
       224.0004        170.0004
 05 10 27 19 19 30.0000000  0  9G28G11G29G 7G27G 8G19G10G13
  21059909.4954  -12205854.61749  -9501432.99547  21059909.2984   21059913.8514
       241.0004        209.0004
  23918578.7514   -5115519.26549  -3977952.16945  23918578.8724   23918585.5854
       213.0004        146.0004
  23764105.3384   -8584619.40549  -6677477.00845  23764105.5624   23764111.9824
       211.0004        153.0004
  23374521.0774   -5171923.03249  -4019514.42445  23374520.5864   23374528.4764
       216.0004        158.0004
  20974373.3614   -4231980.63649  -3292773.68047  20974373.2944   20974378.6274
       241.0004        209.0004
  20589290.4324  -11678170.75549  -9086451.73247  20589290.0614   20589296.0044
       244.0004        212.0004
  23329726.1184    3644988.06849   2846389.03246  23329725.9874   23329730.4364
       222.0004        172.0004
  24407585.9094   -1597487.25349  -1234334.65645  24407585.6104   24407594.6044
       207.0004        145.0004
  22860182.9504   12354096.56849   9594779.38546  22860183.5144   22860188.7864
       224.0004        169.0004
 05 10 27 19 20  0.0000000  0  9G28G11G29G 7G27G 8G19G10G13
  21056301.1404  -12224816.55449  -9516208.52447  21056300.9964   21056305.5344
       241.0004        209.0004
  23908823.1134   -5166785.03949  -4017899.45845  23908823.2964   23908829.9834
       213.0004        147.0004
  23747460.7034   -8672087.71549  -6745634.07445  23747460.8454   23747467.2174
       212.0004        153.0004
  23355349.5324   -5272669.43649  -4098017.99045  23355349.9084   23355357.4534
       218.0004        159.0004
  20975656.5454   -4225237.50549  -3287519.31147  20975656.4354   20975662.1384
       241.0004        209.0004
  20583308.3984  -11709606.54449  -9110947.15247  20583308.1824   20583313.9414
       244.0004        212.0004
  23344253.8174    3721331.45949   2905877.34546  23344252.8804   23344258.0314
       221.0004        172.0004
  24416479.3354   -1550752.71449  -1197918.18345  24416479.5534   24416486.8704
       207.0004        145.0004
  22880135.3594   12458946.80949   9676480.79646  22880135.6324   22880140.9244
       225.0004        169.0004
 05 10 27 19 20 30.0000000  0  9G28G11G29G 7G27G 8G19G10G13
  21052743.9054  -12243509.95849  -9530774.80547  21052743.7494   21052748.4364
       241.0004        209.0004
  23899112.7794   -5217813.26049  -4057661.63045  23899112.9284   23899119.0594
       212.0004        148.0004
  23730867.0214   -8759287.92949  -6813582.24645  23730867.0034   23730873.8924
       213.0004        153.0004
  23336207.7374   -5373260.23049  -4176400.30545  23336207.5004   23336215.9614
       217.0004        161.0004
  20976991.8594   -4218220.25649  -3282051.33947  20976991.8914   20976997.3634
       241.0004        209.0004
  20577372.3754  -11740800.70449  -9135254.28947  20577372.2024   20577377.7394
       244.0004        212.0004
  23358853.3204    3798052.75749   2965660.13546  23358853.2224   23358857.7214
       222.0004        172.0004
  24425433.8554   -1503696.26849  -1161250.87745  24425433.9044   24425441.9344
       207.0004        144.0004
  22900130.7324   12564022.82149   9758358.13146  22900131.4594   22900137.7984
       224.0004        169.0004
 05 10 27 19 21  0.0000000  0  9G28G11G29G 7G27G 8G19G10G13
  21049237.7914  -12261934.71749  -9545131.75947  21049237.8564   21049242.2684
       241.0004        209.0004
  23889448.2454   -5268600.44849  -4097236.01545  23889448.1294   23889454.1144
       214.0004        147.0004
  23714325.0624   -8846216.65049  -6881318.85045  23714325.4744   23714331.7104
       213.0004        154.0004
  23317095.9994   -5473692.24949  -4254658.89745  23317095.3414   23317103.4104
       216.0004        161.0004
  20978379.7964   -4210926.72249  -3276368.08547  20978379.9304   20978385.3784
       241.0004        209.0004
  20571482.6974  -11771751.28049  -9159371.62247  20571482.3894   20571488.1334
       245.0004        212.0004
  23373524.6424    3875150.76249   3025736.46246  23373523.8364   23373528.7714
       222.0004        172.0004
  24434449.3414   -1456319.94149  -1124334.30945  24434448.7234   24434458.0574
       207.0004        144.0004
  22920168.7054   12669323.01149   9840410.15746  22920169.6774   22920175.5604
       224.0004        169.0004
 05 10 27 19 21 30.0000000  0  9G28G11G29G 7G27G 8G19G10G13
  21045782.4824  -12280092.51049  -9559280.67547  21045782.4184   21045787.0114
       241.0004        209.0004
  23879829.8694   -5319145.03049  -4136621.32445  23879829.0784   23879836.6054
       213.0004        148.0004
  23697834.9714   -8932872.46249  -6948842.81545  23697835.6304   23697841.5284
       213.0004        155.0004
  23298014.8144   -5573964.10149  -4332792.69445  23298014.6304   23298022.2634
       217.0004        162.0004
  20979820.3304   -4203356.89749  -3270469.53247  20979820.4334   20979825.7874
       242.0004        209.0004
  20565639.5434  -11802457.39149  -9183298.45847  20565639.3144   20565644.8954
       245.0004        212.0004
  23388266.9564    3952621.54149   3086103.27246  23388266.5204   23388271.4864
       223.0004        173.0004
  24443524.9754   -1408627.39249  -1087171.35145  24443524.4604   24443533.3004
       207.0004        144.0004
  22940248.6554   12774843.39049   9922633.76346  22940249.2064   22940255.3534
       224.0004        168.0004
 05 10 27 19 22  0.0000000  0 10G28G11G29G 7G27G 8G19G10G26G13
  21042377.8094  -12297984.06149  -9573222.13647  21042377.7054   21042382.1324
       241.0004        209.0004
  23870258.2484   -5369443.83249  -4175815.13245  23870257.6644   23870264.8604
       213.0004        149.0004
  23681397.3524   -9019252.55149  -7016151.92945  23681397.3204   23681404.0584
       213.0004        155.0004
  23278964.6264   -5674073.26549  -4410799.72145  23278963.5994   23278972.1414
       217.0004        162.0004
  20981313.7304   -4195509.16649  -3264354.42747  20981313.6394   20981318.9494
       241.0004        209.0004
  20559843.1914  -11832917.63349  -9207033.71047  20559843.1274   20559848.4854
       245.0004        212.0004
  23403079.6654    4030463.03549   3146758.95946  23403079.2954   23403084.0694
       222.0004        173.0004
  24452660.2814   -1360620.69649  -1049763.58445  24452660.5454   24452668.3894
       207.0004        145.0004
  24366164.6454   -1849789.59949  -1427577.13145  24366164.8754   24366172.6254
       203.0004        137.0004
  22960370.1364   12880581.88549  10005027.31146  22960370.8264   22960376.0414
       223.0004        167.0004
 05 10 27 19 22 30.0000000  0 10G28G11G29G 7G27G 8G19G10G26G13
  21039023.3674  -12315611.87549  -9586958.08847  21039023.2974   21039027.7634
       241.0004        209.0004
  23860733.7334   -5419495.63349  -4214816.46845  23860732.3294   23860740.3074
       214.0004        149.0004
  23665012.2634   -9105356.08749  -7083245.53145  23665012.5534   23665018.7804
       214.0004        156.0004
  23259945.5624   -5774018.97449  -4488679.40245  23259944.8854   23259953.1184
       217.0004        162.0004
  20982859.9554   -4187383.82949  -3258023.00847  20982859.9384   20982865.3774
       241.0004        209.0004
  20554093.5214  -11863132.22649  -9230577.54647  20554093.3474   20554098.9934
       244.0004        212.0004
  23417962.3234    4108671.65649   3207700.70646  23417962.1624   23417966.3984
       222.0004        173.0004
  24461854.7494   -1312304.31349  -1012114.48945  24461853.8914   24461862.4874
       207.0004        145.0004
  24347459.7274   -1948084.61749  -1504170.62445  24347460.0144   24347467.2464
       204.0004        138.0004
  22980532.1804   12986533.94549  10087587.27646  22980532.8584   22980538.0444
       224.0004        167.0004
 05 10 27 19 23  0.0000000  0 10G28G11G29G 7G27G 8G19G10G26G13
  21035719.5414  -12332973.43649  -9600486.56647  21035719.5544   21035723.8874
       241.0004        210.0004
  23851257.1304   -5469294.76749  -4253620.91245  23851256.8784   23851263.7574
       214.0004        150.0004
  23648680.9514   -9191177.18249  -7150119.06545  23648681.4784   23648687.0804
       213.0004        156.0004
  23240958.6514   -5873795.52149  -4566427.26046  23240958.1294   23240965.9264
       217.0004        163.0004
  20984459.7614   -4178976.71849  -3251472.02447  20984459.7514   20984465.2604
       241.0004        208.0004
  20548391.4854  -11893096.55549  -9253926.37347  20548391.1754   20548396.7454
       245.0004        212.0004
  23432914.9504    4187247.98449   3268928.98746  23432914.2214   23432919.0834
       222.0004        173.0004
  24471108.2174   -1263677.64649   -974223.63245  24471107.1354   24471116.7794
       204.0004        145.0004
  24328801.2124   -2046134.91849  -1580573.39345  24328801.7414   24328808.3724
       204.0004        136.0004
  23000735.0704   13092700.46449  10170314.35646  23000735.6924   23000740.3244
       223.0004        166.0004
 05 10 27 19 23 30.0000000  0 10G28G11G29G 7G27G 8G19G10G26G13
  21032466.1084  -12350070.26849  -9613808.76647  21032466.0874   21032470.4534
       241.0004        210.0004
  23841829.0704   -5518839.42849  -4292227.05945  23841829.7554   23841836.0194
       214.0004        150.0004
  23632403.6614   -9276713.96949  -7216771.06545  23632403.8574   23632410.1114
       214.0004        157.0004
  23222004.1654   -5973401.34149  -4644042.10145  23222003.0624   23222011.2454
       217.0004        162.0004
  20986113.3494   -4170287.11349  -3244700.91547  20986113.3464   20986118.6804
       240.0004        208.0004
  20542737.3364  -11922809.17449  -9277079.06447  20542737.1194   20542742.7994
       244.0004        212.0004
  23447936.9304    4266188.95749   3330441.41446  23447936.1324   23447941.5784
       222.0004        172.0004
  24480420.0854   -1214744.00349   -936093.57545  24480420.3084   24480427.8804
       208.0004        145.0004
  24310189.7954   -2143938.44849  -1656783.88445  24310190.4754   24310197.2534
       204.0004        136.0004
  23020978.1584   13199077.98049  10253205.86746  23020978.0094   23020984.3934
       223.0004        166.0004
 05 10 27 19 24  0.0000000  0 10G28G11G29G 7G27G 8G19G10G26G13
  21029262.7934  -12366903.83549  -9626925.82147  21029262.8344   21029267.3374
       241.0004        210.0004
  23832449.7794   -5568127.51249  -4330633.26745  23832450.0284   23832456.3274
       215.0004        151.0004
  23616181.0984   -9361964.56649  -7283200.06245  23616181.0084   23616187.0634
       215.0004        157.0004
  23203082.4984   -6072834.81849  -4721522.63945  23203082.3204   23203090.7444
       216.0004        162.0004
  20987820.7814   -4161314.40049  -3237709.20047  20987820.6944   20987826.5024
       241.0004        208.0004
  20537131.2004  -11952269.53649  -9300035.19047  20537131.0004   20537136.7664
       245.0004        212.0004
  23463027.7194    4345491.38849   3392235.49546  23463027.0844   23463031.8794
       222.0004        172.0004
  24489789.6384   -1165506.84549   -897727.01545  24489790.1114   24489797.3664
       209.0004        145.0004
  24291625.6774   -2241493.18249  -1732800.47745  24291625.1384   24291634.9544
       203.0004        138.0004
  23041260.7054   13305663.32649  10336259.27246  23041261.8764   23041266.8074
       221.0004        165.0004
 05 10 27 19 24 30.0000000  0 10G28G11G29G 7G27G 8G19G10G26G13
  21026109.4954  -12383474.43549  -9639837.97047  21026109.2274   21026113.8834
       241.0004        210.0004
  23823120.0424   -5617155.61049  -4368836.88845  23823119.2584   23823127.4204
       214.0004        151.0004
  23600013.4784   -9446926.07349  -7349403.77845  23600013.4114   23600020.3664
       216.0004        157.0004
  23184194.2374   -6172092.89449  -4798866.48546  23184193.8374   23184202.0014
       217.0004        163.0004
  20989582.4694   -4152056.71949  -3230495.43347  20989582.4544   20989587.9244
       241.0004        208.0004
  20531573.4404  -11981475.69049  -9322793.22947  20531573.1784   20531579.0114
       245.0004        212.0004
  23478186.9364    4425153.51749   3454309.85946  23478186.7204   23478191.2904
       221.0004        172.0004
  24499216.5624   -1115968.13449   -859125.47745  24499215.9464   24499225.3124
       207.0004        144.0004
  24273109.6454   -2338795.60749  -1808620.50145  24273110.1364   24273116.8654
       205.0004        139.0004
  23061582.4654   13412454.47849  10419473.09446  23061583.5184   23061588.7974
       220.0004        165.0004
 05 10 27 19 25  0.0000000  0 10G28G11G29G 7G27G 8G19G10G26G13
  21023005.8994  -12399783.89749  -9652546.63747  21023005.7164   21023010.3454
       241.0004        210.0004
  23813840.0554   -5665921.63649  -4406836.29345  23813839.6924   23813845.6714
       214.0004        152.0004
  23583901.3164   -9531596.65449  -7415380.81345  23583901.4254   23583907.3554
       215.0004        158.0004
  23165339.6604   -6271173.99949  -4876072.45945  23165338.8404   23165346.7374
       217.0004        162.0004
  20991398.4184   -4142513.93149  -3223059.50447  20991398.2374   20991403.9784
       241.0004        208.0004
  20526064.2704  -12010426.67049  -9345352.43047  20526063.9524   20526069.7254
       245.0004        212.0004
  23493414.0454    4505172.07549   3516661.96446  23493413.6584   23493418.1334
       220.0004        171.0004
  24508700.2334   -1066131.32349   -820291.64345  24508699.4604   24508708.1124
       208.0004        143.0004
  24254641.9064   -2435843.81149  -1884242.39745  24254641.9314   24254649.5164
       205.0004        139.0004
  23081942.6414   13519448.22549  10502844.73646  23081943.3534   23081949.3864
       221.0004        165.0004
 05 10 27 19 25 30.0000000  0 10G28G11G29G 7G27G 8G19G10G26G13
  21019951.8834  -12415832.79649  -9665052.26347  21019951.5804   21019956.3344
       241.0004        210.0004
  23804610.5194   -5714422.99949  -4444629.47245  23804610.1314   23804615.7214
       214.0004        152.0004
  23567844.8504   -9615973.62649  -7481129.05045  23567845.1104   23567851.3574
       217.0004        159.0004
  23146519.2124   -6370075.83949  -4953138.75146  23146519.4284   23146526.2704
       218.0004        163.0004
  20993268.8714   -4132684.51249  -3215400.22647  20993268.8524   20993274.4074
       241.0004        208.0004
  20520603.9314  -12039120.95849  -9367711.60847  20520603.7124   20520609.1874
       245.0004        212.0004
  23508708.4394    4585544.93349   3579290.15346  23508708.1104   23508712.7234
       220.0004        171.0004
  24518240.0914   -1015998.94349   -781227.50045  24518239.4864   24518248.9294
       206.0004        143.0004
  24236223.1934   -2532634.89949  -1959663.96345  24236224.0914   24236231.2874
       206.0004        138.0004
  23102341.0574   13626642.05849  10586372.32446  23102341.2924   23102346.9934
       221.0004        164.0004
 05 10 27 19 26  0.0000000  0 10G28G11G29G 7G27G 8G19G10G26G13
  21016947.2704  -12431622.38549  -9677355.83047  21016947.0904   21016951.7034
       241.0004        210.0004
  23795431.6914   -5762657.40349  -4482214.62845  23795431.1164   23795438.6424
       214.0004        152.0004
  23551844.7804   -9700054.77249  -7546646.77745  23551844.4674   23551851.0744
       217.0004        160.0004
  23127733.2484   -6468796.34549  -5030063.72746  23127732.3344   23127741.3094
       217.0004        163.0004
  20995194.1464   -4122567.32849  -3207516.71347  20995194.0004   20995199.5844
       241.0004        208.0004
  20515192.6934  -12067557.23349  -9389869.73947  20515192.3084   20515197.9854
       244.0004        212.0004
  23524069.7824    4666269.10449   3642192.08746  23524069.6554   23524074.1134
       222.0004        170.0004
  24527835.6464    -965573.94249   -741935.35945  24527835.8134   24527843.3294
       207.0004        142.0004
  24217853.8504   -2629166.41949  -2034883.27345  24217854.1884   24217862.0854
       205.0004        141.0004
  23122776.8764   13734032.64349  10670053.20246  23122777.0654   23122783.7914
       222.0004        165.0004
 05 10 27 19 26 30.0000000  0 10G28G11G29G 7G27G 8G19G10G26G13
  21013991.9904  -12447152.37249  -9689457.11547  21013991.9764   21013996.4664
       242.0004        210.0004
  23786304.3924   -5810621.29749  -4519589.00245  23786304.1444   23786310.4564
       216.0004        152.0004
  23535901.5034   -9783836.50549  -7611931.20645  23535901.5344   23535908.0664
       215.0004        160.0004
  23108982.4374   -6567331.98949  -5106844.68346  23108982.1754   23108989.6424
       218.0004        163.0004
  20997174.5204   -4112160.38349  -3199407.41947  20997174.4894   20997179.9964
       241.0004        208.0004
  20509830.9654  -12095733.38549  -9411825.18047  20509830.8204   20509836.2574
       245.0004        212.0004
  23539497.7074    4747343.05049   3705366.57946  23539496.4964   23539501.9274
       219.0004        169.0004
  24537486.5964    -914857.93949   -702416.45245  24537487.0014   24537494.4134
       207.0004        142.0004
  24199534.5524   -2725434.33849  -2109897.16345  24199533.7814   24199543.0904
       207.0004        140.0004
  23143249.8674   13841618.68549  10753886.39446  23143250.3114   23143256.1814
       221.0004        164.0004
 05 10 27 19 27  0.0000000  0 10G28G11G29G 7G27G 8G19G10G26G13
  21011085.8554  -12462424.22249  -9701357.25647  21011085.7884   21011090.2744
       242.0004        210.0004
  23777229.0314   -5858312.56249  -4556750.94145  23777229.1574   23777235.0814
       215.0004        153.0004
  23520015.5134   -9867317.20449  -7676981.05245  23520015.9524   23520021.9714
       217.0004        160.0004
  23090267.0884   -6665681.20249  -5183480.35046  23090266.4014   23090274.7864
       216.0004        163.0004
  20999210.1294   -4101463.11849  -3191071.89547  20999210.1094   20999215.4464
       241.0004        208.0004
  20504519.0024  -12123647.94349  -9433576.78147  20504518.8574   20504524.1514
       245.0004        212.0004
  23554991.6144    4828763.79949   3768811.29346  23554991.0294   23554995.9864
       220.0004        169.0004
  24547192.2744    -863854.61449   -662673.64845  24547191.3134   24547200.3604
       205.0004        142.0004
  24181265.9314   -2821436.73949  -2184704.12345  24181267.0074   24181273.8134
       205.0004        141.0004
  23163759.3674   13949396.77349  10837869.23446  23163760.3124   23163766.5944
       222.0004        164.0004
 05 10 27 19 27 30.0000000  0 10G28G11G29G 7G27G 8G19G10G26G13
  21008228.6484  -12477439.06049  -9713057.12247  21008228.6764   21008232.8754
       242.0004        210.0004
  23768206.0344   -5905728.87049  -4593698.65545  23768205.2844   23768212.0034
       214.0004        153.0004
  23504187.2414   -9950494.43949  -7741794.43845  23504187.6894   23504193.9584
       216.0004        161.0004
  23071587.5894   -6763842.02049  -5259969.21446  23071587.2034   23071595.0444
       217.0004        163.0004
  21001301.1794   -4090474.64849  -3182509.46247  21001301.2824   21001306.8314
       241.0004        208.0004
  20499256.9824  -12151300.06049  -9455123.88247  20499256.8704   20499262.3424
       245.0004        212.0004
  23570550.9024    4910528.71149   3832524.19946  23570549.8384   23570554.9314
       218.0004        168.0004
  24556952.1244    -812566.95349   -622709.28945  24556950.7874   24556961.4414
       205.0004        142.0004
  24163048.2484   -2917171.03449  -2259302.20745  24163048.9194   24163057.0784
       209.0004        140.0004
  23184304.8254   14057363.99849  10921999.43446  23184305.7194   23184310.8734
       221.0004        164.0004
 05 10 27 19 28  0.0000000  0 10G28G11G29G 7G27G 8G19G10G26G13
  21005420.2104  -12492197.55449  -9724557.24347  21005420.1004   21005424.4904
       241.0004        210.0004
  23759235.8254   -5952867.13649  -4630429.70645  23759236.2434   23759241.3254
       214.0004        153.0004
  23488417.4274  -10033365.29349  -7806369.07445  23488417.5574   23488424.2254
       218.0004        161.0004
  23052944.5454   -6861811.73149  -5336309.18146  23052943.5294   23052951.7724
       219.0004        163.0004
  21003447.9444   -4079193.30449  -3173718.81747  21003448.0354   21003453.5114
       241.0004        208.0004
  20494045.2524  -12178687.95349  -9476465.10247  20494045.1284   20494050.6374
       245.0004        212.0004
  23586175.1444    4992635.18649   3896503.24946  23586174.4514   23586179.4254
       218.0004        168.0004
  24566765.5004    -760997.39749   -582525.28445  24566764.5534   24566774.5034
       203.0004        141.0004
  24144882.1914   -3012634.01549  -2333688.87745  24144881.8264   24144890.5574
       207.0004        141.0004
  23204886.0084   14165518.13549  11006275.31046  23204887.2214   23204892.5734
       222.0004        165.0004
 05 10 27 19 28 30.0000000  0 10G28G11G29G 7G27G 8G19G10G26G13
  21002660.3164  -12506700.79649  -9735858.46847  21002660.2114   21002664.6014
       241.0004        210.0004
  23750318.9174   -5999724.94949  -4666942.21645  23750318.8864   23750325.3654
       215.0004        153.0004
  23472706.3344  -10115927.55549  -7870703.25945  23472706.2444   23472712.7624
       218.0004        161.0004
  23034338.2514   -6959588.08149  -5412498.46746  23034337.4204   23034345.2094
       218.0004        164.0004
  21005650.7034   -4067617.72349  -3164698.89447  21005650.7014   21005656.2594
       240.0004        208.0004
  20488884.1074  -12205809.98849  -9497599.15547  20488883.6914   20488889.4124
       245.0004        212.0004
  23601864.1154    5075081.40649   3960747.04046  23601863.9704   23601867.4954
       218.0004        167.0004
  24576632.0754    -709148.66349   -542123.72345  24576631.2624   24576640.2394
       204.0004        141.0004
  24126768.1924   -3107823.11149  -2407862.11945  24126767.3174   24126775.5474
       209.0004        142.0004
  23225502.2094   14273856.62249  11090694.80746  23225502.7194   23225508.6284
       221.0004        165.0004
 05 10 27 19 29  0.0000000  0 10G28G11G29G 7G27G 8G19G10G26G13
  20999948.7764  -12520949.78949  -9746961.57347  20999948.7384   20999953.1614
       241.0004        210.0004
  23741455.9974   -6046299.78749  -4703234.26145  23741456.2124   23741462.5194
       214.0004        153.0004
  23457054.4054  -10198178.87349  -7934795.14445  23457054.1394   23457061.1134
       218.0004        162.0004
  23015769.1524   -7057168.95349  -5488535.44446  23015768.7554   23015775.8954
       218.0004        163.0004
  21007909.6504   -4055746.90749  -3155448.92547  21007909.5774   21007915.3364
       240.0004        208.0004
  20483773.7624  -12232664.99049  -9518525.13147  20483773.4894   20483779.1784
       245.0004        212.0004
  23617617.2534    5157864.40849   4025253.24746  23617617.0144   23617621.7614
       214.0004        166.0004
  24586551.1514    -657023.64149   -501506.89345  24586550.4354   24586558.1484
       206.0004        141.0004
  24108706.9004   -3202735.65649  -2481819.87745  24108707.6994   24108714.1004
       210.0004        142.0004
  23246152.9344   14382376.52949  11175255.68046  23246153.3234   23246159.3784
       219.0004        164.0004
 05 10 27 19 29 30.0000000  0 10G28G11G29G 7G27G 8G19G10G26G13
  20997285.4634  -12534945.56149  -9757867.35647  20997285.2924   20997289.7654
       241.0004        210.0004
  23732647.2664   -6092589.49549  -4739304.12045  23732647.1104   23732653.7524
       215.0004        154.0004
  23441462.0464  -10280117.11249  -7998643.08945  23441462.0834   23441468.6644
       218.0004        162.0004
  22997237.6684   -7154552.34049  -5564418.51946  22997237.4744   22997245.4264
       219.0004        165.0004
  21010224.8234   -4043580.62249  -3145968.71247  21010224.8444   21010230.1704
       240.0004        208.0004
  20478714.4654  -12259251.59949  -9539241.96847  20478714.2814   20478719.7784
       245.0004        212.0004
  23633433.8804    5240981.51249   4090019.79146  23633433.6144   23633438.0124
       215.0004        166.0004
  24596522.2224    -604625.49849   -460677.22945  24596522.9714   24596531.1354
       206.0004        141.0004
  24090698.8694   -3297369.07449  -2555560.11145  24090699.1064   24090705.4604
       207.0004        142.0004
  23266837.6454   14491075.00149  11259955.70046  23266838.5834   23266843.4554
       220.0004        163.0004
 05 10 27 19 30  0.0000000  0 10G28G11G29G 7G27G 8G19G10G26G13
  20994670.2794  -12548688.39649  -9768576.05347  20994669.9624   20994674.6044
       241.0004        210.0004
  23723893.4734   -6138590.84749  -4775149.29645  23723892.7214   23723899.5864
       215.0004        154.0004
  23425929.9984  -10361739.00649  -8062244.52346  23425929.2074   23425936.4494
       218.0004        163.0004
  22978744.3024   -7251735.50749  -5640145.60246  22978743.9374   22978751.8064
       219.0004        164.0004
  21012596.6094   -4031116.91249  -3136256.74547  21012596.4124   21012601.9854
       240.0004        208.0004
  20473706.6964  -12285567.58249  -9559747.93247  20473706.4584   20473712.0074
       245.0004        212.0004
  23649313.5934    5324430.19849   4155044.71246  23649312.6024   23649318.4674
       213.0004        165.0004
  24606544.9314    -551956.31349   -419636.35845  24606544.6444   24606553.6254
       205.0004        142.0004
  24072744.3854   -3391720.04749  -2629080.26645  24072745.6154   24072752.0974
       211.0004        143.0004
  23287555.8074   14599949.83049  11344793.12345  23287556.9704   23287562.4364
       218.0004        162.0004
 05 10 27 19 30 30.0000000  0 10G28G11G29G 7G27G 8G19G10G26G13
  20992102.9894  -12562179.47649  -9779088.57947  20992102.8104   20992107.2414
       242.0004        210.0004
  23715194.9624   -6184301.37149  -4810767.86545  23715194.5124   23715201.0254
       215.0004        154.0004
  23410458.4724  -10443042.52849  -8125597.88046  23410458.0274   23410464.7734
       219.0004        164.0004
  22960289.4174   -7348716.09749  -5715714.82846  22960288.9834   22960296.8084
       220.0004        165.0004
  21015025.2454   -4018354.46949  -3126311.99547  21015025.0614   21015030.8324
       240.0004        207.0004
  20468750.6844  -12311611.67849  -9580042.03448  20468750.4694   20468756.0784
       245.0004        213.0004
  23665256.0374    5408208.13749   4220326.18946  23665255.5944   23665260.4294
       214.0004        164.0004
  24616618.4854    -499019.07249   -378386.63145  24616618.3004   24616626.2194
       206.0004        141.0004
  24054844.0984   -3485786.11249  -2702378.43745  24054844.0184   24054851.3704
       208.0004        142.0004
  23308306.9994   14708998.13649  11429765.73645  23308308.1244   23308314.0014
       219.0004        161.0004
 05 10 27 19 31  0.0000000  0 10G28G11G29G 7G27G 8G19G10G26G13
  20989583.4814  -12575419.55949  -9789405.51847  20989583.3244   20989587.8044
       241.0004        210.0004
  23706552.4724   -6229718.47449  -4846157.80245  23706551.8264   23706559.1464
       214.0004        155.0004
  23395048.0674  -10524024.94149  -8188701.01946  23395048.2454   23395053.8064
       219.0004        164.0004
  22941873.5574   -7445491.93649  -5791124.49446  22941872.9124   22941880.6314
       220.0004        166.0004
  21017510.8634   -4005292.39149  -3116133.77147  21017510.8504   21017516.3804
       240.0004        207.0004
  20463846.6334  -12337382.63049  -9600123.29148  20463846.2544   20463851.9774
       245.0004        213.0004
  23681260.7874    5492313.38749   4285862.70746  23681260.3754   23681265.3224
       215.0004        164.0004
  24626742.6984    -445816.51649   -336930.14145  24626742.9214   24626750.0594
       207.0004        142.0004
  24036998.7754   -3579564.17749  -2775452.15245  24036999.2324   24037007.1194
       209.0004        145.0004
  23329090.8374   14818217.33649  11514871.50845  23329091.3564   23329097.4054
       218.0004        161.0004
 05 10 27 19 31 30.0000000  0 10G28G11G29G 7G27G 8G19G10G26G13
  20987111.4934  -12588409.86149  -9799527.83147  20987111.2954   20987115.8524
       241.0004        210.0004
  23697966.0714   -6274839.94549  -4881317.37445  23697965.9504   23697972.2214
       213.0004        154.0004
  23379699.0914  -10604684.13449  -8251552.31046  23379699.2614   23379705.4894
       218.0004        164.0004
  22923496.9954   -7542061.10249  -5866373.14646  22923497.0134   22923504.6694
       221.0004        166.0004
  21020053.7044   -3991929.69449  -3105721.29547  21020053.7804   21020059.1814
       240.0004        207.0004
  20458994.7874  -12362879.21549  -9619990.75948  20458994.5634   20459000.1314
       245.0004        213.0004
  23697327.1864    5576742.54649   4351651.61446  23697327.1524   23697331.9894
       217.0004        164.0004
  24636916.7534    -392351.60449   -295269.22145  24636917.0074   24636925.9924
       208.0004        142.0004
  24019208.5284   -3673051.88049  -2848299.63245  24019208.3184   24019215.0424
       209.0004        145.0004
  23349906.5884   14927604.56749  11600108.21345  23349907.9854   23349912.7724
       218.0004        159.0004
 05 10 27 19 32  0.0000000  0 10G28G11G29G 7G27G 8G19G10G26G13
  20984686.9344  -12601150.88949  -9809455.90447  20984686.9044   20984691.4384
       241.0004        210.0004
  23689436.5164   -6319662.92549  -4916244.35545  23689436.1054   23689442.8024
       214.0004        154.0004
  23364412.0884  -10685017.31049  -8314149.55446  23364411.9444   23364418.9454
       219.0004        164.0004
  22905160.3544   -7638420.82049  -5941458.57546  22905160.0284   22905167.1844
       222.0004        167.0004
  21022654.0414   -3978264.74549  -3095073.29747  21022653.9694   21022659.8204
       240.0004        207.0004
  20454195.5864  -12388099.08549  -9639642.60648  20454195.3054   20454200.9544
       245.0004        213.0004
  23713454.8014    5661493.57649   4417691.33646  23713454.0974   23713459.6254
       213.0004        164.0004
  24647140.3334    -338627.00749   -253405.95145  24647139.8704   24647149.3944
       209.0004        142.0004
  24001474.1644   -3766246.05349  -2920918.39345  24001474.3654   24001480.7614
       206.0004        144.0004
  23370753.8914   15037157.63449  11685474.14245  23370754.4134   23370760.5234
       216.0004        157.0004
 05 10 27 19 32 30.0000000  0 10G28G11G29G 7G27G 8G19G10G26G13
  20982309.6424  -12613643.62349  -9819190.49347  20982309.5794   20982314.0694
       241.0004        210.0004
  23680964.3014   -6364184.96049  -4950936.84845  23680965.1094   23680970.9054
       215.0004        155.0004
  23349187.7094  -10765021.99849  -8376490.82846  23349187.9444   23349194.2424
       219.0004        165.0004
  22886863.9834   -7734568.98349  -6016379.17746  22886863.6644   22886870.6444
       222.0004        168.0004
  21025312.1074   -3964296.57849  -3084189.02847  21025311.9894   21025317.6974
       240.0004        207.0004
  20449449.3004  -12413041.07049  -9659077.91348  20449449.1114   20449454.8244
       245.0004        213.0004
  23729643.1844    5746563.71049   4483979.69546  23729643.1304   23729647.8144
       216.0004        164.0004
  24657412.6964    -284645.54349   -211342.53745  24657412.5584   24657419.9334
       207.0004        141.0004
  23983796.2514   -3859144.02349  -2993306.33045  23983796.7434   23983803.9024
       205.0004        146.0004
  23391632.1374   15146873.75949  11770967.11145  23391633.1294   23391639.2984
       216.0004        156.0004
 05 10 27 19 33  0.0000000  0 10G28G11G29G 7G27G 8G19G10G26G13
  20979979.3494  -12625889.37949  -9828732.63847  20979979.2634   20979983.8084
       241.0004        211.0004
  23672549.8174   -6408403.52949  -4985392.85345  23672549.3954   23672556.1224
       215.0004        154.0004
  23334026.2604  -10844696.09949  -8438574.51546  23334026.7194   23334032.3684
       219.0004        165.0004
  22868608.1554   -7830503.48949  -6091133.26546  22868608.1024   22868614.7844
       221.0004        168.0004
  21028028.0604   -3950024.16449  -3073067.68647  21028028.1694   21028033.7024
       240.0004        207.0004
  20444756.1944  -12437703.68649  -9678295.53548  20444755.9804   20444761.5074
       245.0004        213.0004
  23745891.7934    5831950.40449   4550514.73746  23745890.8924   23745896.0554
       214.0004        164.0004
  24667733.3064    -230410.13549   -169081.23845  24667733.3644   24667741.9714
       204.0004        141.0004
  23966174.9624   -3951743.25549  -3065461.49645  23966175.3024   23966182.3404
       208.0004        145.0004
  23412540.8954   15256749.75449  11856584.67045  23412541.3754   23412547.7074
       214.0004        154.0004
 05 10 27 19 33 30.0000000  0 10G28G11G29G 7G27G 8G19G10G26G13
  20977696.0174  -12637888.31949  -9838082.45547  20977695.8634   20977700.3464
       241.0004        211.0004
  23664193.4474   -6452315.68049  -5019610.08945  23664193.2504   23664199.1004
       213.0004        154.0004
  23318928.2524  -10924036.58649  -8500398.23246  23318927.9424   23318934.9984
       219.0004        166.0004
  22850393.4934   -7926221.70549  -6165718.83646  22850392.7124   22850400.4614
       220.0004        168.0004
  21030802.1704   -3935446.11749  -3061708.18047  21030802.0894   21030807.9274
       240.0004        207.0004
  20440116.5534  -12462084.97349  -9697293.93648  20440116.3024   20440121.8894
       245.0004        213.0004
  23762200.2674    5917651.74749   4617294.95146  23762199.4224   23762205.0354
       214.0004        164.0004
  24678101.8374    -175923.22849   -126623.97645  24678101.7464   24678110.7784
       205.0004        141.0004
  23948611.2244   -4044040.50149  -3137381.34045  23948611.2114   23948618.8994
       206.0004        144.0004
  23433479.6864   15366783.71549  11942325.31345  23433481.3684   23433486.8704
       215.0004        153.0004
 05 10 27 19 34  0.0000000  0 10G28G11G29G 7G27G 8G19G10G26G13
  20975459.3864  -12649641.81549  -9847241.02347  20975459.2924   20975463.8694
       241.0004        211.0004
  23655895.8394   -6495919.27649  -5053586.87745  23655895.7444   23655902.8404
       213.0004        154.0004
  23303894.0784  -11003041.37349  -8561960.38146  23303894.1604   23303900.0844
       218.0004        166.0004
  22832220.3594   -8021721.55549  -6240134.25946  22832220.3134   22832227.5314
       221.0004        169.0004
  21033634.6414   -3920561.46849  -3050109.77247  21033634.5584   21033640.2434
       240.0004        207.0004
  20435530.6334  -12486184.01049  -9716072.40648  20435530.3774   20435535.8304
       244.0004        213.0004
  23778567.9834    6003664.65349   4684317.93446  23778567.4904   23778572.7274
       215.0004        164.0004
  24688517.6904    -121187.99449    -83973.19645  24688517.4354   24688526.7394
       205.0004        141.0004
  23931105.5214   -4136033.30449  -3209063.96545  23931105.6704   23931113.1744
       209.0004        144.0004
  23454448.0954   15476972.84949  12028186.88345  23454447.8344   23454454.7684
       214.0004        153.0004
 05 10 27 19 34 30.0000000  0 10G28G11G29G 7G27G 8G19G10G26G13
  20973269.2504  -12661150.87049  -9856209.11247  20973269.2184   20973273.6454
       241.0004        211.0004
  23647657.5894   -6539211.69149  -5087321.19845  23647657.5974   23647663.0404
       212.0004        154.0004
  23288924.2314  -11081708.22949  -8623259.20046  23288924.6534   23288930.8134
       219.0004        166.0004
  22814089.2214   -8117001.14849  -6314378.03046  22814089.1654   22814096.5564
       221.0004        170.0004
  21036525.7134   -3905368.84149  -3038271.38147  21036525.8164   21036531.5004
       240.0004        207.0004
  20430998.7474  -12509999.17449  -9734629.67347  20430998.5344   20431004.0424
       244.0004        212.0004
  23794994.4084    6089986.33749   4751581.53046  23794993.6894   23794998.8334
       216.0004        164.0004
  24698980.2824     -66207.32649    -41131.17545  24698979.6224   24698988.1074
       204.0004        140.0004
  23913658.2534   -4227719.08549  -3280507.35445  23913659.0384   23913666.0164
       207.0004        147.0004
  23475445.2854   15587313.97049  12114166.87545  23475445.5674   23475452.0904
       216.0004        151.0004
 05 10 27 19 35  0.0000000  0 10G28G11G29G 7G27G 8G19G10G26G13
  20971125.6034  -12672415.92549  -9864987.07347  20971125.6724   20971129.9404
       241.0004        211.0004
  23639478.9524   -6582190.34949  -5120811.00745  23639478.5404   23639486.3734
       213.0004        154.0004
  23274019.2234  -11160034.35549  -8684292.50746  23274019.2724   23274025.4054
       218.0004        167.0004
  22796000.5084   -8212057.63949  -6388447.97746  22795999.8984   22796007.3454
       221.0004        169.0004
  21039475.5864   -3889867.16149  -3026192.16847  21039475.5944   21039481.3104
       240.0004        207.0004
  20426521.2224  -12533528.63149  -9752964.30648  20426521.0144   20426526.5874
       244.0004        213.0004
  23811479.3304    6176614.90049   4819084.25346  23811479.0964   23811483.9964
       215.0004        164.0004
  24709488.9074     -10983.59549      1900.22145  24709489.2374   24709496.9134
       204.0004        139.0004
  23896270.0414   -4319094.46949  -3351708.87345  23896270.3564   23896277.4854
       209.0004        146.0004
  23496471.1004   15697804.85349  12200263.54645  23496471.0924   23496478.8144
       215.0004        152.0004
 05 10 27 19 35 30.0000000  0 10G28G11G29G 7G27G 8G19G10G26G13
  20969028.1324  -12683438.08749  -9873575.76447  20969027.9944   20969032.5224
       241.0004        211.0004
  23631360.5194   -6624852.80049  -5154054.41145  23631360.1904   23631367.0694
       211.0004        153.0004
  23259179.4604  -11238017.39449  -8745058.48146  23259179.3054   23259185.7504
       219.0004        167.0004
  22777954.5344   -8306889.22449  -6462342.65446  22777953.9214   22777961.5794
       220.0004        170.0004
  21042484.4464   -3874055.68049  -3013871.55047  21042484.4914   21042490.0274
       240.0004        207.0004
  20422098.3724  -12556770.75049  -9771075.04548  20422098.1464   20422103.7054
       244.0004        213.0004
  23828022.1514    6263547.48249   4886823.86846  23828021.9144   23828027.6144
       214.0004        164.0004
  24720043.3324      44480.06149     45118.59745  24720042.4414   24720051.4654
       202.0004        139.0004
  23878941.3664   -4410157.10849  -3422666.68445  23878941.4534   23878948.4274
       209.0004        147.0004
  23517524.8654   15808442.76149  12286474.81145  23517524.8864   23517532.4764
       214.0004        151.0004
 05 10 27 19 36  0.0000000  0 10G28G11G29G 7G27G 8G19G10G26G13
  20966976.6074  -12694219.07049  -9881976.52447  20966976.4244   20966980.9514
       242.0004        211.0004
  23623302.7134   -6667197.13849  -5187049.93945  23623302.6084   23623309.8054
       213.0004        154.0004
  23244405.3964  -11315655.76349  -8805555.88346  23244405.9834   23244411.5394
       219.0004        167.0004
  22759951.7064   -8401494.32449  -6536060.86846  22759951.4434   22759958.5464
       222.0004        169.0004
  21045552.2944   -3857933.95449  -3001309.18247  21045552.4174   21045557.7344
       241.0004        207.0004
  20417730.2824  -12579725.08949  -9788961.53648  20417730.0504   20417735.8104
       245.0004        213.0004
  23844622.0934    6350780.94449   4954797.93546  23844621.4224   23844627.1784
       216.0004        164.0004
  24730642.7934     100180.05149     88521.13745  24730642.4424   24730652.4124
       203.0004        138.0004
  23861672.5714   -4500904.91049  -3493379.21445  23861672.3284   23861681.1854
       208.0004        146.0004
  23538606.0314   15919224.62649  12372798.24145  23538607.2214   23538612.8684
       217.0004        152.0004
 05 10 27 19 36 30.0000000  0 10G28G11G29G 7G27G 8G19G10G26G13
  20964970.9474  -12704758.80149  -9890189.29547  20964970.7834   20964975.1794
       241.0004        211.0004
  23615305.9014   -6709220.17749  -5219795.08045  23615305.4944   23615312.3354
       211.0004        154.0004
  23229697.5924  -11392945.77249  -8865781.82346  23229697.2654   23229703.6694
       219.0004        167.0004
  22741992.6574   -8495869.33449  -6609599.76446  22741992.3164   22742000.2514
       221.0004        171.0004
  21048679.6444   -3841499.82249  -2988503.37847  21048679.6424   21048685.1284
       240.0004        207.0004
  20413417.5324  -12602388.78449  -9806621.55248  20413417.2954   20413423.0294
       245.0004        213.0004
  23861279.1524    6438313.85349   5023005.34046  23861278.5214   23861283.6114
       216.0004        164.0004
  24741286.7844     156114.59049    132106.43545  24741286.3644   24741294.5744
       201.0004        136.0004
  23844464.3554   -4591333.79549  -3563843.18945  23844464.9604   23844472.2964
       208.0004        147.0004
  23559714.2814   16030148.49449  12459232.31645  23559715.0994   23559721.4694
       216.0004        152.0004
 05 10 27 19 37  0.0000000  0 10G28G11G29G 7G27G 8G19G10G26G13
  20963010.9794  -12715058.49749  -9898215.02547  20963010.8304   20963015.3734
       241.0004        211.0004
  23607370.6664   -6750919.48149  -5252287.98045  23607370.4384   23607377.2044
       212.0004        154.0004
  23215056.3794  -11469885.55649  -8925734.87046  23215056.2714   23215062.4194
       219.0004        167.0004
  22724077.7514   -8590012.62149  -6682958.11846  22724077.1094   22724085.1134
       222.0004        172.0004
  21051866.6014   -3824752.18249  -2975453.28547  21051866.6164   21051872.2464
       240.0004        207.0004
  20409160.3104  -12624760.82649  -9824054.30648  20409159.9434   20409165.5744
       244.0004        213.0004
  23877992.4894    6526142.96449   5091443.55246  23877992.3704   23877996.8684
       215.0004        164.0004
  24751974.8814     212280.53249    175872.02545  24751973.0964   24751983.6834
       201.0004        138.0004
  23827317.3004   -4681441.66349  -3634057.04545  23827318.2114   23827325.7964
       210.0004        148.0004
  23580848.9814   16141211.13649  12545774.52845  23580849.8374   23580856.1414
       221.0004        154.0004
 05 10 27 19 37 30.0000000  0 10G28G11G29G 7G27G 8G19G10G26G13
  20961096.5334  -12725119.14649  -9906054.48747  20961096.3854   20961100.8314
       241.0004        211.0004
  23599497.5084   -6792293.19549  -5284527.17445  23599497.2584   23599503.8534
       213.0004        154.0004
  23200482.3084  -11546472.79949  -8985413.20646  23200482.4604   23200488.9054
       219.0004        167.0004
  22706207.3474   -8683922.23349  -6756134.38646  22706206.8404   22706215.2684
       222.0004        172.0004
  21055113.3934   -3807690.36849  -2962158.37747  21055113.3684   21055118.8454
       240.0004        207.0004
  20404958.7704  -12646839.79949  -9841258.69548  20404958.5314   20404964.1544
       244.0004        213.0004
  23894761.7464    6614265.70549   5160110.56546  23894761.2314   23894766.1894
       216.0004        164.0004
  24762706.3474     268674.75949    219815.50345  24762704.7664   24762715.2544
       202.0004        138.0004
  23810231.9704   -4771225.93849  -3704018.73245  23810232.1694   23810239.2704
       208.0004        149.0004
  23602009.5494   16252409.75049  12632422.70845  23602009.9094   23602017.0324
       216.0004        154.0004
 05 10 27 19 38  0.0000000  0 10G28G11G29G 7G27G 8G19G10G26G13
  20959227.3694  -12734941.62049  -9913708.35447  20959227.2094   20959231.7494
       242.0004        211.0004
  23591686.8754   -6833338.31649  -5316510.31745  23591687.3954   23591693.3734
       214.0004        155.0004
  23185975.7354  -11622705.14349  -9044814.99846  23185976.0434   23185982.3304
       218.0004        167.0004
  22688381.7954   -8777595.82349  -6829126.73046  22688381.6304   22688389.1694
       223.0004        173.0004
  21058420.1364   -3790313.18449  -2948617.72847  21058420.1094   21058425.8344
       240.0004        207.0004
  20400813.3484  -12668624.13749  -9858233.49848  20400813.3014   20400818.8424
       245.0004        213.0004
  23911586.4894    6702679.56149   5229004.42146  23911585.7344   23911590.3884
       214.0004        164.0004
  24773480.8704     325294.63749    263934.84445  24773480.2964   24773489.6634
       202.0004        138.0004
  23793208.7254   -4860683.65649  -3773725.99045  23793209.1744   23793216.2884
       208.0004        150.0004
  23623195.4984   16363742.29949  12719175.21645  23623196.2124   23623203.1964
       219.0004        155.0004
 05 10 27 19 38 30.0000000  0 10G28G11G29G 7G27G 8G19G10G26G13
  20957403.3564  -12744526.77149  -9921177.29947  20957403.0324   20957407.6494
       242.0004        211.0004
  23583939.2024   -6874052.54249  -5348235.61645  23583939.7384   23583945.3054
       214.0004        155.0004
  23171537.2264  -11698579.97749  -9103938.21646  23171537.9484   23171543.6404
       219.0004        168.0004
  22670601.5954   -8871031.15449  -6901933.43346  22670601.1194   22670609.3924
       223.0004        174.0004
  21061787.1224   -3772619.71749  -2934830.63147  21061787.0184   21061792.9294
       240.0004        207.0004
  20396724.2914  -12690112.19949  -9874977.43948  20396724.1024   20396729.6884
       245.0004        213.0004
  23928466.1724    6791382.38549   5298123.45646  23928465.6984   23928471.1674
       215.0004        164.0004
  24784297.6454     382137.13849    308227.63945  24784298.0674   24784306.7684
       205.0004        137.0004
  23776248.1754   -4949812.10749  -3843176.65445  23776248.4764   23776255.8154
       211.0004        150.0004
  23644406.4094   16475206.06449  12806029.99345  23644407.2474   23644413.4014
       215.0004        155.0004
 05 10 27 19 39  0.0000000  0 10G28G11G29G 7G27G 8G19G10G26G13
  20955624.3084  -12753875.75549  -9928462.21247  20955624.2134   20955628.6444
       241.0004        211.0004
  23576254.8844   -6914433.85549  -5379701.50545  23576254.9184   23576260.7124
       213.0004        155.0004
  23157167.1544  -11774095.28649  -9162781.26746  23157167.0674   23157172.9924
       219.0004        168.0004
  22652867.1334   -8964226.21249  -6974552.89546  22652866.5974   22652873.7624
       223.0004        174.0004
  21065214.4924   -3754608.80749  -2920796.17347  21065214.4854   21065220.0094
       240.0004        206.0004
  20392691.9034  -12711302.60049  -9891489.43848  20392691.7434   20392697.2704
       245.0004        213.0004
  23945400.1324    6880370.93449   5367465.11946  23945399.8054   23945404.4054
       213.0004        163.0004
  24795156.3324     439199.29649    352691.59845  24795156.2514   24795165.3624
       205.0004        138.0004
  23759350.7524   -5038608.70849  -3912368.72545  23759351.2434   23759358.2564
       212.0004        152.0004
  23665641.7114   16586797.83349  12892984.51645  23665643.8864   23665649.0954
       218.0004        157.0004
 05 10 27 19 39 30.0000000  0 10G28G11G29G 7G27G 8G19G10G26G13
  20953890.1054  -12762988.94549  -9935563.38947  20953889.8844   20953894.6144
       241.0004        211.0004
  23568634.4754   -6954479.21749  -5410905.62245  23568634.2244   23568639.9664
       214.0004        155.0004
  23142866.0034  -11849248.03849  -9221341.81946  23142866.5774   23142871.7654
       219.0004        167.0004
  22635178.9054   -9057178.30149  -7046983.05046  22635179.2314   22635185.7154
       225.0004        175.0004
  21068702.4894   -3736279.08249  -2906513.28347  21068702.3914   21068708.0954
       240.0004        206.0004
  20388716.4864  -12732193.64949  -9907768.17048  20388716.3754   20388721.9364
       245.0004        213.0004
  23962387.9814    6969643.22049   5437027.88346  23962387.4844   23962392.5294
       214.0004        163.0004
  24806056.1504     496478.65549    397324.80845  24806055.4754   24806065.6974
       207.0004        138.0004
  23742517.1234   -5127070.20249  -3981299.69845  23742517.1174   23742523.8944
       211.0004        152.0004
  23686901.0644   16698515.59449  12980037.18545  23686901.8994   23686908.0534
       218.0004        159.0004
 05 10 27 19 40  0.0000000  0 10G28G11G29G 7G27G 8G19G10G26G13
  20952200.5174  -12771867.84349  -9942482.00247  20952200.2844   20952204.7684
       241.0004        211.0004
  23561078.4184   -6994186.70649  -5441846.47245  23561078.4054   23561084.4914
       213.0004        155.0004
  23128634.1644  -11924036.57149  -9279618.55446  23128634.2604   23128640.9244
       220.0004        168.0004
  22617537.2604   -9149885.86849  -7119222.65046  22617537.2554   22617544.2114
       224.0004        176.0004
  21072251.2754   -3717630.15449  -2891981.66847  21072251.1844   21072256.9624
       240.0004        206.0004
  20384798.2534  -12752784.16449  -9923812.72848  20384797.9384   20384803.6174
       245.0004        213.0004
  23979429.4494    7059196.34549   5506809.46745  23979429.6964   23979434.2694
       215.0004        162.0004
  24816996.9324     553972.07149    442124.81845  24816996.4614   24817004.6134
       205.0004        139.0004
  23725747.6234   -5215194.49349  -4049967.88845  23725747.5974   23725754.7614
       209.0004        153.0004
  23708183.7274   16810355.96649  13067185.43245  23708184.6454   23708191.2774
       217.0004        156.0004
 05 10 27 19 40 30.0000000  0 10G28G11G29G 7G27G 8G19G10G26G13
  20950555.3724  -12780513.02049  -9949218.50147  20950555.2624   20950559.6114
       241.0004        211.0004
  23553587.1054   -7033553.49249  -5472521.82645  23553587.0114   23553593.3704
       213.0004        155.0004
  23114472.2234  -11998458.03049  -9337609.27046  23114471.5544   23114478.6474
       219.0004        168.0004
  22599942.5684   -9242346.23649  -7191269.65046  22599942.2864   22599949.4094
       225.0004        176.0004
  21075861.1624   -3698660.14049  -2877199.85947  21075861.3454   21075866.8314
       240.0004        206.0004
  20380937.5674  -12773072.25349  -9939621.63148  20380937.3614   20380942.9704
       245.0004        213.0004
  23996523.9294    7149027.93649   5576808.04745  23996523.0534   23996529.0914
       213.0004        162.0004
  24827977.7594     611676.79349    487089.47745  24827976.5404   24827986.5744
       207.0004        139.0004
  23709042.8764   -5302978.32349  -4118370.81145  23709043.4314   23709050.5574
       212.0004        154.0004
  23729489.1904   16922316.77349  13154427.50345  23729489.0674   23729497.4924
       216.0004        157.0004
 05 10 27 19 41  0.0000000  0 10G28G11G29G 7G27G 8G19G10G26G13
  20948954.5154  -12788925.63949  -9955773.78547  20948954.2514   20948958.7114
       241.0004        211.0004
  23546161.0494   -7072577.56549  -5502930.14045  23546161.1824   23546166.5164
       213.0004        155.0004
  23100380.4644  -12072510.19949  -9395312.23046  23100380.4394   23100386.3544
       220.0004        168.0004
  22582395.3144   -9334557.54649  -7263122.56546  22582394.9234   22582403.2454
       225.0004        176.0004
  21079532.2734   -3679368.41349  -2862167.36047  21079532.3334   21079538.0134
       240.0004        206.0004
  20377134.7074  -12793056.47749  -9955193.75048  20377134.4334   20377140.0044
       245.0004        214.0004
  24013670.8104    7239135.35749   5647021.56245  24013670.4624   24013675.3684
       212.0004        161.0004
  24838998.2804     669589.72149    532216.38445  24838997.8704   24839007.2334
       209.0004        139.0004
  23692403.2774   -5390419.38749  -4186506.60845  23692403.9904   23692409.6044
       213.0004        153.0004
  23750817.0314   17034395.06749  13241761.10645  23750817.2314   23750824.0754
       215.0004        157.0004
 05 10 27 19 41 30.0000000  0  9G28G11G29G 7G27G 8G19G26G13
  20947398.6074  -12797101.83949  -9962144.84747  20947398.4484   20947402.8124
       241.0004        211.0004
  23538801.4634   -7111251.99149  -5533066.02045  23538801.4874   23538806.8344
       213.0004        155.0004
  23086360.3094  -12146186.26549  -9452722.11546  23086360.4654   23086366.6774
       221.0004        169.0004
  22564896.7114   -9426513.03049  -7334776.15346  22564896.6074   22564903.8714
       224.0004        175.0004
  21083265.6614   -3659749.45049  -2846879.87347  21083265.6194   21083271.4854
       240.0004        206.0004
  20373390.8044  -12812730.67749  -9970524.29848  20373390.5654   20373396.1944
       245.0004        214.0004
  24030870.4664    7329520.25749   5717451.29545  24030869.6454   24030876.1904
       212.0004        160.0004
  23675830.3424   -5477510.21149  -4254369.53545  23675830.1444   23675838.0084
       212.0004        154.0004
  23772167.6414   17146592.96649  13329187.91845  23772168.5704   23772175.5904
       214.0004        155.0004
 05 10 27 19 42  0.0000000  0  9G28G11G29G 7G27G 8G19G26G13
  20945886.3524  -12805048.72549  -9968337.22047  20945886.2054   20945890.6684
       241.0004        211.0004
  23531507.7694   -7149580.10149  -5562932.03345  23531507.3264   23531514.1504
       210.0004        154.0004
  23072411.1354  -12219489.84049  -9509841.74846  23072411.4824   23072417.0034
       221.0004        169.0004
  22547446.0914   -9518216.35449  -7406233.24046  22547445.9584   22547453.3274
       226.0004        176.0004
  21087060.3554   -3639808.34049  -2831341.36647  21087060.5124   21087065.9944
       240.0004        206.0004
  20369705.1084  -12832099.08049  -9985616.56048  20369704.9774   20369710.2954
       245.0004        214.0004
  24048121.5264    7420174.77749   5788091.11545  24048120.4534   24048126.1804
       214.0004        160.0004
  23659323.5414   -5564253.87649  -4321961.96145  23659323.6314   23659330.6804
       211.0004        153.0004
  23793539.3774   17258901.89449  13416701.25545  23793539.7854   23793546.9684
       215.0004        155.0004
 05 10 27 19 42 30.0000000  0  9G28G11G29G 7G27G 8G19G26G13
  20944417.6244  -12812766.92649  -9974351.39847  20944417.3124   20944421.8304
       241.0004        211.0004
  23524280.3864   -7187559.75149  -5592526.51745  23524280.5294   23524286.5154
       212.0004        154.0004
  23058533.1604  -12292418.66449  -9566669.36446  23058533.1604   23058539.4124
       221.0004        169.0004
  22530043.8574   -9609665.70849  -7477492.42846  22530043.8154   22530050.8454
       225.0004        176.0004
  21090916.5534   -3619544.03649  -2815551.01547  21090916.6224   21090922.4044
       240.0004        206.0004
  20366077.9274  -12851160.31749 -10000469.47348  20366077.7584   20366083.1944
       246.0004        214.0004
  24065423.2584    7511095.95249   5858938.71945  24065423.2744   24065427.9694
       212.0004        159.0004
  23642883.3094   -5650648.04349  -4389281.99945  23642883.8224   23642889.6094
       213.0004        155.0004
  23814931.6654   17371318.81849  13504298.73245  23814931.7464   23814939.6814
       211.0004        152.0004
 05 10 27 19 43  0.0000000  0  9G28G11G29G 7G27G 8G19G26G13
  20942992.3694  -12820256.89449  -9980187.73547  20942992.2784   20942996.6434
       241.0004        211.0004
  23517119.9214   -7225188.03649  -5621847.23145  23517119.7174   23517126.1744
       214.0004        155.0004
  23044727.2314  -12364969.50649  -9623202.45646  23044727.5374   23044733.3344
       222.0004        170.0004
  22512690.5314   -9700857.87749  -7548551.22246  22512690.4494   22512698.0064
       226.0004        177.0004
  21094834.5524   -3598954.69249  -2799507.38747  21094834.6104   21094840.3344
       240.0004        206.0004
  20362509.5144  -12869912.41049 -10015081.49448  20362509.2984   20362514.6654
       246.0004        214.0004
  24082775.4464    7602281.99349   5929992.72045  24082775.1124   24082780.0454
       212.0004        158.0004
  23626510.1574   -5736689.11749  -4456326.93445  23626511.1974   23626517.7094
       214.0004        154.0004
  23836344.1474   17483842.12849  13591979.10745  23836344.2424   23836351.5134
       211.0004        150.0004
 05 10 27 19 43 30.0000000  0  9G28G11G29G 7G27G 8G19G26G13
  20941610.4324  -12827518.74749  -9985846.31847  20941610.2354   20941615.0384
       241.0004        211.0004
  23510026.9964   -7262461.65049  -5650891.57645  23510026.6574   23510033.0604
       213.0004        155.0004
  23030993.6914  -12437139.30749  -9679438.63946  23030993.9254   23030999.8584
       221.0004        170.0004
  22495386.6614   -9791790.14649  -7619407.47946  22495385.4694   22495394.5814
       225.0004        177.0004
  21098814.8284   -3578038.46249  -2783209.04347  21098814.9844   21098820.5324
       240.0004        206.0004
  20359000.4164  -12888352.88049 -10029450.69248  20359000.3174   20359005.6354
       245.0004        214.0004
  24100177.7044    7693730.80449   6001251.48645  24100177.3444   24100182.0794
       213.0004        158.0004
  23610204.8644   -5822373.46249  -4523093.87745  23610204.6454   23610211.5914
       212.0004        153.0004
  23857776.5914   17596469.91549  13679740.89545  23857776.5554   23857784.3834
       210.0004        149.0004
 05 10 27 19 44  0.0000000  0  9G28G11G29G 7G27G 8G19G26G13
  20940271.7604  -12834553.51049  -9991327.94647  20940271.6924   20940276.0834
       241.0004        211.0004
  23503001.7714   -7299378.62549  -5679658.00645  23503001.3814   23503008.7604
       213.0004        155.0004
  23017333.0824  -12508926.19049  -9735376.43746  23017333.2824   23017338.6474
       221.0004        170.0004
  22478132.5834   -9882460.65749  -7690059.76946  22478132.3534   22478139.8534
       225.0004        177.0004
  21102857.3954   -3556794.61949  -2766655.41747  21102857.3864   21102863.2104
       239.0004        206.0004
  20355550.8724  -12906480.37349 -10043576.01048  20355550.6364   20355556.2484
       245.0004        214.0004
  24117629.3974    7785439.71249   6072712.91245  24117628.9234   24117634.1664
       212.0004        157.0004
  23593967.9504   -5907698.97749  -4589581.23745  23593967.4964   23593975.3634
       211.0004        154.0004
  23879228.2584   17709198.94149  13767581.54145  23879228.7744   23879236.0724
       209.0004        148.0004
 05 10 27 19 44 30.0000000  0  9G28G11G29G 7G27G 8G19G26G13
  20938976.0344  -12841362.57749  -9996633.70447  20938975.9594   20938980.2624
       241.0004        211.0004
  23496044.8844   -7335936.92949  -5708144.96845  23496045.2664   23496050.1814
       215.0004        155.0004
  23003745.7474  -12580328.20749  -9791014.34746  23003746.0284   23003751.8804
       221.0004        170.0004
  22460928.6454   -9972867.62849  -7760506.71546  22460927.8934   22460935.5004
       225.0004        177.0004
  21106962.4144   -3535222.75849  -2749846.18647  21106962.4744   21106968.0014
       240.0004        206.0004
  20352161.0634  -12924293.96049 -10057456.72348  20352160.9124   20352166.2424
       246.0004        214.0004
  24135129.9664    7877405.84949   6144374.79045  24135129.3084   24135134.6424
       212.0004        156.0004
  23577799.7144   -5992663.08049  -4655786.98845  23577799.4194   23577806.6144
       212.0004        154.0004
  23900698.7764   17822026.59549  13855499.08045  23900700.0004   23900706.9684
       208.0004        148.0004
 05 10 27 19 45  0.0000000  0  9G28G11G29G 7G27G 8G19G26G13
  20937723.3384  -12847945.55749 -10001763.29547  20937723.1864   20937727.5504
       241.0004        211.0004
  23489156.9824   -7372133.23449  -5736349.85345  23489157.0854   23489163.4204
       214.0004        155.0004
  22990232.3684  -12651341.56249  -9846349.39546  22990232.8234   22990238.1514
       223.0004        171.0004
  22443775.5224  -10063007.69049  -7830745.67046  22443774.9984   22443782.7814
       225.0004        178.0004
  21111130.3074   -3513320.39649  -2732779.42547  21111130.4294   21111135.9414
       239.0004        206.0004
  20348831.4624  -12941790.96649 -10071090.75848  20348831.2074   20348836.6824
       245.0004        214.0004
  24152679.2934    7969628.18949   6216236.30645  24152678.7984   24152684.1544
       212.0004        155.0004
  23561700.9424   -6077261.89549  -4721708.05245  23561702.2734   23561708.0974
       213.0004        154.0004
  23922187.7004   17934951.33749  13943492.26345  23922188.4944   23922197.1934
       208.0004        145.0004
 05 10 27 19 45 30.0000000  0  9G28G11G29G 7G27G 8G19G26G13
  20936513.1554  -12854305.03349 -10006718.72047  20936512.8344   20936517.5594
       241.0004        211.0004
  23482338.2674   -7407966.07249  -5764271.52345  23482338.9954   23482344.2004
       215.0004        155.0004
  22976793.1024  -12721965.14349  -9901380.73646  22976793.1274   22976798.9134
       222.0004        171.0004
  22426673.3994  -10152879.71849  -7900775.77946  22426673.2474   22426680.3574
       225.0004        178.0004
  21115361.0514   -3491087.57049  -2715455.16547  21115361.1904   21115366.8494
       239.0004        206.0004
  20345562.3024  -12958970.42949 -10084477.35348  20345562.1204   20345567.6144
       245.0004        214.0004
  24170276.6024    8062102.54249   6288294.19645  24170276.3464   24170280.9524
       212.0004        155.0004
  23545672.0124   -6161493.83949  -4787343.27145  23545672.1604   23545678.9514
       215.0004        154.0004
  23943694.4004   18047969.47249  14031558.19745  23943695.0354   23943702.8604
       210.0004        145.0004
 05 10 27 19 46  0.0000000  0  9G28G11G29G 7G27G 8G19G26G13
  20935345.5984  -12860440.50449 -10011499.59547  20935345.5024   20935349.8744
       241.0004        211.0004
  23475589.2484   -7443432.56949  -5791907.72345  23475589.1684   23475595.8714
       214.0004        155.0004
  22963428.4534  -12792196.53649  -9956106.47146  22963428.6794   22963434.5874
       222.0004        171.0004
  22409622.6624  -10242481.28349  -7970595.12546  22409621.8924   22409630.2474
       225.0004        178.0004
  21119654.8814   -3468523.26749  -2697872.60547  21119654.8174   21119660.5984
       239.0004        206.0004
  20342353.8334  -12975830.94749 -10097615.41948  20342353.5324   20342359.2744
       245.0004        214.0004
  24187921.5724    8154826.98049   6360546.97145  24187921.5304   24187927.1444
       212.0004        155.0004
  23529713.6224   -6245355.79149  -4852690.18545  23529713.7284   23529720.9154
       214.0004        153.0004
  23965218.5764   18161078.48749  14119694.97045  23965219.3244   23965226.4634
       211.0004        147.0004
 05 10 27 19 46 30.0000000  0  9G28G11G29G 7G27G 8G19G26G13
  20934220.4024  -12866353.40749 -10016107.04647  20934220.0814   20934224.6964
       241.0004        211.0004
  23468910.2124   -7478531.06349  -5819257.17645  23468910.5114   23468916.0714
       216.0004        156.0004
  22950138.9644  -12862033.06349 -10010524.51746  22950138.6704   22950145.1774
       223.0004        171.0004
  22392623.8294  -10331810.35849  -8040202.14546  22392623.1804   22392631.2484
       226.0004        178.0004
  21124012.1054   -3445626.35649  -2680030.87147  21124012.0014   21124017.8004
       240.0004        205.0004
  20339206.4194  -12992370.76349 -10110503.59348  20339206.2514   20339211.7114
       245.0004        214.0004
  24205613.6384    8247799.11149   6432992.73345  24205612.5534   24205618.7674
       211.0004        155.0004
  23513826.1414   -6328845.15049  -4917746.75045  23513826.5274   23513833.2154
       213.0004        153.0004
  23986759.4614   18274275.92749  14207900.64745  23986760.7614   23986766.9904
       210.0004        146.0004
 05 10 27 19 47  0.0000000  0  9G28G11G29G 7G27G 8G19G26G13
  20933137.3834  -12872044.76149 -10020541.85547  20933137.3514   20933141.8244
       241.0004        211.0004
  23462301.6064   -7513259.16849  -5846318.01245  23462301.4074   23462307.3374
       213.0004        156.0004
  22936925.0384  -12931472.82249 -10064633.39946  22936925.2574   22936930.7504
       223.0004        172.0004
  22375677.2984  -10420865.01049  -8109595.32646  22375676.3024   22375684.9684
       225.0004        179.0004
  21128432.6634   -3422396.15449  -2661929.42747  21128432.8304   21128438.3364
       239.0004        205.0004
  20336120.2474  -13008588.72949 -10123140.97548  20336120.0974   20336125.4644
       245.0004        214.0004
  24223352.2284    8341015.93349   6505629.17345  24223351.5734   24223356.8804
       211.0004        154.0004
  23498010.0794   -6411959.28949  -4982510.96645  23498010.3164   23498017.0734
       213.0004        153.0004
  24008316.4324   18387559.03349  14296173.08045  24008317.1884   24008324.3414
       211.0004        142.0004
 05 10 27 19 47 30.0000000  0  9G28G11G29G 7G27G 8G19G26G13
  20932096.4254  -12877515.07149 -10024804.42747  20932096.4114   20932100.6874
       241.0004        211.0004
  23455764.0964   -7547614.25149  -5873088.20245  23455764.4024   23455770.4394
       216.0004        157.0004
  22923787.0354  -13000513.20349 -10118431.08146  22923787.0924   22923793.3914
       223.0004        172.0004
  22358783.3254  -10509642.80449  -8178772.76146  22358783.0874   22358790.1524
       226.0004        179.0004
  21132916.8494   -3398831.61549  -2643567.46247  21132916.7664   21132922.6714
       239.0004        205.0004
  20333095.7214  -13024482.69049 -10135525.88748  20333095.6414   20333101.2444
       245.0004        214.0004
  24241136.8434    8434475.02749   6578454.39845  24241136.3414   24241141.6734
       212.0004        154.0004
  23482265.8744   -6494695.42149  -5046980.61445  23482266.1454   23482273.2514
       214.0004        153.0004
  24029889.4574   18500925.31649  14384510.33245  24029889.8334   24029897.4184
       209.0004        143.0004
 05 10 27 19 48  0.0000000  0  9G28G11G29G 7G27G 8G19G26G13
  20931097.3004  -12882765.47049 -10028895.63647  20931097.2034   20931101.5434
       241.0004        211.0004
  23449297.9554   -7581594.39849  -5899566.22745  23449298.2694   23449303.4184
       217.0004        157.0004
  22910725.4824  -13069152.23749 -10171916.02346  22910725.8854   22910731.4374
       222.0004        172.0004
  22341942.5274  -10598141.83849  -8247732.99346  22341942.5454   22341948.9534
       226.0004        179.0004
  21137464.9194   -3374931.48249  -2624944.00047  21137464.7384   21137470.7774
       239.0004        205.0004
  20330133.1124  -13040051.31949 -10147657.29148  20330132.9124   20330138.5404
       245.0004        214.0004
  24258967.1564    8528174.13449   6651466.65045  24258966.1374   24258972.2094
       212.0004        154.0004
  23466594.0054   -6577050.92549  -5111153.65945  23466594.4954   23466601.0054
       213.0004        153.0004
  24051477.7744   18614372.11349  14472910.28545  24051478.0084   24051486.1594
       212.0004        145.0004
 05 10 27 19 48 30.0000000  0  9G28G11G29G 7G27G 8G19G26G13
  20930139.8574  -12887796.85249 -10032816.19147  20930139.7564   20930144.1604
       241.0004        211.0004
  23442903.5384   -7615197.08749  -5925750.13045  23442903.1264   23442909.4164
       214.0004        156.0004
  22897740.7034  -13137387.53149 -10225086.35546  22897740.9744   22897746.7744
       223.0004        172.0004
  22325155.2004  -10686359.95449  -8316474.32746  22325154.4974   22325162.3514
       226.0004        180.0004
  21142076.9934   -3350694.89749  -2606058.36547  21142076.8654   21142082.7884
       239.0004        205.0004
  20327232.7244  -13055292.95549 -10159533.89548  20327232.6904   20327238.0654
       245.0004        214.0004
  24276842.4934    8622110.24549   6724663.58245  24276842.1924   24276847.4394
       212.0004        154.0004
  23450995.0154   -6659023.00249  -5175027.95645  23450995.2144   23451002.5484
       214.0004        153.0004
  24073080.9904   18727896.93349  14561371.06345  24073082.5224   24073089.1384
       214.0004        146.0004
 05 10 27 19 49  0.0000000  0  9G28G11G29G 7G27G 8G19G26G13
  20929223.8234  -12892610.38849 -10036566.98947  20929223.7404   20929228.1434
       241.0004        211.0004
  23436581.1814   -7648420.58749  -5951638.55445  23436581.3724   23436587.0754
       215.0004        156.0004
  22884833.1824  -13205217.06449 -10277940.50246  22884833.4694   22884838.9814
       223.0004        173.0004
  22308421.6664  -10774295.24349  -8384995.27446  22308421.3114   22308428.4734
       228.0004        181.0004
  21146753.2034   -3326121.27449  -2586910.10247  21146753.2374   21146758.8434
       239.0004        205.0004
  20324394.7664  -13070206.54549 -10171154.87448  20324394.6444   20324400.0604
       245.0004        214.0004
  24294762.6394    8716280.94049   6798043.30245  24294762.7064   24294767.7154
       214.0004        154.0004
  23435469.6724   -6740609.40149  -5238601.71045  23435469.7124   23435476.5204
       214.0004        153.0004
  24094698.5024   18841496.74149  14649890.31045  24094698.8474   24094706.5054
       212.0004        144.0004
 05 10 27 19 49 30.0000000  0  9G28G11G29G 7G27G 8G19G26G13
  20928349.1094  -12897207.19249 -10040148.91247  20928349.0654   20928353.4794
       241.0004        211.0004
  23430331.5364   -7681262.91449  -5977229.96845  23430331.8094   23430338.1494
       215.0004        157.0004
  22872003.1814  -13272638.89749 -10330476.97846  22872002.9524   22872009.1914
       222.0004        173.0004
  22291742.2554  -10861946.10249  -8453294.59146  22291741.8184   22291748.7744
       227.0004        181.0004
  21151493.6614   -3301210.10849  -2567498.81847  21151493.6764   21151499.1924
       239.0004        204.0004
  20321619.5334  -13084790.49349 -10182518.99248  20321619.3164   20321624.8354
       245.0004        214.0004
  24312726.9204    8810683.38149   6871603.60645  24312726.7794   24312731.0444
       213.0004        154.0004
  23420018.1324   -6821807.58749  -5301872.96445  23420018.4994   23420024.8304
       215.0004        154.0004
  24116329.5404   18955168.63549  14738465.66445  24116329.3234   24116337.0594
       210.0004        144.0004
 05 10 27 19 50  0.0000000  0  9G28G11G29G 7G27G 8G19G26G13
  20927515.5174  -12901587.55849 -10043562.17847  20927515.2534   20927519.8304
       241.0004        211.0004
  23424154.8364   -7713721.58549  -6002522.43645  23424154.5854   23424161.3194
       215.0004        156.0004
  22859251.2974  -13339650.13149 -10382693.50246  22859251.7294   22859257.7154
       223.0004        173.0004
  22275117.4334  -10949309.95349  -8521370.26346  22275116.9774   22275124.2234
       228.0004        181.0004
  21156298.5694   -3275960.06649  -2547823.47947  21156298.5094   21156304.1544
       239.0004        204.0004
  20318907.3194  -13099043.22849 -10193625.02348  20318907.1234   20318912.5184
       245.0004        214.0004
  24330734.9404    8905315.59349   6945342.95045  24330734.2334   24330739.4594
       212.0004        153.0004
  23404641.1494   -6902614.52749  -5364839.36645  23404641.7244   23404647.1824
       214.0004        155.0004
  24137974.0134   19068910.91349  14827095.86345  24137975.4474   24137981.5594
       212.0004        143.0004
 05 10 27 19 50 30.0000000  0  9G28G11G29G 7G27G 8G19G26G13
  20926722.9494  -12905752.54149 -10046807.62547  20926722.8114   20926727.3924
       241.0004        211.0004
  23418051.5764   -7745794.03149  -6027513.93945  23418051.5904   23418056.7824
       216.0004        156.0004
  22846577.9504  -13406248.66849 -10434588.43246  22846578.1834   22846584.6564
       222.0004        174.0004
  22258547.7134  -11036384.46649  -8589220.49046  22258546.7594   22258554.4604
       228.0004        182.0004
  21161168.1974   -3250369.98049  -2527883.17047  21161168.1284   21161173.6524
       239.0004        204.0004
  20316258.4504  -13112963.15749 -10204471.72648  20316258.1874   20316263.8114
       245.0004        214.0004
  24348786.1304    9000174.70849   7019259.09945  24348785.3374   24348790.8934
       212.0004        153.0004
  23389339.0004   -6983027.62449  -5427498.86445  23389338.7284   23389345.0294
       215.0004        155.0004
  24159631.4284   19182720.29149  14915778.38945  24159632.6944   24159639.2864
       213.0004        144.0004
 05 10 27 19 51  0.0000000  0  9G28G11G29G 7G27G 8G19G26G13
  20925971.1324  -12909703.37649 -10049886.19347  20925971.0224   20925975.3974
       241.0004        211.0004
  23412022.1664   -7777478.91849  -6052203.44745  23412021.7454   23412028.0814
       218.0004        156.0004
  22833983.4774  -13472432.84949 -10486160.49146  22833983.8124   22833989.4444
       223.0004        174.0004
  22242033.2874  -11123168.39249  -8656844.28446  22242033.0514   22242039.4824
       229.0004        183.0004
  21166102.6774   -3224439.41749  -2507677.55547  21166102.6524   21166108.2774
       239.0004        204.0004
  20313673.1614  -13126548.84149 -10215057.97748  20313672.8974   20313678.5344
       245.0004        214.0004
  24366879.9544    9095258.01949   7093349.95045  24366879.5204   24366883.9544
       212.0004        152.0004
  23374112.3654   -7063044.58949  -5489849.68845  23374113.0484   23374119.1484
       215.0004        155.0004
  24181300.9584   19296594.04649  15004511.10345  24181302.2634   24181308.6154
       212.0004        143.0004
 05 10 27 19 51 30.0000000  0  9G28G11G29G 7G27G 8G19G26G13
  20925259.9594  -12913440.71149 -10052798.39947  20925259.9744   20925264.2424
       241.0004        211.0004
  23406066.9924   -7808773.78749  -6076589.05445  23406067.0274   23406072.5734
       217.0004        157.0004
  22821468.3974  -13538200.37949 -10537407.87646  22821469.3064   22821474.4904
       223.0004        174.0004
  22225574.5824  -11209659.52349  -8724239.93046  22225574.0554   22225581.1464
       228.0004        183.0004
  21171102.0484   -3198167.46649  -2487205.92347  21171101.8714   21171107.8124
       237.0004        204.0004
  20311151.7574  -13139798.87049 -10225382.67648  20311151.5824   20311157.1474
       245.0004        214.0004
  24385015.9184    9190562.89649   7167613.44545  24385015.5554   24385019.4804
       211.0004        152.0004
  23358961.4494   -7142662.84249  -5551889.82845  23358962.1374   23358968.8234
       215.0004        156.0004
  24202982.2324   19410529.59349  15093291.89445  24202982.6844   24202990.8914
       210.0004        144.0004
 05 10 27 19 52  0.0000000  0  9G28G11G29G 7G27G 8G19G26G13
  20924589.2064  -12916965.46849 -10055544.96147  20924589.1584   20924593.4924
       241.0004        211.0004
  23400186.3334   -7839676.36949  -6100668.96345  23400186.8084   23400192.8094
       215.0004        157.0004
  22809032.9664  -13603548.89749 -10588328.76246  22809033.2254   22809038.6704
       223.0004        175.0004
  22209171.9484  -11295855.66749  -8791405.70646  22209171.5404   22209178.5004
       229.0004        184.0004
  21176166.6494   -3171552.94249  -2466467.35647  21176166.5354   21176172.3584
       238.0004        203.0004
  20308694.5374  -13152711.68949 -10235444.61348  20308694.3934   20308699.9174
       245.0004        214.0004
  24403193.5834    9286087.02049   7242047.78345  24403192.5114   24403197.2674
       208.0004        151.0004
  23343886.9294   -7221879.48549  -5613617.02245  23343886.1444   23343893.3004
       217.0004        156.0004
  24224674.8904   19524524.38849  15182118.84545  24224676.3564   24224683.2154
       210.0004        144.0004
 05 10 27 19 52 30.0000000  0  9G28G11G29G 7G27G 8G19G26G13
  20923958.7624  -12920278.53249 -10058126.56747  20923958.6354   20923963.1234
       241.0004        211.0004
  23394380.7274   -7870184.66349  -6124441.64245  23394381.2674   23394386.7664
       215.0004        156.0004
  22796677.7534  -13668476.18949 -10638921.42646  22796678.4184   22796683.6964
       224.0004        175.0004
  22192825.8464  -11381754.96549  -8858340.17446  22192825.5074   22192832.7034
       230.0004        184.0004
  21181296.6074   -3144594.94449  -2445461.14147  21181296.5844   21181302.4934
       238.0004        203.0004
  20306301.7684  -13165285.95749 -10245242.74548  20306301.5704   20306307.2034
       245.0004        214.0004
  24421412.4134    9381827.68649   7316650.85545  24421412.1584   24421417.4094
       211.0004        151.0004
  23328889.3714   -7300692.08549  -5675029.37245  23328889.2064   23328896.6964
       216.0004        157.0004
  24246378.2624   19638575.83849  15270990.00345  24246379.9504   24246388.0624
       208.0004        143.0004
 05 10 27 19 53  0.0000000  0  9G28G11G29G 7G27G 8G19G26G13
  20923368.4224  -12923380.85049 -10060543.95647  20923368.3144   20923372.7704
       241.0004        211.0004
  23388650.7374   -7900296.53349  -6147905.42545  23388650.7044   23388656.4794
       217.0004        157.0004
  22784403.0534  -13732980.17649 -10689184.23346  22784403.2064   22784409.1914
       224.0004        175.0004
  22176536.6704  -11467355.25449  -8925041.65346  22176536.5534   22176543.7154
       230.0004        184.0004
  21186492.0014   -3117292.91649  -2424186.84947  21186491.9874   21186497.8504
       238.0004        203.0004
  20303973.7334  -13177519.92849 -10254775.71148  20303973.5324   20303979.1124
       245.0004        214.0004
  24439672.0284    9477782.39849   7391420.71245  24439670.6584   24439677.2554
       205.0004        151.0004
  23313969.0504   -7379098.03149  -5736124.86545  23313968.1164   23313976.5284
       214.0004        157.0004
  24268091.8554   19752681.46049  15359903.31745  24268091.9104   24268099.3724
       207.0004        140.0004
 05 10 27 19 53 30.0000000  0  9G28G11G29G 7G27G 8G19G26G13
  20922818.0314  -12926273.30349 -10062797.81547  20922817.8054   20922822.2964
       241.0004        211.0004
  23382996.5164   -7930010.03449  -6171058.79245  23382996.6484   23383002.6114
       219.0004        157.0004
  22772209.2474  -13797058.67049 -10739115.49846  22772209.6274   22772214.8404
       224.0004        175.0004
  22160304.7164  -11552654.55249  -8991508.59246  22160303.9614   22160311.5294
       229.0004        185.0004
  21191753.0254   -3089646.10349  -2402643.89847  21191752.9854   21191758.7364
       238.0004        203.0004
  20301710.7844  -13189411.78649 -10264042.09448  20301710.6084   20301716.2954
       245.0004        214.0004
  24457971.8454    9573948.58849   7466355.35745  24457971.9684   24457977.6224
       209.0004        152.0004
  23299126.6954   -7457094.78349  -5796901.48845  23299126.5604   23299132.4554
       215.0004        157.0004
  24289815.3704   19866838.38349  15448856.63045  24289816.8804   24289822.8734
       208.0004        141.0004
 05 10 27 19 54  0.0000000  0  9G28G11G29G 7G27G 8G19G26G13
  20922307.3704  -12928956.65549 -10064888.73947  20922307.0784   20922311.6464
       241.0004        211.0004
  23377418.3924   -7959323.07049  -6193900.10645  23377418.5604   23377424.6464
       218.0004        157.0004
  22760096.8404  -13860709.61449 -10788713.59946  22760096.6934   22760103.1424
       225.0004        175.0004
  22144130.3654  -11637651.00449  -9057739.55146  22144130.0984   22144136.4564
       230.0004        185.0004
  21197079.8584   -3061653.37849  -2380831.40547  21197079.7574   21197085.6644
       238.0004        203.0004
  20299513.1894  -13200960.32549 -10273040.95748  20299513.0404   20299518.5614
       245.0004        214.0004
  24476311.4744    9670323.77349   7541452.86145  24476311.0524   24476315.8314
       206.0004        152.0004
  23284362.7454   -7534679.62649  -5857357.16745  23284362.7414   23284369.6454
       216.0004        158.0004
  24311548.2754   19981044.38049  15537848.18945  24311548.0854   24311555.8344
       210.0004        143.0004
 05 10 27 19 54 30.0000000  0  9G28G11G29G 7G27G 8G19G26G13
  20921836.2734  -12931432.21449 -10066817.74147  20921836.1044   20921840.5304
       241.0004        211.0004
  23371916.8454   -7988233.52349  -6216427.71245  23371916.3194   23371922.8534
       218.0004        157.0004
  22748066.1304  -13923931.14749 -10837977.09846  22748066.1714   22748072.0404
       223.0004        175.0004
  22128014.0044  -11722342.87449  -9123733.17346  22128013.9154   22128020.8384
       230.0004        186.0004
  21202472.6154   -3033314.41849  -2358749.12247  21202472.7244   21202478.4264
       238.0004        203.0004
  20297381.1004  -13212164.58749 -10281771.55048  20297380.7664   20297386.2904
       245.0004        214.0004
  24494690.2694    9766905.08049   7616710.97345  24494689.2594   24494695.0314
       207.0004        152.0004
  23269677.6824   -7611850.42849  -5917490.20445  23269677.7374   23269684.8104
       215.0004        159.0004
  24333289.7784   20095296.30949  15626875.55245  24333289.4844   24333298.2454
       205.0004        142.0004
 05 10 27 19 55  0.0000000  0  9G28G11G29G 7G27G 8G19G26G13
  20921404.5934  -12933700.62249 -10068585.33047  20921404.4634   20921408.8414
       241.0004        211.0004
  23366492.3064   -8016739.57649  -6238640.20245  23366491.9944   23366498.3714
       219.0004        157.0004
  22736117.5794  -13986721.07349 -10886904.28046  22736117.6434   22736124.3034
       223.0004        175.0004
  22111956.0594  -11806727.98949  -9189487.75846  22111955.3524   22111962.7794
       231.0004        187.0004
  21207931.4594   -3004628.07649  -2336396.15047  21207931.3454   21207937.2204
       238.0004        203.0004
  20295314.9274  -13223022.48549 -10290232.25248  20295314.5964   20295320.1584
       245.0004        214.0004
  24513107.8964    9863690.20549   7692127.91845  24513107.7894   24513112.7864
       207.0004        151.0004
  23255071.9174   -7688604.29949  -5977298.35645  23255072.4184   23255079.4134
       216.0004        159.0004
  24355039.5274   20209591.93849  15715936.90445  24355041.5264   24355047.7094
       204.0004        138.0004
 05 10 27 19 55 30.0000000  0  9G28G11G29G 7G27G 8G19G26G13
  20921012.2424  -12935762.56749 -10070192.03947  20921012.1554   20921016.5894
       241.0004        211.0004
  23361145.1234   -8044838.95149  -6260535.80245  23361144.8064   23361150.6124
       218.0004        158.0004
  22724251.5984  -14049076.93249 -10935493.22446  22724251.5884   22724257.5144
       224.0004        176.0004
  22095956.8424  -11890804.29949  -9255001.72146  22095956.1784   22095963.4574
       231.0004        187.0004
  21213456.5304   -2975593.72949  -2313772.00347  21213456.6404   21213462.2364
       238.0004        203.0004
  20293314.9074  -13233532.66449 -10298421.99848  20293314.6814   20293320.3034
       245.0004        214.0004
  24531563.9314    9960676.89249   7767701.91245  24531563.1324   24531568.7644
       207.0004        151.0004
  23240545.8874   -7764938.64649  -6036779.61545  23240546.2454   23240552.4404
       215.0004        159.0004
  24376797.3224   20323928.58549  15805030.24245  24376797.4644   24376805.7384
       207.0004        141.0004
 05 10 27 19 56  0.0000000  0  9G28G11G29G 7G27G 8G19G26G13
  20920658.9664  -12937619.03149 -10071638.62947  20920658.8194   20920663.3144
       240.0004        211.0004
  23355875.6764   -8072530.20449  -6282113.37845  23355875.7444   23355882.8604
       220.0004        158.0004
  22712468.5694  -14110997.16049 -10983742.73346  22712468.3354   22712474.2484
       223.0004        176.0004
  22080016.6834  -11974570.16149  -9320273.78746  22080016.5134   22080023.4204
       230.0004        187.0004
  21219047.9334   -2946210.56549  -2290876.05147  21219048.1594   21219053.6074
       239.0004        202.0004
  20291381.2374  -13243694.11549 -10306340.01248  20291380.9894   20291386.6374
       245.0004        214.0004
  24550057.7574   10057862.15149   7843430.64245  24550057.0294   24550062.7524
       205.0004        151.0004
  23226100.0074   -7840851.25249  -6095932.24745  23226100.3554   23226107.2344
       216.0004        159.0004
  24398562.2714   20438303.25349  15894153.19445  24398563.5664   24398570.4314
       209.0004        143.0004
 05 10 27 19 56 30.0000000  0  9G28G11G29G 7G27G 8G19G26G13
  20920344.5594  -12939271.14649 -10072925.99047  20920344.3674   20920348.7124
       241.0004        211.0004
  23350684.4504   -8099810.90349  -6303371.04345  23350683.5784   23350690.8304
       219.0004        158.0004
  22700768.8054  -14172479.54649 -11031651.05146  22700768.7854   22700775.0554
       224.0004        176.0004
  22064135.9204  -12058023.60449  -9385302.40546  22064135.3674   22064142.6634
       232.0004        187.0004
  21224705.8554   -2916478.09749  -2267707.91547  21224705.8724   21224711.7044
       238.0004        202.0004
  20289514.2874  -13253505.00349 -10313984.85748  20289513.9424   20289519.6304
       245.0004        214.0004
  24568588.8534   10155243.61349   7919312.24645  24568588.5504   24568594.4054
       205.0004        150.0004
  23211735.0354   -7916339.57149  -6154754.26045  23211734.7804   23211741.5654
       216.0004        160.0004
  24420333.9274   20552713.61949  15983303.99245  24420334.6444   24420343.2634
       205.0004        142.0004
 05 10 27 19 57  0.0000000  0  9G28G11G29G 7G27G 8G19G26G13
  20920068.8734  -12940719.62549 -10074054.67047  20920068.7984   20920073.1704
       241.0004        211.0004
  23345571.5794   -8126679.12549  -6324307.31845  23345571.2774   23345577.1644
       219.0004        158.0004
  22689152.7614  -14233521.98649 -11079216.56046  22689152.9064   22689158.6844
       224.0004        176.0004
  22048315.0764  -12141162.64149  -9450086.02047  22048314.5994   22048321.8134
       232.0004        188.0004
  21230430.5094   -2886394.83449  -2244266.43447  21230430.4394   21230436.4634
       238.0004        202.0004
  20287714.2294  -13262964.09649 -10321355.57848  20287713.9584   20287719.4734
       245.0004        214.0004
  24587156.8174   10252818.47749   7995344.55445  24587156.4064   24587161.8974
       206.0004        149.0004
  23197451.2844   -7991400.98749  -6213243.63045  23197451.5284   23197457.8994
       216.0004        160.0004
  24442111.7324   20667156.94449  16072480.42345  24442112.7074   24442119.9924
       206.0004        140.0004
 05 10 27 19 57 30.0000000  0  9G28G11G29G 7G27G 8G19G26G13
  20919831.7984  -12941965.46149 -10075025.45347  20919831.5724   20919836.3284
       241.0004        211.0004
  23340537.4654   -8153133.08849  -6344920.76845  23340537.4024   23340542.8954
       220.0004        159.0004
  22677620.8734  -14294122.38849 -11126437.62346  22677621.0604   22677626.9964
       223.0004        177.0004
  22032554.3354  -12223985.62149  -9514623.36447  22032553.5214   22032561.3354
       232.0004        188.0004
  21236221.8794   -2855961.04049  -2220551.81447  21236222.0694   21236227.6624
       237.0004        202.0004
  20285981.4404  -13272069.92049 -10328451.02348  20285981.2474   20285986.7064
       245.0004        214.0004
  24605760.9894   10350584.12549   8071525.53145  24605760.4174   24605766.4074
       205.0004        148.0004
  23183249.1314   -8066033.21949  -6271398.55945  23183249.8804   23183256.1864
       217.0004        161.0004
  24463895.4454   20781630.67449  16161680.59445  24463897.0364   24463904.3624
       208.0004        139.0004
 05 10 27 19 58  0.0000000  0  9G28G11G29G 7G27G 8G19G26G13
  20919633.6274  -12943006.85049 -10075836.92547  20919633.4094   20919638.0444
       240.0004        211.0004
  23335583.1824   -8179168.06849  -6365207.75345  23335583.6924   23335589.0054
       219.0004        159.0004
  22666173.9654  -14354276.27949 -11173310.75246  22666173.9044   22666180.1964
       225.0004        177.0004
  22016854.6844  -12306487.80649  -9578910.73447  22016854.2294   22016861.6414
       232.0004        189.0004
  21242080.7134   -2825172.75149  -2196560.96247  21242080.4644   21242086.4504
       238.0004        202.0004
  20284316.6944  -13280818.07449 -10335267.76448  20284316.5004   20284322.3134
       245.0004        214.0004
  24624401.4184   10448540.77349   8147855.33845  24624400.3124   24624406.4164
       204.0004        148.0004
  23169129.8204   -8140230.92849  -6329214.90245  23169130.1954   23169136.8224
       218.0004        162.0004
  24485685.0804   20896135.06149  16250904.68645  24485685.7134   24485692.3344
       205.0004        136.0004
 05 10 27 19 58 30.0000000  0  9G28G11G29G 7G27G 8G19G26G13
  20919473.4794  -12943848.37949 -10076492.65647  20919473.3204   20919478.0664
       241.0004        211.0004
  23330708.2184   -8204785.89049  -6385169.67645  23330708.3774   23330714.3744
       218.0004        159.0004
  22654811.7144  -14413985.16449 -11219837.12746  22654811.8004   22654817.5364
       224.0004        177.0004
  22001215.7264  -12388670.85449  -9642949.42247  22001215.4354   22001222.2394
       232.0004        188.0004
  21248006.4574   -2794032.68649  -2172295.99747  21248006.6414   21248012.3584
       238.0004        202.0004
  20282719.5894  -13289210.90449 -10341807.62748  20282719.4164   20282725.0504
       245.0004        214.0004
  24643077.1424   10546682.50449   8224329.36845  24643076.3934   24643082.6254
       203.0004        146.0004
  23155092.9224   -8213995.41549  -6386693.66645  23155092.7734   23155099.3604
       218.0004        162.0004
  24507479.3584   21010663.77749  16340147.63645  24507481.1344   24507488.3164
       203.0004        137.0004
 05 10 27 19 59  0.0000000  0  9G28G11G29G 7G27G 8G19G26G13
  20919351.3194  -12944490.35349 -10076992.89447  20919351.2744   20919355.6054
       241.0004        211.0004
  23325913.0734   -8229984.42649  -6404804.89045  23325912.9564   23325919.3854
       219.0004        159.0004
  22643534.5564  -14473246.72249 -11266014.94146  22643534.3874   22643541.3974
       225.0004        178.0004
  21985637.9414  -12470532.64849  -9706737.79147  21985637.8004   21985644.5114
       233.0004        189.0004
  21253999.3204   -2762540.17449  -2147756.40247  21253999.4324   21254005.4644
       238.0004        202.0004
  20281190.4014  -13297246.90849 -10348069.44748  20281190.2944   20281195.7584
       245.0004        214.0004
  24661787.6444   10645006.95549   8300945.76445  24661787.1004   24661792.4724
       203.0004        147.0004
  23141138.9024   -8287323.94349  -6443832.72746  23141139.1134   23141146.2084
       217.0004        163.0004
  24529277.7064   21125214.40749  16429407.67945  24529278.4744   24529285.7994
       204.0004        140.0004
 05 10 27 19 59 30.0000000  0  9G28G11G29G 7G27G 8G19G26G13
  20919266.9394  -12944933.81149 -10077338.43947  20919266.7634   20919271.1624
       241.0004        211.0004
  23321198.1894   -8254761.47049  -6424111.67045  23321198.0914   23321204.7934
       220.0004        159.0004
  22632342.9044  -14532059.01149 -11311842.67346  22632343.1954   22632348.8334
       225.0004        178.0004
  21970121.6014  -12552071.30249  -9770274.35347  21970120.9324   21970128.1664
       233.0004        189.0004
  21260059.4504   -2730694.27749  -2122941.44347  21260059.4974   21260065.1164
       238.0004        202.0004
  20279729.4194  -13304924.24949 -10354051.79048  20279729.1964   20279734.7894
       245.0004        214.0004
  24680532.5854   10743511.89049   8377702.80945  24680532.6434   24680537.6714
       201.0004        146.0004
  23127268.3734   -8360213.68049  -6500629.86346  23127268.3454   23127274.8274
       217.0004        163.0004
  24551079.8254   21239784.55149  16518682.93745  24551081.1504   24551089.4914
       209.0004        141.0004
 05 10 27 20  0  0.0000000  0  9G28G11G29G 7G27G 8G19G26G13
  20919220.1544  -12945179.61849 -10077529.97147  20919219.9654   20919224.3184
       240.0004        211.0004
  23316563.7534   -8279115.17749  -6443088.57845  23316564.2884   23316569.5704
       219.0004        159.0004
  22621237.2274  -14590419.86449 -11357318.62846  22621237.9234   22621243.6244
       225.0004        179.0004
  21954667.1024  -12633285.00649  -9833557.71547  21954666.6614   21954673.7614
       233.0004        189.0004
  21266186.9374   -2698494.25349  -2097850.53447  21266186.9854   21266192.7774
       238.0004        202.0004
  20278336.9414  -13312241.55349 -10359753.57948  20278336.6904   20278342.3974
       245.0004        214.0004
  24699311.2734   10842194.55149   8454598.33945  24699310.9534   24699316.3244
       205.0004        147.0004
  23113481.7344   -8432662.62949  -6557083.53446  23113481.5504   23113487.6324
       217.0004        164.0004
  24572885.1364   21354371.41449  16607971.24945  24572885.6254   24572892.7194
       209.0004        143.0004
 05 10 27 20  0 30.0000000  0  9G28G11G29G 7G27G 8G19G26G13
  20919210.9294  -12945227.87549 -10077567.57147  20919210.6724   20919215.2084
       240.0004        211.0004
  23312010.3794   -8303043.23249  -6461733.80845  23312009.8114   23312015.6414
       219.0004        159.0004
  22610217.9414  -14648326.69749 -11402440.80846  22610217.1924   22610223.5684
       226.0004        179.0004
  21939274.9284  -12714171.24849  -9896585.91047  21939274.5364   21939281.5654
       233.0004        190.0004
  21272382.0934   -2665938.53749  -2072482.46247  21272381.9864   21272388.0234
       237.0004        202.0004
  20277013.3994  -13319196.82149 -10365173.26848  20277013.1964   20277018.7884
       244.0004        214.0004
  24718123.5664   10941053.08749   8531630.91545  24718123.0494   24718129.0354
       204.0004        148.0004
  23099779.7114   -8504667.30749  -6613191.01646  23099780.0154   23099786.5694
       218.0004        164.0004
  24594693.3764   21468973.39249  16697271.32245  24594694.7174   24594702.0184
       206.0004        141.0004
 05 10 27 20  1  0.0000000  0  9G28G11G29G 7G27G 8G19G26G13
  20919239.0474  -12945080.11249 -10077452.42847  20919238.7924   20919243.3724
       240.0004        211.0004
  23307538.2474   -8326544.50249  -6480046.47645  23307537.8074   23307544.5334
       219.0004        159.0004
  22599285.1794  -14705778.47049 -11447208.39446  22599285.1704   22599290.8534
       226.0004        179.0004
  21923945.2484  -12794728.93449  -9959358.08347  21923945.0094   21923951.9264
       233.0004        190.0004
  21278644.7564   -2633027.99949  -2046837.91147  21278644.8914   21278650.4704
       237.0004        201.0004
  20275758.8114  -13325789.46249 -10370310.38948  20275758.5944   20275764.1944
       244.0004        213.0004
  24736968.6204   11040084.22449   8608797.98645  24736969.1134   24736973.9364
       205.0004        148.0004
  23086162.4884   -8576226.27349  -6668951.18946  23086162.8124   23086169.8904
       218.0004        165.0004
  24616503.6174   21583587.19349  16786580.59645  24616503.9594   24616513.4914
       203.0004        138.0004
